GFSSW_250_rhum_000.txt.gz
RH
70 81 80 100 100 100 100 100 64 62 98 94 64 44 42 41 35 32 32 32 33 33 21 19 21 19 22 23 22 21 18 16 15 16 16 13 14 13 15 22 100 100 96 95 90
10 71 91 100 100 100 100 100 74 53 95 100 84 59 45 51 47 37 31 33 32 39 28 21 20 25 24 25 23 23 21 22 17 15 14 11 15 15 13 14 46 91 100 88 85
4 76 100 100 100 100 100 100 95 88 100 100 84 68 44 52 61 54 39 37 37 32 39 26 19 20 24 25 27 26 26 21 23 18 15 12 14 21 25 13 16 41 98 100 100
8 79 100 100 100 100 100 100 100 98 100 100 100 80 54 56 63 65 47 44 48 40 45 40 27 22 23 25 27 26 28 28 23 22 20 17 12 18 31 27 15 18 35 100 100
20 64 100 100 100 100 100 100 100 100 100 100 100 96 61 50 54 65 68 50 51 51 47 55 41 34 30 27 29 28 31 32 32 22 22 20 17 17 23 35 17 18 19 64 100
30 56 100 100 100 100 100 100 100 100 100 100 100 85 71 58 53 59 79 73 53 56 48 42 46 40 37 35 32 30 28 25 29 30 22 22 20 15 21 31 18 23 18 22 54
46 58 90 100 100 100 100 100 100 100 100 100 100 100 77 66 80 87 87 80 85 62 65 44 40 40 42 40 37 33 27 24 23 28 27 21 20 18 24 22 24 21 24 22 29
36 69 88 97 100 100 100 100 100 100 100 100 100 100 100 98 78 60 85 87 74 79 72 49 45 41 49 48 40 33 25 27 30 28 29 22 24 24 22 20 22 23 24 25 29
52 46 78 100 100 100 100 100 100 100 100 100 100 100 100 88 66 74 76 91 70 71 66 65 54 48 48 45 44 39 31 34 40 40 35 26 36 27 24 20 20 23 22 24 30
91 84 47 74 93 100 100 100 100 100 100 100 100 99 100 100 100 74 72 91 87 79 90 77 52 51 54 64 78 50 38 45 54 70 43 30 32 35 26 22 20 24 21 26 30
88 93 96 69 51 80 100 100 100 100 100 100 100 100 100 100 100 100 99 97 83 81 80 64 56 69 73 66 63 58 36 45 62 69 59 50 32 33 30 22 19 24 22 30 30
95 90 89 93 99 88 69 67 79 99 100 100 100 100 100 100 100 100 96 97 83 81 84 73 51 64 61 60 73 76 46 54 71 76 72 56 53 32 40 29 20 23 22 28 29
92 96 92 77 84 93 84 89 84 76 68 78 83 100 100 100 100 99 74 80 82 70 66 54 64 79 62 60 71 78 57 67 73 73 62 90 61 42 42 38 23 24 24 24 29
79 87 93 92 92 88 90 86 72 76 70 91 99 93 89 69 86 92 83 74 72 73 59 50 94 82 58 55 72 76 66 82 94 93 53 45 43 39 42 37 22 23 24 26 27
67 76 87 99 98 95 86 85 87 89 70 93 100 95 89 75 67 79 69 65 74 62 49 53 65 57 51 76 75 69 64 66 67 71 63 42 30 33 39 35 25 24 26 30 24
57 67 81 89 98 77 73 78 79 71 78 100 98 90 82 73 70 63 59 61 60 48 45 49 49 51 50 66 57 51 55 46 53 58 47 64 38 44 39 38 27 23 27 29 23
49 68 69 78 84 79 87 76 71 73 95 96 87 77 71 64 65 73 65 62 57 50 41 40 40 40 38 38 36 40 54 50 50 48 32 61 36 58 70 50 26 26 31 28 24
53 56 68 75 73 79 76 91 79 97 91 86 80 63 55 59 79 62 55 48 40 32 27 24 22 20 22 20 20 25 30 25 21 25 39 62 38 86 97 44 23 27 29 23 21
27 31 68 79 72 69 64 78 87 95 76 94 62 49 73 78 68 51 37 32 24 21 15 9 7 8 8 7 7 10 9 18 18 20 29 41 62 100 64 26 26 28 28 30 20
18 27 40 74 72 69 64 87 89 80 92 74 58 86 76 70 50 33 28 21 14 8 8 8 8 7 6 6 7 8 12 10 19 24 34 60 94 72 35 31 30 31 32 30 20
13 24 21 38 54 49 73 69 82 82 80 74 85 75 88 52 43 31 16 10 6 6 6 6 5 4 4 3 4 7 13 23 29 51 75 88 87 79 60 48 43 37 36 29 25
12 13 10 17 48 57 70 69 72 83 96 94 82 100 65 60 48 23 16 12 8 8 6 10 12 12 11 11 12 13 21 62 91 89 100 97 100 100 92 53 38 32 35 25 35
11 15 15 22 39 62 49 64 78 98 99 91 100 80 66 83 93 65 41 26 22 38 40 28 27 50 60 62 64 37 48 70 99 100 100 100 100 78 77 38 36 33 29 34 52
13 12 22 28 38 40 52 76 96 91 100 100 99 83 99 100 89 100 100 100 100 83 92 94 94 100 100 100 100 100 100 100 100 100 100 100 100 97 65 38 34 30 38 54 62
10 24 30 50 52 45 72 95 84 97 100 100 100 100 100 100 90 93 100 100 100 100 100 100 100 100 100 100 100 100 100 100 100 100 100 100 99 77 39 34 32 31 47 58 62
17 30 40 31 31 69 96 76 92 100 100 96 99 94 100 100 93 95 82 100 100 100 100 100 100 100 100 100 100 100 100 100 100 100 100 100 90 62 30 29 32 41 47 54 61
25 28 24 33 58 85 72 97 100 100 100 100 91 77 100 100 100 88 87 100 100 100 100 100 100 100 100 100 100 100 100 100 100 76 84 100 78 44 35 30 34 39 50 62 71

GFSSW_250_rhum_003.txt.gz
RH
64 70 72 78 74 70 67 97 100 100 100 97 79 74 63 82 90 82 50 32 33 37 30 27 27 26 28 24 20 21 22 28 27 20 15 12 13 13 14 16 20 25 54 100 100
53 62 68 68 66 77 82 79 93 100 100 100 96 87 70 74 100 97 56 46 30 36 38 34 34 32 34 28 21 22 24 29 28 25 21 13 14 14 14 15 16 18 21 62 100
50 63 52 51 55 60 73 89 92 100 100 100 100 90 76 76 100 100 56 46 41 37 42 36 35 34 33 35 26 24 27 26 27 27 24 18 18 15 15 17 17 15 14 16 52
72 75 65 56 59 64 77 93 100 100 100 100 100 100 100 90 100 100 70 57 50 48 41 40 39 40 36 39 37 22 23 23 26 26 26 22 21 20 16 18 15 15 13 16 19
86 63 62 42 25 19 31 83 100 100 100 100 100 100 100 100 100 100 96 55 55 53 50 44 44 47 51 44 41 36 30 25 25 25 25 27 22 23 21 18 16 15 14 14 16
89 77 52 22 14 10 54 100 100 100 100 100 100 100 100 100 100 100 100 78 62 60 71 65 55 46 56 57 45 39 38 30 28 31 28 23 24 19 25 26 19 16 14 14 17
98 84 52 20 14 22 77 100 100 100 100 100 100 100 100 100 100 100 100 100 85 76 70 81 71 53 43 52 48 38 37 34 29 32 30 27 25 25 27 26 24 18 14 14 15
100 97 62 26 20 52 98 100 100 100 100 100 100 100 100 100 100 100 100 100 100 83 86 64 65 55 52 45 40 39 36 36 40 33 30 24 27 28 29 22 25 24 16 14 15
100 100 84 47 28 56 98 100 100 100 100 100 100 100 100 100 100 100 100 100 85 96 96 65 73 60 57 52 39 48 46 42 38 32 30 23 25 29 26 24 23 25 23 16 15
100 100 100 68 38 48 81 96 100 100 100 100 100 100 100 100 100 100 100 100 100 98 100 71 63 65 70 89 64 45 40 44 43 42 38 34 26 27 23 25 27 22 23 21 18
84 100 100 100 78 44 70 92 98 100 100 100 100 100 100 100 100 94 85 81 99 100 100 88 66 74 74 61 59 44 46 44 46 48 46 51 29 30 28 24 32 26 22 24 21
76 94 100 100 100 83 63 78 93 91 100 98 96 100 100 100 96 95 90 86 84 97 87 71 85 94 83 72 68 57 52 46 50 54 52 62 45 35 32 30 32 35 25 26 25
69 75 95 100 100 100 93 84 59 74 89 98 93 95 89 100 81 86 100 99 100 92 92 79 89 92 92 73 56 56 54 49 49 58 49 58 55 36 38 38 40 42 34 27 28
74 80 80 92 98 100 100 90 84 89 71 71 60 62 63 81 83 92 92 82 70 70 68 66 100 78 68 73 49 58 51 46 41 49 45 51 58 48 38 42 50 53 36 36 31
47 73 86 85 100 100 95 94 95 93 78 90 94 96 97 87 82 84 83 81 74 63 60 66 60 48 47 84 58 52 63 44 42 45 44 47 44 56 40 62 67 72 53 36 38
40 53 81 82 100 100 92 100 100 86 82 91 100 98 96 94 94 91 84 78 74 60 53 56 52 50 46 49 45 49 58 50 46 46 30 55 35 55 60 58 64 54 54 39 34
28 42 56 90 100 100 96 100 97 98 100 99 94 98 100 95 85 90 94 85 66 43 35 26 24 26 28 33 38 45 53 49 42 35 25 51 32 46 66 69 61 63 56 46 30
16 38 50 89 82 98 100 100 100 100 100 100 95 98 100 94 100 98 92 66 33 22 20 23 28 26 30 29 31 30 34 30 30 28 32 50 23 34 67 93 94 79 70 47 36
10 28 52 50 59 87 93 100 100 100 100 100 100 100 90 95 100 90 57 34 38 40 32 24 23 26 27 27 25 27 27 41 32 24 27 28 28 31 53 95 100 77 78 52 43
8 15 37 34 50 84 90 88 99 93 97 100 100 95 92 100 89 62 48 46 31 16 11 10 10 11 13 13 16 16 15 13 12 13 11 18 18 29 57 99 98 80 86 60 39
7 9 15 26 52 86 91 95 89 83 93 100 100 100 100 84 76 57 49 38 50 24 10 6 4 4 5 5 6 6 7 9 9 10 10 13 20 45 72 96 82 84 85 72 43
7 9 11 10 28 86 100 89 75 91 93 100 100 100 87 78 71 55 70 87 50 32 14 8 7 8 6 6 4 3 5 8 9 10 11 14 19 34 65 81 77 89 73 58 38
8 11 12 18 31 86 90 73 88 90 99 100 100 90 79 80 74 86 100 76 93 61 38 34 25 19 11 7 10 6 6 7 10 11 14 19 28 37 51 60 81 79 60 42 36
9 9 9 15 16 24 34 67 75 88 100 100 96 77 89 79 80 100 100 95 99 88 95 81 71 64 68 90 97 33 18 19 25 32 48 62 62 71 82 82 69 72 53 35 37
9 12 21 39 43 40 40 56 62 88 100 97 79 99 89 100 100 100 97 100 100 100 100 100 100 100 100 100 100 100 73 44 64 90 93 100 100 100 100 89 86 64 40 38 42
13 20 23 24 23 28 45 52 80 100 97 88 81 100 100 100 100 100 100 100 100 100 100 100 100 100 100 100 100 100 100 100 98 100 100 100 100 100 100 85 77 68 40 40 41
17 20 19 22 28 33 47 67 93 88 93 76 93 99 100 99 100 100 72 98 100 98 100 100 100 100 100 100 100 100 100 100 100 100 100 100 100 100 100 100 100 64 38 38 42

GFSSW_250_rhum_006.txt.gz
RH
27 20 26 35 62 70 73 79 75 73 100 100 100 100 100 98 54 64 61 66 63 54 39 36 31 30 25 23 23 21 21 28 25 21 16 12 10 11 11 12 12 14 17 21 24
16 14 18 25 34 69 79 88 82 66 79 100 100 100 100 100 92 76 61 76 75 71 50 44 35 34 34 31 26 24 27 28 26 23 21 14 13 14 13 14 14 13 14 18 20
18 12 19 24 31 44 84 84 95 76 67 68 100 100 100 100 100 92 66 68 70 75 68 47 41 35 42 35 32 28 31 32 30 25 24 24 23 16 19 16 15 13 12 14 18
14 13 20 27 32 37 79 87 89 86 83 85 77 91 100 100 100 100 70 70 68 92 85 61 57 42 35 42 36 34 32 31 38 28 22 20 22 24 22 24 16 13 13 14 18
14 16 19 26 34 43 78 92 94 93 89 82 86 87 94 100 100 100 98 82 79 77 90 82 68 45 44 40 40 38 36 34 42 38 28 19 18 24 27 26 22 18 14 13 16
13 17 22 30 42 56 91 98 88 79 71 73 75 81 97 100 100 100 100 92 78 78 100 100 90 68 53 44 42 42 47 49 38 44 42 29 20 16 24 29 25 22 17 14 14
14 16 29 45 69 85 97 94 81 70 68 74 83 91 100 100 100 100 100 100 86 77 100 100 100 81 62 62 58 47 39 45 53 46 40 34 29 25 25 21 28 23 19 15 14
17 22 39 57 88 84 88 76 53 42 51 70 89 100 100 100 100 100 100 100 100 86 100 100 100 100 87 78 72 49 45 43 46 45 41 33 37 34 28 21 24 26 21 19 17
24 25 42 57 92 99 84 74 30 15 14 37 84 100 100 100 100 100 100 100 100 98 90 96 97 99 100 99 82 72 56 53 44 44 41 36 34 38 27 24 23 26 25 22 19
39 33 43 71 87 98 87 76 29 15 23 59 100 100 100 100 100 100 100 100 100 100 100 100 98 100 100 97 84 84 59 50 49 51 44 39 36 43 34 25 26 23 25 25 25
66 55 44 76 83 100 99 82 36 19 52 77 100 100 100 100 100 100 100 100 100 100 100 100 100 100 100 100 83 75 71 56 61 54 54 39 34 44 41 28 27 27 22 23 25
63 81 68 62 76 100 100 100 59 32 56 79 100 100 100 100 100 100 100 100 100 100 100 100 100 100 100 99 86 69 61 50 52 52 50 47 36 38 41 40 34 34 27 24 24
48 68 84 79 71 96 100 100 84 48 55 85 100 100 100 100 100 100 100 100 100 100 94 70 70 85 73 57 54 67 74 78 63 56 49 46 39 34 47 41 38 40 35 32 28
36 46 75 88 82 76 99 100 96 86 52 62 94 93 90 92 87 85 76 75 83 86 83 83 96 66 55 50 56 65 84 76 65 59 54 49 34 44 46 47 55 53 43 35 36
26 36 48 74 76 99 96 100 100 99 79 68 58 82 94 100 98 99 91 85 76 70 62 58 63 64 53 66 58 55 62 62 72 64 56 56 28 42 45 51 62 70 52 44 45
11 26 36 48 74 98 84 80 100 97 90 97 91 87 88 85 84 88 91 88 85 81 82 84 67 59 63 61 49 44 49 48 48 46 30 46 27 34 61 51 70 75 61 61 75
7 13 28 39 59 95 96 92 87 87 100 100 100 100 98 97 99 99 100 95 92 96 96 90 86 65 58 55 45 36 35 28 24 22 13 30 27 37 60 98 73 84 69 62 68
6 8 15 39 52 77 90 85 87 100 100 100 100 100 100 100 100 100 100 99 88 85 85 70 46 38 31 23 19 17 16 14 15 14 13 22 19 29 39 78 99 97 80 69 80
4 7 10 30 46 77 84 93 100 100 100 100 100 100 100 100 100 100 100 98 95 79 59 43 27 23 23 20 16 11 15 22 15 14 13 16 20 30 31 48 83 100 87 74 73
4 6 8 34 39 69 78 98 100 100 100 100 100 100 100 100 100 100 87 91 70 55 44 36 25 7 10 8 5 5 8 11 11 13 13 17 23 26 41 50 57 100 88 77 75
4 6 10 20 41 57 76 100 100 100 100 100 100 100 100 100 100 100 96 66 60 48 51 44 31 20 6 4 3 4 4 4 5 7 9 11 17 24 39 52 63 91 89 74 72
4 7 11 22 31 42 78 98 97 94 96 100 100 100 100 100 100 87 67 64 83 100 100 100 74 42 27 10 6 4 3 4 5 5 4 5 13 30 33 39 54 82 85 71 74
5 7 9 16 28 36 66 99 98 100 100 100 100 100 100 100 87 71 80 100 100 100 100 100 82 44 29 19 11 5 4 4 5 7 8 7 6 8 19 28 44 52 68 68 78
6 8 9 11 16 28 62 98 100 100 100 100 100 100 100 100 75 74 100 100 100 100 100 96 67 51 33 40 24 14 21 16 9 10 10 9 10 10 10 15 26 41 59 79 93
7 11 13 13 17 24 50 76 87 95 100 100 100 100 100 86 69 100 98 100 100 100 100 84 94 92 82 96 98 74 75 62 31 20 15 16 16 16 17 18 26 36 60 91 100
8 12 17 17 22 34 49 68 96 96 100 100 100 100 97 73 88 100 97 100 100 98 91 100 92 100 100 100 100 96 78 88 60 40 42 32 33 42 45 44 45 49 67 95 97
9 11 12 14 19 30 45 65 96 99 100 100 100 100 86 68 94 98 100 95 83 74 85 100 77 100 100 100 100 100 100 97 98 96 98 96 100 100 100 93 78 70 67 73 79

GFSSW_250_rhum_009.txt.gz
RH
28 54 64 91 69 54 36 46 66 67 67 62 71 77 88 83 92 92 84 60 52 57 62 48 36 34 35 31 22 21 24 27 20 16 14 11 13 14 15 15 12 12 13 14 15
26 46 56 54 65 51 39 40 46 69 70 67 66 75 83 100 99 99 92 98 80 52 58 62 51 49 45 40 29 24 24 30 24 19 17 14 12 14 18 18 15 12 12 11 13
21 49 66 75 57 53 52 31 38 49 72 74 71 70 80 100 100 100 100 100 100 62 58 66 69 66 51 41 39 33 33 35 32 26 22 16 17 17 19 19 16 13 11 11 12
16 32 47 44 47 34 26 16 20 31 53 78 79 74 78 91 100 100 100 100 100 86 70 60 72 61 58 56 53 42 36 39 39 30 22 20 20 21 22 25 16 14 13 13 12
16 25 28 32 32 22 21 15 18 20 39 80 88 80 85 85 97 100 100 100 100 100 95 71 60 65 57 60 71 40 42 40 42 40 33 27 23 23 27 25 18 17 16 17 16
16 17 24 24 26 22 21 16 22 28 36 67 98 98 98 91 80 94 100 100 100 100 100 91 62 68 68 74 77 95 54 44 41 42 39 33 29 26 35 28 20 17 17 17 20
19 16 16 19 18 18 21 18 26 32 42 67 100 100 100 94 91 88 85 97 100 100 100 100 100 71 62 74 98 100 86 59 44 41 42 40 41 38 28 28 31 21 17 19 20
28 21 19 16 16 18 20 21 32 42 49 80 100 100 100 99 99 100 97 98 99 100 100 100 100 99 83 60 80 100 100 76 61 44 41 40 40 41 38 32 36 32 22 17 18
47 36 27 20 19 18 21 25 37 58 71 98 100 100 100 100 100 100 100 100 100 100 100 100 100 99 91 71 65 100 100 100 84 78 60 51 42 41 37 35 35 38 37 28 24
42 50 45 34 24 20 22 28 52 85 100 100 100 100 100 100 100 98 100 100 100 100 100 100 100 100 100 98 81 95 100 100 99 96 83 66 47 56 45 45 38 33 37 36 30
43 49 49 49 44 30 22 46 80 100 100 100 98 86 80 88 96 100 100 100 100 100 100 100 100 100 100 94 87 83 74 94 100 97 91 68 48 46 50 46 45 37 38 37 33
25 41 46 43 48 37 29 66 92 97 96 88 94 66 38 45 82 100 100 100 100 100 100 100 100 100 100 99 95 82 64 86 100 100 78 70 54 59 57 56 53 46 40 42 39
8 25 42 42 43 43 49 74 81 98 89 94 76 29 17 20 49 90 98 100 100 100 100 100 100 100 100 100 100 100 100 85 73 75 77 76 79 72 76 66 54 55 56 47 43
6 8 30 43 42 51 49 80 90 87 90 86 56 26 20 28 49 83 100 100 100 100 100 100 100 100 100 100 100 99 86 67 68 60 63 68 50 56 55 69 59 59 61 62 49
4 6 14 40 40 48 68 92 82 93 82 81 56 45 42 48 96 89 100 100 100 100 100 100 100 82 78 80 66 58 60 55 50 46 43 46 36 47 82 94 83 72 70 63 57
3 5 8 33 42 51 77 82 72 74 90 87 72 61 58 71 100 100 100 97 100 100 96 76 68 76 91 79 56 49 50 46 40 35 26 34 31 36 67 98 92 85 79 69 56
2 4 7 19 42 52 73 69 57 70 97 100 97 90 77 87 100 100 95 90 90 87 84 90 96 85 81 71 57 46 37 34 36 37 32 36 34 35 50 61 79 88 79 81 68
2 3 7 14 35 46 66 53 56 99 94 100 100 98 94 89 91 90 96 100 98 98 98 100 98 92 77 68 61 45 34 32 29 24 18 22 23 43 49 74 73 99 70 61 70
2 3 6 10 27 41 54 56 80 100 100 100 100 100 91 95 100 100 100 100 100 99 98 95 96 86 68 53 42 31 20 15 10 9 9 11 19 28 33 34 68 86 100 70 72
3 3 6 10 18 36 53 62 100 100 100 100 100 100 100 100 100 100 100 100 100 98 100 93 69 55 44 35 28 14 8 6 4 3 5 9 16 26 20 16 53 69 100 100 77
3 3 6 10 16 32 53 79 100 100 100 100 100 100 100 100 100 100 100 100 100 100 92 67 50 40 37 54 47 22 12 4 2 2 2 5 11 22 15 13 35 57 100 100 73
3 4 7 10 14 24 59 87 100 100 100 100 100 100 100 100 100 100 100 100 98 83 63 69 68 93 76 61 62 41 15 7 4 2 2 3 8 15 14 12 22 43 83 100 79
4 6 8 9 13 35 79 87 100 97 100 100 98 100 100 100 100 100 100 97 74 77 93 91 90 80 70 67 43 20 18 10 5 4 4 4 7 8 8 12 20 30 55 100 75
4 6 7 10 12 30 60 75 100 99 100 100 100 100 100 100 100 100 100 83 87 99 91 98 88 66 52 67 60 52 36 20 15 10 6 6 6 10 14 18 20 26 36 69 66
4 6 8 12 17 34 47 68 97 100 100 100 100 100 100 100 100 100 92 76 72 89 75 91 76 80 55 92 91 90 86 72 46 24 13 11 9 7 10 19 20 27 35 47 58
5 8 10 10 15 21 40 65 92 100 100 100 100 100 100 100 100 96 86 72 73 85 94 77 93 100 100 97 100 96 99 80 79 54 30 18 14 14 11 11 19 26 35 41 47
7 8 11 12 15 28 38 63 93 100 100 100 100 100 100 100 98 90 81 73 64 92 96 67 91 100 100 100 100 100 100 98 94 81 68 48 38 28 22 20 19 24 33 44 45

GFSSW_250_rhum_012.txt.gz
RH
13 14 22 33 38 59 91 100 94 78 67 71 62 59 66 98 100 100 100 100 100 100 100 92 85 90 78 58 49 52 36 19 20 20 18 15 15 15 15 15 14 15 16 16 16
12 16 22 26 44 65 74 95 100 89 76 60 80 72 62 61 93 100 100 100 100 100 100 82 77 68 64 50 40 35 27 21 17 16 17 15 14 13 15 14 14 15 15 13 12
12 14 16 26 34 47 69 66 96 100 79 70 56 76 81 66 61 77 97 100 100 100 100 92 69 55 55 59 50 38 38 38 36 26 20 17 18 17 18 16 15 13 14 18 15
11 12 15 19 29 38 50 62 70 100 100 75 60 51 68 82 73 69 81 96 94 94 100 100 82 64 61 55 58 56 48 49 44 40 32 21 21 20 20 20 15 16 13 15 18
14 15 13 16 19 25 41 53 73 71 85 82 68 66 70 84 85 78 76 99 100 100 100 97 99 92 78 56 64 67 66 53 62 58 40 30 27 25 29 27 21 19 16 19 19
15 18 20 17 22 28 33 40 65 70 80 86 65 72 79 98 97 86 77 88 98 100 100 100 100 97 91 75 65 62 71 60 64 87 85 56 34 31 31 27 27 25 25 24 24
24 29 29 26 24 30 42 44 55 54 56 53 50 39 42 46 88 97 85 86 84 98 100 100 100 100 100 99 88 75 59 65 67 72 98 81 63 37 37 32 36 30 28 26 26
33 35 39 42 36 26 22 27 35 51 54 52 44 32 21 33 59 100 95 89 90 93 100 100 100 100 100 100 98 80 77 54 59 63 78 92 84 54 36 34 40 37 35 31 29
28 32 44 40 47 39 27 20 20 26 35 44 58 25 26 31 56 100 100 98 96 93 90 99 100 100 100 100 100 100 89 83 87 62 62 88 99 82 60 47 36 34 35 37 36
18 17 31 42 43 49 39 21 16 22 28 52 43 24 37 39 63 100 100 100 100 100 97 88 95 100 100 100 100 100 93 73 72 94 72 58 97 100 81 78 65 51 41 35 38
6 7 10 32 42 44 41 27 21 26 46 50 32 32 48 50 68 99 100 100 100 100 100 93 99 100 98 95 98 99 100 94 87 85 83 79 93 100 100 100 100 94 70 44 42
4 5 6 11 31 38 33 32 38 30 32 34 38 55 65 71 92 100 100 100 100 100 100 100 100 100 100 100 100 100 100 100 94 90 84 78 62 79 100 100 100 100 81 62 60
2 3 4 7 18 36 36 72 48 38 34 50 53 69 83 96 100 100 100 100 100 100 98 98 100 100 100 100 100 96 92 88 77 66 70 74 68 84 80 100 100 100 98 90 85
2 2 3 6 12 27 48 84 63 43 41 66 74 97 100 100 100 100 100 100 100 100 100 100 100 100 100 100 96 90 94 82 83 96 89 87 58 85 89 100 97 100 100 99 82
2 2 3 5 8 24 51 74 68 43 43 66 81 99 100 96 100 100 100 100 100 100 100 100 93 95 99 100 100 100 100 100 100 97 77 93 50 41 74 88 94 81 82 92 85
2 2 3 5 8 28 57 72 59 37 32 53 90 98 100 99 95 82 62 45 52 65 93 98 100 98 93 91 99 95 85 84 82 74 46 54 39 33 58 60 66 64 65 71 73
2 2 3 6 9 26 51 49 43 41 64 86 99 100 100 91 63 40 30 41 37 47 71 65 73 86 94 86 76 74 73 57 49 52 49 40 32 29 43 45 48 65 82 74 73
2 2 3 5 10 20 42 39 45 55 58 94 100 99 96 70 45 42 49 60 76 64 70 81 94 96 96 87 75 65 65 72 55 45 39 32 27 33 36 39 44 46 57 55 49
2 2 3 5 10 17 38 33 59 74 88 100 100 100 89 64 49 54 80 78 75 93 99 100 100 96 94 84 83 69 58 53 46 42 28 19 13 11 18 26 21 34 46 63 57
2 3 3 5 8 24 39 42 76 90 90 100 99 86 80 65 66 72 83 91 88 89 91 96 100 100 90 72 58 56 51 42 37 26 22 16 9 6 7 10 13 13 34 53 62
3 3 3 6 10 32 42 54 88 86 87 100 100 82 79 88 94 100 100 97 100 100 100 100 93 83 64 58 55 61 81 55 39 20 5 3 4 2 2 4 7 11 22 42 60
2 3 5 7 10 29 48 69 91 93 100 100 99 96 90 100 94 89 100 100 99 100 95 91 62 55 62 68 78 77 58 42 32 22 10 3 2 2 2 2 4 6 12 31 52
3 4 6 9 14 42 62 69 100 97 97 99 98 100 100 100 91 93 98 97 100 91 74 61 65 75 80 78 74 84 86 44 23 18 11 5 3 2 2 2 5 6 10 18 40
4 6 7 11 17 55 67 91 100 92 100 95 100 100 100 99 97 100 100 97 94 73 70 80 93 86 77 72 94 96 94 82 40 24 16 10 6 4 3 2 6 14 15 16 24
5 5 8 11 19 37 61 100 84 87 95 97 97 100 100 100 99 100 100 94 78 81 79 82 92 73 76 89 97 91 95 90 82 45 22 14 10 6 4 5 6 15 20 23 19
7 7 9 12 21 50 69 93 79 92 99 97 100 100 100 100 99 100 100 76 84 74 96 88 85 86 100 88 98 100 100 93 94 83 57 33 18 12 7 9 12 18 21 23 23
8 8 9 13 22 32 62 90 96 96 100 100 100 100 100 100 100 100 86 83 83 98 100 97 83 100 89 74 98 97 100 100 73 77 88 58 31 27 20 20 22 27 22 24 31

GFSSW_250_rhum_015.txt.gz
RH
9 9 11 11 12 25 51 80 88 96 95 76 65 56 59 68 78 100 100 100 100 100 100 100 100 100 98 91 82 75 81 100 88 62 60 47 40 39 45 37 35 33 29 21 23
9 10 10 12 14 20 34 69 70 83 100 86 78 77 70 69 73 73 100 100 100 100 100 100 100 100 100 94 78 81 82 98 79 69 68 60 56 47 43 34 29 23 20 17 18
9 9 11 12 14 20 25 54 64 78 86 100 98 83 83 74 80 70 83 100 100 100 100 100 100 100 100 100 86 89 94 86 79 70 64 55 48 43 38 24 17 15 14 14 14
7 9 10 13 14 17 36 35 65 73 98 100 100 100 89 89 85 76 66 70 99 100 100 100 100 100 100 100 96 75 83 77 68 63 54 45 36 28 24 18 14 14 14 14 14
8 9 11 12 14 17 17 23 36 64 77 100 99 100 100 94 96 94 74 68 70 95 100 100 100 100 100 100 100 81 78 67 62 56 51 43 36 33 27 27 18 17 16 18 18
10 10 14 14 14 14 17 17 22 34 46 75 100 100 100 100 98 89 98 77 70 71 87 100 100 100 100 100 100 91 78 64 61 63 55 49 48 43 39 30 30 29 24 22 22
19 18 17 18 17 20 19 17 19 28 35 50 77 100 100 95 100 87 97 100 89 73 75 91 100 100 100 100 100 89 81 74 66 59 64 58 60 56 58 68 65 42 34 29 30
19 24 26 23 24 21 24 22 18 27 34 45 66 96 100 100 100 100 94 85 97 97 84 79 99 100 96 97 100 94 91 82 89 61 63 62 64 64 65 81 88 70 70 52 38
17 16 22 32 30 31 27 29 27 22 32 44 60 84 99 100 100 97 95 86 88 87 100 98 86 99 100 100 100 97 100 97 93 79 74 70 55 57 62 66 90 85 81 65 60
7 7 7 13 32 39 39 40 39 29 23 33 58 71 98 100 99 88 73 73 81 88 100 100 99 92 98 100 100 100 100 100 100 100 99 81 68 75 59 58 60 73 96 86 73
2 3 4 5 9 30 49 50 28 26 27 45 53 49 77 89 99 95 75 78 67 57 75 98 100 100 91 100 100 100 100 100 100 100 91 91 84 82 82 64 69 62 59 99 78
2 2 2 3 5 11 38 50 39 61 94 50 33 30 56 59 70 80 81 55 39 30 49 99 100 100 100 95 99 100 100 100 100 100 97 98 96 91 83 69 68 71 94 100 100
3 2 2 2 4 7 21 47 59 75 74 55 27 23 32 41 48 51 53 37 30 33 66 96 100 100 100 97 92 90 87 90 88 93 99 98 93 91 85 90 84 86 85 92 100
2 2 2 2 3 6 11 34 63 68 80 66 36 26 33 36 41 41 40 39 46 56 83 100 100 100 100 100 99 97 95 88 84 86 92 99 79 86 97 99 79 85 94 88 84
2 2 2 2 3 5 9 29 60 69 69 61 41 34 32 37 56 51 58 63 67 81 88 100 100 100 100 100 100 100 99 90 90 86 80 86 77 79 98 100 98 82 66 57 60
2 2 2 2 3 5 9 24 50 52 48 47 37 43 52 68 70 85 89 93 94 92 95 100 100 100 100 100 100 100 99 100 96 90 82 98 70 58 100 85 81 80 68 66 76
2 2 2 3 3 6 10 29 38 35 51 48 39 60 75 90 94 100 100 100 100 100 100 100 100 100 100 100 100 100 100 95 90 92 91 85 70 68 98 51 46 45 45 55 60
2 2 2 3 4 6 10 20 29 41 50 65 66 71 90 96 98 100 100 100 100 100 100 100 100 100 100 100 100 100 100 97 79 75 56 44 39 45 43 48 27 22 28 33 44
2 2 2 3 5 8 10 20 38 62 86 74 76 99 100 100 100 100 100 95 91 89 86 79 74 78 83 83 74 63 46 47 50 59 56 57 57 42 45 31 26 20 16 24 29
2 2 3 4 6 9 14 27 63 88 81 68 77 96 99 100 95 99 95 86 66 50 40 49 58 75 88 62 53 67 82 94 96 75 56 49 34 24 14 10 9 10 9 10 17
2 2 3 5 7 10 23 56 85 83 86 79 91 99 97 98 93 86 64 50 56 66 76 81 93 74 72 91 100 98 85 71 61 54 51 41 50 6 13 13 12 9 6 5 7
3 3 5 7 8 19 42 67 74 89 74 81 96 100 98 100 98 68 51 77 84 87 98 94 85 94 100 98 85 73 67 79 88 65 44 32 24 16 8 6 4 4 3 2 4
5 5 7 8 12 26 48 61 75 82 79 92 99 99 100 100 86 74 70 76 89 94 95 98 97 89 88 89 73 69 73 80 91 82 80 47 20 12 7 4 4 2 2 2 2
7 6 8 10 20 38 62 66 74 90 87 86 92 100 100 100 89 73 74 79 87 99 99 83 74 70 70 65 86 100 91 84 99 99 95 62 26 10 7 5 4 2 2 2 2
7 9 8 13 29 51 58 64 87 87 85 87 94 100 100 95 86 78 73 81 93 94 80 69 88 80 71 68 79 100 100 92 89 99 97 75 33 15 7 6 4 3 2 2 3
10 11 12 15 24 44 57 85 82 87 96 96 90 100 98 88 87 77 82 94 82 82 74 81 99 86 66 58 88 100 94 97 98 99 99 96 64 29 16 10 7 6 6 7 6
10 12 13 15 28 56 66 93 82 84 91 93 89 97 100 97 98 97 98 94 80 76 84 96 95 99 88 61 100 95 100 100 100 100 94 98 84 57 36 32 25 19 17 14 16

GFSSW_250_rhum_018.txt.gz
RH
7 8 9 9 10 9 8 10 41 44 46 49 50 50 44 43 63 100 100 100 100 100 100 100 100 100 100 92 95 75 68 86 86 69 61 38 33 31 38 38 32 39 38 24 26
7 8 8 9 10 10 10 10 32 43 45 63 64 66 55 49 47 66 100 100 100 100 100 100 100 100 100 100 99 87 91 100 77 56 61 66 55 56 52 52 49 47 33 30 30
8 8 8 8 10 11 12 10 17 43 60 84 97 100 75 61 55 55 57 95 100 100 100 100 100 100 100 100 100 100 100 98 81 72 70 68 59 59 54 64 71 63 62 55 54
10 9 8 8 9 11 13 13 12 23 62 91 83 79 100 100 88 69 56 55 81 100 100 100 100 100 100 100 100 100 100 100 95 82 83 73 59 58 60 62 60 59 60 52 48
10 12 10 8 8 10 12 14 15 15 45 98 86 89 86 76 100 88 80 61 57 69 100 100 100 100 100 100 100 100 100 100 98 92 99 72 66 63 61 62 56 51 47 40 32
9 10 14 12 9 10 12 13 16 17 27 49 85 74 98 94 100 100 84 83 65 64 67 89 100 100 100 100 100 100 100 100 100 100 94 88 74 61 61 57 51 43 39 36 32
9 10 12 17 16 10 14 15 16 17 19 36 50 65 100 99 100 100 100 99 97 74 68 74 79 100 100 100 100 100 100 100 100 100 98 68 63 70 66 57 52 46 42 41 35
11 12 11 7 17 16 13 17 18 19 20 20 42 50 96 94 100 100 100 100 94 92 90 74 74 78 100 100 100 100 100 100 100 100 100 82 54 58 68 62 54 51 50 50 46
6 5 5 4 5 17 18 17 24 22 24 21 26 26 56 87 90 100 100 100 100 100 89 88 77 76 74 88 100 100 100 100 100 100 100 98 74 57 59 59 60 56 55 60 63
2 2 2 2 3 5 15 20 25 24 26 23 21 28 46 74 79 94 100 100 95 100 90 90 96 95 75 72 85 96 100 100 100 100 100 100 84 70 64 62 59 63 63 60 65
2 2 3 3 2 3 9 19 20 25 20 30 35 26 32 56 58 68 98 100 100 88 100 100 88 92 86 72 77 76 79 93 99 100 100 91 80 87 81 70 88 78 71 59 60
2 2 3 3 3 4 6 18 26 26 41 33 36 28 44 35 41 44 73 100 100 100 100 98 99 92 86 96 90 83 87 87 85 96 86 96 93 88 87 80 83 97 97 96 83
2 2 2 3 3 4 5 11 25 34 42 53 41 42 38 41 48 54 68 96 100 100 100 99 100 94 98 89 86 92 91 89 86 81 98 99 100 100 100 100 100 100 100 100 95
2 2 2 3 2 3 4 8 20 40 55 62 46 57 48 56 62 65 76 100 100 100 100 100 99 90 88 86 79 76 79 91 82 80 81 84 84 100 100 100 100 100 97 83 85
2 2 2 2 2 3 4 5 17 55 54 58 58 62 53 53 55 61 65 84 88 94 94 100 98 92 84 63 48 64 86 93 92 81 74 76 71 72 96 94 100 86 81 76 68
2 2 2 2 2 2 3 4 8 41 53 58 67 64 66 65 48 46 54 65 80 89 86 91 89 70 35 26 40 62 91 94 95 88 78 92 85 78 99 100 100 77 65 64 72
2 2 2 2 2 2 3 4 9 22 58 69 69 66 75 49 32 35 41 51 62 60 64 60 49 38 49 60 71 87 96 98 88 86 92 88 89 100 100 100 91 66 71 72 62
2 2 2 2 2 3 4 6 9 26 67 68 67 69 72 43 37 43 42 50 69 74 67 77 66 75 81 84 85 100 100 95 95 100 100 96 87 99 100 93 74 52 45 52 56
2 2 2 2 3 4 5 8 13 53 65 63 68 80 72 52 56 79 89 86 86 86 83 95 100 94 97 100 100 100 100 100 95 90 88 98 100 100 94 82 76 62 44 26 20
3 3 3 3 4 5 7 10 21 49 54 68 87 89 87 84 97 98 98 95 95 100 100 100 100 100 100 100 100 100 100 100 100 98 92 79 71 60 49 35 28 30 24 20 19
3 4 4 5 6 7 9 19 40 53 65 93 95 63 68 82 85 89 97 100 100 100 97 94 99 99 97 92 82 75 76 84 92 89 74 59 48 40 36 31 24 20 15 12 10
4 5 5 6 8 10 16 29 47 68 95 99 94 76 91 86 96 100 98 92 91 87 87 80 74 74 70 85 89 100 100 89 64 68 77 70 66 53 43 29 20 14 13 7 4
6 7 6 9 10 17 29 47 75 93 86 84 72 85 91 100 100 100 100 90 79 72 58 66 63 83 93 95 100 97 74 65 75 94 99 74 67 52 30 19 16 10 8 6 3
8 8 9 11 16 22 38 51 60 71 74 70 86 97 100 100 100 92 81 63 59 65 70 81 87 100 100 82 66 67 93 56 65 70 85 90 81 66 39 27 16 9 5 4 3
10 11 12 22 27 37 47 54 65 81 78 90 100 100 100 95 100 82 69 65 68 79 89 89 100 100 66 66 66 81 100 94 86 92 85 96 92 67 55 39 20 9 5 4 3
14 15 16 25 31 40 51 76 88 81 85 94 96 96 99 100 98 81 74 70 80 87 82 89 85 86 69 64 72 99 100 85 98 96 99 93 97 82 69 50 32 20 11 6 3
12 17 19 25 36 52 74 89 91 86 94 100 100 100 99 99 96 82 77 74 78 80 70 80 86 79 73 60 82 98 100 90 99 100 98 79 99 82 76 47 37 32 26 18 13

GFSSW_250_rhum_021.txt.gz
RH
6 6 6 7 8 9 10 9 8 7 16 22 23 35 40 34 62 100 100 100 100 100 100 98 99 98 89 83 70 63 51 97 100 100 92 49 54 57 43 44 35 33 45 28 27
7 7 6 6 8 9 9 10 10 8 11 23 26 27 41 38 36 61 100 100 100 100 100 100 91 96 100 97 78 89 87 100 100 95 94 65 52 52 54 47 36 43 30 29 25
7 7 7 7 7 8 9 9 10 10 10 26 33 31 29 54 43 46 53 100 100 100 100 100 100 100 100 97 98 99 100 100 100 98 84 91 77 68 57 69 66 56 42 38 37
7 6 7 8 7 8 9 9 10 10 11 19 32 47 42 38 76 65 42 60 99 100 100 100 100 100 100 100 100 100 100 100 100 99 86 100 88 72 59 65 75 71 52 46 47
7 6 5 7 8 7 8 9 10 11 11 13 23 39 53 56 84 84 70 53 54 72 99 100 100 100 100 100 100 100 100 100 100 100 99 96 95 86 79 74 68 61 61 55 52
6 7 6 5 8 8 8 9 10 10 11 12 14 39 47 90 95 89 92 84 57 49 53 91 100 100 100 100 100 100 100 100 100 100 100 100 97 84 82 78 66 63 63 53 46
4 6 6 6 4 6 8 10 10 11 11 13 13 23 33 100 100 100 100 100 96 75 54 59 98 100 100 100 100 100 100 100 100 100 100 100 99 88 95 79 78 70 59 58 53
4 5 3 2 2 2 6 9 12 13 11 12 13 14 63 69 100 97 100 100 100 100 94 54 54 67 98 100 100 100 100 100 100 100 100 100 100 100 79 80 83 85 86 68 54
4 2 2 2 2 2 3 6 10 16 14 13 13 17 34 68 100 100 100 100 100 98 87 80 57 53 57 72 100 100 100 100 100 100 100 100 100 100 99 95 93 86 89 75 58
3 2 2 3 2 3 3 4 7 15 16 14 12 15 19 55 97 100 100 100 99 94 93 88 86 75 62 57 69 81 100 100 100 100 100 100 100 100 100 100 100 88 78 76 65
2 2 2 2 2 3 4 4 5 10 18 14 20 18 21 29 54 100 100 100 99 93 98 92 94 95 98 86 62 60 69 93 100 100 100 100 100 100 100 100 100 100 99 86 77
2 2 2 2 2 2 3 4 4 7 14 22 22 20 23 21 26 62 100 100 100 100 100 100 100 98 84 88 86 82 68 72 70 93 100 100 100 100 100 100 100 100 100 100 90
2 2 2 2 2 3 3 4 4 6 17 31 31 35 25 22 24 40 98 98 90 100 100 100 98 89 92 100 94 75 74 70 69 67 71 84 96 100 100 100 100 100 100 88 74
2 2 2 2 2 2 3 4 4 6 19 34 34 37 31 28 25 30 69 90 95 100 100 100 100 100 100 100 95 83 79 80 76 71 63 64 61 76 82 86 97 100 94 82 90
2 2 2 2 2 2 3 4 4 5 14 36 41 40 45 36 32 28 32 93 84 80 86 98 100 100 100 99 98 86 80 76 65 66 64 61 52 82 72 86 94 88 88 89 87
2 2 2 2 2 2 3 4 4 5 13 28 42 49 58 56 45 46 52 39 66 98 98 100 99 96 100 100 89 93 87 78 72 75 58 63 42 60 99 100 99 79 79 87 86
2 2 2 2 2 2 3 4 4 5 26 51 70 73 72 66 63 65 69 63 66 72 77 70 83 91 100 100 100 96 87 67 70 62 52 55 55 69 100 100 100 100 98 84 70
2 2 3 2 2 2 3 4 4 24 46 65 75 64 67 78 81 70 60 72 69 77 77 83 93 92 90 90 82 73 71 64 59 43 41 51 86 100 100 100 98 90 87 84 73
2 3 4 4 3 3 3 4 8 23 53 80 68 68 80 87 84 78 72 55 57 58 58 63 68 70 71 67 63 70 63 62 72 81 81 100 100 100 100 99 76 66 66 60 59
2 3 4 4 4 4 5 7 11 40 55 62 70 82 85 91 92 68 44 45 49 47 52 55 57 55 60 59 65 77 89 87 92 96 100 100 100 100 100 100 90 71 58 46 39
3 4 5 5 5 6 7 9 18 45 64 72 77 72 71 85 74 62 44 54 60 66 66 67 80 79 73 92 94 89 95 96 100 100 100 100 99 83 75 68 59 46 33 26 23
3 5 6 7 6 7 9 13 19 34 50 67 68 81 98 68 67 71 94 92 91 96 97 100 88 73 89 97 100 100 100 100 100 89 75 67 74 70 64 49 38 38 37 32 17
4 6 8 11 9 11 13 24 37 55 66 73 92 92 80 99 100 98 93 100 100 100 100 100 97 100 100 100 98 98 100 93 78 68 66 70 70 56 48 41 44 44 40 27 15
8 6 12 19 22 23 29 32 46 56 65 82 86 90 98 96 95 98 100 100 100 97 100 93 90 89 90 100 100 94 82 92 75 74 78 61 67 68 54 63 65 44 31 19 9
14 9 14 26 30 38 45 57 66 76 80 88 85 96 100 100 98 98 98 100 97 96 88 78 83 89 100 94 80 69 99 70 59 74 73 98 69 60 52 67 48 36 22 12 7
16 14 14 28 38 46 64 88 97 99 91 85 96 100 100 98 88 84 89 82 69 65 70 87 99 100 94 74 64 76 80 76 99 86 82 70 79 59 54 80 51 37 26 13 8
16 22 14 18 40 55 69 72 84 93 86 89 100 99 98 94 98 88 70 65 71 82 83 84 98 95 84 70 68 84 93 93 92 91 98 94 84 76 60 79 62 40 48 41 30

GFSSW_250_rhum_024.txt.gz
RH
8 8 7 5 6 6 7 7 9 11 10 8 10 12 27 32 43 51 99 100 100 100 100 100 100 100 86 68 78 77 71 87 93 67 74 48 35 30 30 44 56 66 87 74 61
7 6 6 6 5 6 7 8 8 10 11 9 8 14 21 34 41 35 77 98 100 100 100 100 100 100 100 100 99 81 89 98 97 97 85 53 49 40 37 55 67 46 77 75 57
7 6 5 5 6 6 7 8 9 9 10 12 9 11 16 26 48 57 54 100 100 100 100 100 100 100 100 100 100 98 96 100 100 98 91 76 58 53 51 59 76 56 47 66 65
7 6 6 5 5 6 7 8 8 10 9 11 12 10 14 20 48 70 58 64 100 100 100 100 100 100 100 100 100 100 100 100 100 100 94 94 85 78 63 76 68 54 54 57 60
5 5 6 5 4 4 5 7 8 9 10 11 13 10 12 17 37 60 78 63 96 100 100 100 100 100 100 100 100 100 99 94 95 92 89 100 100 98 92 90 91 94 58 67 60
4 4 4 3 2 2 3 4 8 9 10 10 12 12 10 41 45 65 72 76 61 83 100 100 100 100 100 100 100 100 100 96 100 100 100 100 100 100 99 74 73 84 92 72 88
3 4 2 2 2 2 2 2 5 9 10 10 10 13 12 17 62 78 75 84 85 55 88 100 100 100 100 100 100 100 100 100 100 100 100 100 100 100 100 100 100 85 88 84 79
3 3 2 2 2 2 3 3 3 8 11 11 10 12 16 18 61 89 80 69 78 90 64 55 91 100 100 100 100 100 100 100 100 100 100 92 100 100 100 98 100 100 97 86 92
3 2 2 2 2 2 3 3 3 4 11 12 11 14 16 15 52 100 86 87 88 94 95 74 48 68 98 100 100 100 100 100 100 100 100 100 100 100 100 100 100 100 100 99 86
3 2 2 2 2 2 2 3 3 3 8 13 13 12 17 20 33 100 100 100 100 95 94 93 78 52 56 88 100 100 100 100 100 100 100 100 100 100 100 100 100 100 100 100 100
2 2 2 2 2 2 2 3 3 3 5 13 18 16 16 19 19 96 100 100 100 88 96 99 92 99 88 65 56 66 90 100 100 100 100 100 100 100 100 100 100 100 100 100 100
2 2 2 2 2 2 2 3 4 4 5 18 26 23 19 21 19 66 100 100 98 95 100 100 100 100 94 92 90 72 56 80 100 100 100 100 100 100 100 100 100 100 100 100 100
2 2 2 2 2 2 2 4 5 4 6 23 34 29 22 21 24 24 80 100 100 92 100 100 100 100 98 96 85 77 66 55 61 67 86 95 100 100 100 100 100 100 100 100 100
2 3 3 2 2 2 2 3 4 5 6 19 35 35 27 20 24 24 25 52 78 96 100 95 100 100 99 79 89 86 96 86 80 55 63 65 74 86 94 100 100 100 100 100 100
2 3 3 2 2 2 2 3 4 5 7 19 38 41 34 36 31 27 28 44 87 100 100 100 100 99 100 97 90 86 82 82 87 82 79 81 65 100 73 76 84 87 94 99 100
2 3 3 2 2 2 2 4 4 5 6 16 37 38 42 46 36 31 30 29 71 100 99 99 100 100 94 97 100 100 96 87 90 92 85 78 60 80 90 79 75 77 78 79 80
2 3 3 3 2 2 2 3 4 4 18 25 41 47 54 57 55 41 37 36 46 58 84 80 100 100 96 94 100 100 100 100 82 82 98 92 71 79 73 84 76 71 57 60 63
3 4 3 3 3 2 2 4 5 13 29 36 60 70 85 77 58 33 30 31 36 43 46 63 80 87 94 100 95 100 100 95 99 84 81 88 81 88 82 100 94 80 69 48 43
4 3 3 4 4 3 3 4 10 28 39 59 67 64 85 93 80 74 52 40 44 37 40 60 76 84 90 93 91 88 81 89 86 92 88 88 88 100 93 67 44 28 26 32 38
5 4 6 6 6 4 4 5 13 30 53 66 89 94 88 82 84 74 55 53 44 51 49 53 63 74 80 86 89 80 86 88 89 91 87 98 100 86 48 38 48 60 62 60 54
6 6 8 8 7 7 7 11 24 43 50 55 62 63 65 79 77 79 76 71 67 75 72 69 65 57 71 94 100 96 88 88 83 86 84 77 81 77 78 84 81 71 68 54 48
6 8 10 14 10 8 11 19 32 51 70 76 83 90 93 85 82 80 69 63 78 74 59 65 67 78 84 76 84 86 86 84 80 76 77 98 99 100 87 77 69 64 54 40 35
9 10 12 22 21 17 17 25 45 60 73 80 81 78 94 98 100 82 72 70 64 64 63 56 67 82 79 82 93 99 100 98 89 92 100 93 83 88 84 71 58 47 37 33 32
10 11 12 23 29 29 28 32 43 64 74 78 78 90 98 68 85 98 97 93 90 91 93 88 98 99 100 98 100 100 96 94 97 90 81 79 78 64 68 53 41 42 45 48 32
12 13 15 18 38 44 48 48 50 58 65 74 93 100 87 92 98 98 100 98 99 98 97 94 97 99 100 96 96 92 95 100 99 90 87 73 80 78 57 38 50 67 57 59 38
14 14 15 18 32 57 64 75 85 84 79 91 95 89 95 99 100 100 95 91 91 98 100 100 100 100 94 97 96 96 89 98 85 100 94 82 65 56 42 47 56 70 84 82 39
17 15 16 18 21 45 57 73 79 86 81 74 76 78 84 89 95 100 100 100 99 99 100 100 98 91 92 85 81 69 95 100 92 72 61 77 60 47 46 57 68 72 100 86 56

GFSSW_250_rhum_027.txt.gz
RH
8 7 7 6 6 5 5 6 6 5 6 8 8 7 8 19 31 81 100 100 100 100 100 100 100 100 92 94 100 82 64 73 97 87 92 65 58 51 41 37 36 37 36 37 48
8 7 8 6 6 5 5 5 7 6 6 6 9 8 8 15 30 39 88 100 100 100 100 100 100 100 100 100 100 100 90 94 90 84 72 60 61 55 50 44 43 45 40 32 34
7 7 6 6 6 4 5 5 7 6 6 8 8 9 8 12 27 59 38 76 100 100 100 100 100 100 94 100 100 100 100 100 100 100 92 70 60 52 52 49 53 52 43 38 30
6 7 5 5 4 4 3 4 5 7 6 7 8 10 9 8 25 41 56 49 66 100 100 100 100 100 100 100 100 100 100 100 100 100 97 84 72 73 68 82 60 52 50 44 49
6 5 4 4 3 2 2 3 3 6 7 7 9 10 10 10 13 42 51 62 48 67 100 100 100 100 100 100 100 100 100 100 100 100 100 100 95 91 81 75 62 71 71 50 44
5 4 3 3 2 3 3 3 3 4 7 7 8 9 12 13 11 35 45 62 68 70 100 100 100 100 100 100 100 100 100 100 100 100 100 100 100 94 95 82 75 68 72 69 52
4 3 3 2 2 2 2 2 3 3 7 8 8 10 12 14 13 34 50 56 77 74 100 100 100 100 100 100 100 100 100 100 100 100 100 100 100 100 100 89 73 83 82 99 99
4 3 2 2 2 2 2 2 3 3 5 8 9 10 13 16 18 47 60 51 78 93 74 87 97 100 100 100 100 100 100 100 100 100 100 100 100 100 100 89 81 78 90 100 100
4 2 2 2 2 2 2 2 2 3 3 8 10 11 13 11 15 29 69 69 76 81 100 83 56 100 100 100 100 100 100 100 100 100 100 100 100 100 100 100 94 100 100 100 100
3 2 2 2 2 2 2 2 2 3 3 6 11 12 13 14 19 25 79 78 71 71 96 92 74 80 100 100 100 100 100 100 100 100 100 100 100 100 100 100 100 100 100 100 100
3 2 2 2 2 2 1 2 2 3 3 5 13 14 15 13 19 20 44 74 82 61 71 93 93 85 91 100 100 100 100 100 100 100 100 100 100 100 100 100 100 100 100 100 100
4 2 2 2 2 1 1 2 2 4 4 6 16 18 13 16 18 20 28 88 96 95 78 72 96 100 88 84 97 100 100 100 100 100 100 100 100 100 100 100 100 100 100 100 100
4 2 3 2 2 1 2 2 2 5 5 8 17 18 17 16 20 20 22 43 100 100 100 91 100 100 86 78 72 85 92 98 100 100 100 100 100 100 100 100 100 100 100 100 100
3 2 3 2 2 2 2 3 3 5 5 8 18 21 19 19 24 20 22 22 93 97 92 100 95 94 98 96 88 77 73 64 74 85 99 100 100 100 100 100 100 100 100 100 100
3 2 3 2 2 2 2 3 4 5 5 10 20 24 24 24 38 24 26 24 35 93 100 100 100 100 100 90 89 95 95 82 65 54 60 74 82 100 90 99 100 100 100 100 100
4 3 4 2 2 2 2 4 5 5 5 10 23 34 32 34 38 25 28 25 24 61 100 100 95 90 83 88 87 94 94 92 93 94 78 76 72 96 92 66 75 87 85 89 92
4 4 4 3 2 2 3 4 4 6 9 24 38 42 42 48 47 34 31 28 26 32 99 100 100 100 100 100 100 100 100 94 87 86 94 98 84 100 100 96 92 73 54 53 58
5 4 5 4 3 3 3 4 6 10 25 37 46 50 46 59 43 38 54 41 35 39 93 93 98 99 100 100 100 100 94 93 100 100 99 88 80 92 92 97 99 77 74 67 56
6 4 6 7 5 4 3 6 11 21 41 49 55 74 77 62 57 59 44 44 40 30 30 56 92 100 96 97 95 100 98 92 98 92 97 100 100 100 92 71 68 70 73 69 67
8 6 7 11 7 7 7 11 34 41 52 67 78 86 72 66 58 53 52 39 41 45 39 37 46 58 88 99 96 99 100 100 88 91 95 99 98 94 66 59 64 60 60 65 67
10 8 8 16 11 10 11 22 31 44 53 58 62 54 57 60 51 47 50 60 58 57 57 54 54 57 63 73 82 98 94 93 84 85 99 100 90 65 69 83 80 82 86 82 60
11 10 9 18 22 14 18 29 42 59 82 88 86 84 98 100 100 99 79 69 68 71 65 58 57 75 84 77 74 85 91 93 96 100 97 79 84 72 94 98 85 76 62 53 60
13 12 11 15 28 26 22 32 47 62 70 72 76 80 89 93 87 95 97 94 86 86 83 81 81 75 69 71 81 74 94 81 83 77 68 99 99 99 99 92 80 68 60 51 44
14 14 14 15 24 42 35 31 42 56 69 67 68 72 86 90 87 85 84 83 82 88 98 95 97 94 94 95 91 87 98 92 82 92 100 100 100 100 94 83 68 59 46 38 38
15 15 15 17 24 42 56 50 46 48 58 65 74 76 88 77 68 67 74 75 71 75 80 88 92 90 91 94 89 100 97 90 100 100 100 100 99 94 79 64 53 42 43 48 48
16 15 16 17 20 30 57 68 73 72 65 69 76 92 91 79 70 72 81 86 84 85 90 91 100 99 93 84 98 97 97 98 100 100 100 100 95 71 70 54 54 50 67 59 49
17 16 14 17 17 22 33 58 70 83 93 93 91 96 99 79 78 84 94 96 93 91 98 99 100 100 100 99 99 89 100 100 100 100 94 85 68 58 63 54 51 65 72 67 57

GFSSW_250_rhum_030.txt.gz
RH
10 9 8 7 7 6 5 5 4 6 5 6 6 6 6 8 8 12 58 100 100 100 100 100 100 98 83 79 76 66 48 58 85 89 95 63 59 68 80 87 86 84 84 85 86
8 7 7 7 6 6 5 4 5 4 5 5 5 6 7 7 8 10 16 72 100 100 100 100 100 100 100 100 89 76 78 96 88 92 81 63 50 46 61 74 70 70 64 62 65
7 7 6 6 5 4 4 4 4 4 5 5 5 5 6 7 9 11 10 19 85 100 100 100 100 100 100 100 100 100 100 100 100 97 97 68 56 50 50 56 63 70 69 62 49
6 6 5 4 3 3 3 2 2 3 3 5 5 5 6 8 10 8 9 12 38 100 100 100 100 100 100 100 100 100 100 100 100 100 99 78 69 60 60 72 70 77 66 63 62
5 5 4 3 3 3 3 3 2 3 3 3 5 6 6 7 8 8 9 9 19 92 100 100 100 100 100 100 100 100 100 100 100 100 100 94 91 72 77 77 56 63 64 66 62
4 4 3 3 2 2 3 3 2 3 3 3 4 6 6 8 8 10 7 8 12 26 100 100 100 100 100 100 100 100 100 100 100 100 100 100 100 91 100 77 64 63 66 67 71
4 4 3 2 2 2 2 2 2 2 3 3 3 6 7 10 7 12 9 7 10 24 40 100 100 100 100 100 100 100 100 100 100 100 100 100 100 100 100 81 71 80 75 81 90
4 3 2 2 2 2 2 2 2 2 2 3 3 7 10 10 8 13 11 9 14 26 46 69 100 100 100 100 100 100 100 100 100 100 100 100 100 100 100 100 100 94 96 97 100
4 3 2 2 2 2 2 2 2 2 2 3 3 8 11 10 11 14 14 12 24 36 65 68 93 100 100 100 100 100 100 100 100 100 95 96 100 100 100 100 100 100 98 100 100
3 3 2 2 2 2 2 1 1 2 2 3 4 10 12 12 12 17 18 15 33 58 72 78 70 85 100 100 100 100 100 100 100 100 97 86 90 100 100 100 100 100 100 100 100
3 3 2 2 2 2 1 1 1 2 3 5 6 14 13 12 11 16 21 18 49 69 90 93 86 90 89 97 100 100 100 100 100 100 100 100 100 100 100 100 100 100 100 100 100
3 3 2 2 2 1 1 2 2 2 4 6 8 15 13 13 14 16 18 24 54 100 97 97 100 95 80 75 93 100 100 100 100 100 100 100 100 100 100 100 100 100 100 100 100
4 3 2 2 2 1 2 2 2 3 5 6 7 12 15 14 17 20 21 26 42 77 71 63 100 98 96 95 95 100 100 100 100 100 100 100 100 100 100 100 100 100 100 100 100
4 3 3 2 2 2 2 2 3 4 5 7 10 17 16 16 18 20 22 33 46 79 66 63 81 91 95 99 100 100 100 100 100 100 100 100 100 100 100 100 100 100 100 100 100
4 3 3 2 2 2 2 4 4 4 4 6 10 14 14 20 20 19 20 34 60 82 62 75 72 86 85 86 99 100 100 87 100 100 100 100 100 100 100 100 100 100 100 100 100
5 4 3 3 3 2 3 4 5 5 6 8 15 25 25 26 24 21 24 31 67 57 48 40 67 85 80 88 87 100 100 91 91 100 100 100 100 100 100 100 100 100 100 100 99
6 4 4 4 3 3 3 4 5 7 10 20 26 29 28 24 25 24 28 32 57 50 31 41 84 87 79 82 98 100 100 99 94 84 94 99 98 100 100 98 92 89 92 92 96
8 6 5 5 5 4 3 4 8 12 25 29 34 36 35 34 28 34 40 35 42 65 47 42 79 94 86 74 82 94 95 100 100 100 99 97 96 98 96 82 73 70 66 62 58
9 8 7 9 10 7 5 6 19 28 34 41 42 39 40 44 35 53 42 33 32 31 36 38 60 99 100 93 88 84 88 98 92 93 96 100 98 97 89 89 88 91 88 78 62
10 10 8 11 15 13 11 13 28 29 32 34 32 36 42 46 47 41 37 44 38 37 35 38 38 77 100 100 100 91 96 99 90 92 94 94 95 85 77 76 84 83 75 71 72
12 11 10 11 19 23 17 24 31 40 46 52 63 71 70 77 68 54 45 42 42 46 49 45 42 47 68 100 100 95 92 92 98 100 99 95 86 78 80 84 77 74 72 78 75
14 13 12 11 18 30 29 24 28 42 55 71 75 86 82 83 83 78 60 59 56 48 47 44 43 57 63 95 98 91 93 94 98 100 100 94 88 80 78 76 70 82 86 78 69
14 15 13 13 14 27 40 39 39 48 61 74 84 87 80 67 63 63 68 60 56 59 64 68 70 66 72 91 99 95 99 100 99 99 94 92 97 90 84 94 86 76 79 71 72
14 15 14 15 14 20 35 49 48 52 56 62 68 72 76 87 82 71 65 70 69 69 76 77 80 73 67 66 65 72 78 85 92 87 85 80 80 99 99 85 84 81 80 77 60
14 15 14 16 16 15 20 39 61 60 58 62 67 69 72 83 79 71 70 69 76 81 76 75 78 80 74 76 79 77 72 74 56 61 62 96 100 99 94 94 93 79 77 77 51
13 17 14 15 16 18 17 21 41 56 73 74 74 77 83 92 80 71 68 62 64 73 83 89 92 91 97 87 80 75 84 70 85 94 100 100 99 100 92 88 89 87 76 41 47
9 16 15 14 17 16 18 20 24 35 56 80 88 88 94 98 89 79 72 74 73 70 69 74 79 84 84 90 95 94 96 96 100 99 100 100 98 89 92 90 89 56 48 49 73

GFSSW_250_rhum_033.txt.gz
RH
8 7 6 5 6 6 7 6 6 6 5 6 5 6 6 6 5 6 7 15 41 94 100 100 100 100 100 85 43 38 42 64 80 75 98 100 96 100 100 100 100 100 100 94 73
8 6 5 5 5 5 5 5 5 4 4 4 5 5 6 6 5 6 7 10 14 68 85 100 100 100 100 100 84 46 44 89 92 85 74 65 89 100 100 100 100 100 100 100 100
8 5 4 4 4 4 3 3 3 4 3 3 4 5 5 6 6 6 6 7 9 19 67 100 100 100 100 100 100 96 69 94 84 74 80 62 44 54 69 82 86 86 94 93 94
6 4 4 4 3 3 2 3 2 3 2 2 3 5 5 5 6 6 6 7 7 13 42 100 100 100 100 100 100 100 95 85 100 88 81 66 47 44 56 71 74 72 74 79 83
4 3 3 3 2 2 2 2 2 2 2 2 3 3 5 5 7 7 6 7 8 11 28 98 100 100 100 100 100 100 100 100 100 100 92 74 57 52 58 61 73 78 76 63 57
4 3 3 2 2 2 2 2 2 2 2 3 3 3 4 6 8 7 7 7 9 12 13 78 100 100 100 100 100 100 100 100 100 100 100 100 92 80 95 81 73 83 86 74 76
4 3 2 2 2 2 2 2 2 2 2 2 2 2 3 7 8 8 8 8 10 12 13 40 100 100 100 100 100 100 100 100 100 100 100 100 100 97 89 79 79 88 91 97 100
3 3 2 2 2 2 1 1 2 2 2 2 3 3 4 6 8 9 7 8 10 11 12 16 59 100 100 100 100 100 100 100 100 100 100 100 100 100 95 97 96 94 93 100 100
3 3 2 2 2 1 1 1 1 1 2 2 3 4 4 7 9 9 9 10 11 12 12 14 20 59 100 100 100 100 100 100 100 100 100 100 100 100 100 100 100 100 99 100 100
3 3 2 2 2 1 1 1 1 1 2 2 3 4 5 6 10 10 10 11 14 14 12 12 15 30 100 100 100 100 100 100 100 100 100 100 100 100 100 100 100 100 97 92 98
3 3 2 2 2 2 1 1 1 2 2 2 3 5 6 9 12 13 14 14 16 16 13 11 11 20 73 100 100 100 100 99 87 98 100 100 100 100 100 100 100 100 100 97 98
3 3 2 2 2 2 2 2 2 2 2 3 4 5 7 12 16 16 16 17 20 21 16 11 10 15 28 86 100 100 100 100 100 99 82 77 99 100 100 100 100 100 100 99 88
3 4 3 3 2 2 2 2 2 2 2 3 5 8 11 17 18 18 27 24 25 28 19 12 11 15 19 74 100 100 100 100 100 100 95 84 92 100 92 89 85 95 99 90 83
3 4 3 3 3 2 2 2 3 3 4 4 5 8 13 18 18 17 29 38 34 80 38 17 14 14 33 66 99 100 100 100 100 100 100 100 100 100 100 97 99 100 89 100 100
4 4 3 3 4 3 2 3 4 4 5 5 7 10 15 18 19 22 23 19 34 71 42 20 15 19 27 58 84 96 100 100 100 100 100 100 100 100 100 100 100 99 100 100 99
6 5 4 4 4 4 3 3 4 7 9 9 8 13 20 21 23 28 27 21 28 45 40 22 18 24 38 66 82 87 99 100 100 100 100 100 100 100 100 100 100 100 100 95 100
7 7 6 5 5 7 4 3 5 10 16 21 25 26 22 22 26 25 31 28 30 43 45 18 17 25 43 64 88 95 94 94 95 100 100 100 100 100 100 100 100 100 100 100 100
7 10 8 6 7 10 10 7 8 10 20 25 26 27 27 29 27 28 28 27 28 37 40 36 20 24 46 75 98 100 100 100 99 97 94 100 100 100 100 100 100 100 100 100 100
8 9 10 8 9 14 18 16 18 18 23 24 26 31 30 26 25 27 29 33 31 28 37 36 30 35 38 53 88 99 100 96 100 99 100 98 92 98 100 98 99 100 100 97 93
9 10 11 10 9 15 25 20 21 26 30 35 39 36 37 30 26 26 26 40 54 47 34 39 54 49 58 64 70 96 83 92 100 100 100 96 87 86 85 85 89 87 90 94 94
10 10 12 11 11 14 25 30 28 31 36 46 49 50 54 56 51 37 33 38 43 52 44 40 53 61 69 62 82 81 83 98 100 100 100 97 95 91 92 99 96 95 89 86 84
9 10 12 12 12 14 20 31 40 44 44 44 53 60 65 59 54 44 45 44 44 53 54 45 39 54 66 69 89 97 96 71 77 87 92 89 88 95 94 93 95 88 94 87 81
9 10 11 14 14 14 16 23 39 48 50 54 58 63 71 74 67 71 42 45 43 43 47 49 48 57 58 51 58 69 89 96 100 99 89 84 88 92 84 86 91 87 88 80 77
8 10 10 11 12 14 15 21 31 48 62 65 67 69 69 76 84 75 74 61 55 57 59 62 56 57 61 60 61 63 65 78 98 100 100 83 90 91 98 95 98 100 98 85 80
8 8 11 12 11 13 14 16 23 34 46 60 65 69 71 76 83 76 78 80 71 64 63 68 71 75 81 78 77 80 92 99 93 100 100 100 98 98 97 98 96 89 96 84 62
8 8 10 11 11 12 13 14 18 21 31 51 68 70 70 70 80 80 62 77 93 86 75 76 75 79 71 67 66 70 87 95 92 89 92 94 100 99 100 100 100 92 71 64 69
8 8 8 11 12 12 13 14 16 18 22 32 45 66 81 88 88 85 82 75 79 89 94 92 79 76 78 81 79 70 70 66 67 72 84 85 98 98 100 100 95 86 75 91 69

GFSSW_250_rhum_036.txt.gz
RH
6 5 4 4 5 5 4 4 4 4 4 5 7 8 7 7 8 7 7 10 11 26 96 98 99 94 93 58 56 62 47 58 80 84 91 100 100 100 79 51 52 48 47 46 40
5 4 4 4 4 4 3 3 4 3 4 4 4 6 7 7 7 7 8 8 9 14 38 99 90 100 94 88 67 57 57 82 93 96 76 71 98 100 100 100 77 55 53 50 44
4 4 4 4 4 3 3 2 2 3 3 4 4 4 5 6 6 8 8 7 8 12 19 74 88 89 99 96 100 82 74 84 97 100 94 64 54 96 100 100 100 100 99 84 68
4 3 3 3 2 2 2 2 2 2 3 3 3 3 4 5 6 7 8 7 7 11 13 39 85 90 87 100 100 100 99 97 89 100 96 85 69 57 100 100 100 100 100 100 100
3 3 3 2 2 2 2 2 2 2 2 2 3 3 3 4 6 8 8 7 7 8 13 19 50 98 96 100 100 100 100 100 100 98 75 80 81 67 66 95 100 100 100 100 100
3 3 2 2 2 2 2 1 1 2 2 2 3 3 3 5 6 7 8 7 8 7 10 15 40 81 100 100 100 100 100 100 100 100 99 75 80 83 78 58 64 93 100 100 100
3 3 2 2 2 2 1 1 1 1 1 2 2 3 4 6 7 7 8 7 8 8 8 13 23 73 93 100 100 100 100 100 100 100 100 97 84 100 83 71 60 60 60 63 70
3 3 2 2 2 1 1 1 1 1 1 2 3 3 4 5 6 7 8 8 8 8 8 9 15 40 97 100 100 100 100 100 100 100 100 100 100 87 71 83 86 82 75 72 80
3 3 2 2 2 1 1 1 1 1 1 2 3 3 4 5 6 8 9 9 9 9 9 10 10 17 52 100 100 100 100 100 100 100 100 100 100 100 93 87 89 95 95 93 97
3 3 2 2 2 2 1 1 1 1 1 2 3 4 5 5 7 10 11 10 11 10 10 10 11 14 19 80 100 100 100 100 100 100 100 100 100 100 100 100 100 100 93 100 100
3 3 2 2 2 2 2 2 1 1 2 2 3 3 4 7 8 11 12 12 12 11 11 10 11 11 24 29 96 100 100 100 100 100 100 100 100 100 100 100 100 100 100 100 100
3 3 3 2 2 2 2 2 2 2 2 2 3 4 5 4 6 8 10 14 13 13 12 11 11 14 19 25 35 99 100 100 100 100 100 100 100 100 100 100 100 100 100 100 99
4 4 3 3 3 2 2 2 2 3 2 3 4 6 6 10 13 14 17 23 18 16 14 13 12 14 15 23 27 38 100 100 100 100 100 100 100 100 100 100 100 100 100 96 91
4 4 3 3 3 3 2 2 3 4 4 4 4 7 8 10 14 20 34 25 22 20 17 15 14 14 16 18 26 28 97 100 100 100 100 100 99 100 100 100 100 100 100 93 81
5 5 4 4 4 5 4 3 3 4 6 6 6 7 8 16 26 31 28 23 24 23 20 17 15 16 17 17 22 40 69 100 100 100 100 100 100 96 98 100 100 100 97 100 100
6 6 6 5 4 6 7 4 4 5 10 9 9 7 12 20 24 25 26 23 29 27 20 16 16 18 17 16 18 31 55 91 100 100 100 100 100 93 84 80 81 82 90 82 73
8 7 7 7 6 7 10 9 9 10 15 17 18 19 19 22 21 20 17 19 17 20 16 12 16 18 17 15 13 16 45 53 81 100 100 100 100 100 97 92 84 75 66 68 74
8 9 7 8 8 8 14 15 14 21 15 18 21 23 27 29 27 23 23 23 21 18 15 13 12 16 16 16 12 12 18 45 100 100 100 100 100 100 100 100 100 98 90 96 100
9 10 9 8 8 9 12 20 19 20 23 26 25 23 21 24 24 28 29 27 27 26 24 21 20 23 23 19 15 16 29 52 100 100 100 100 100 100 100 100 100 100 100 100 100
8 10 9 9 10 9 10 22 26 25 24 26 26 29 34 36 37 37 28 27 28 32 35 23 32 30 29 42 30 34 58 66 72 99 100 100 100 100 100 100 100 100 100 100 100
8 10 9 9 10 11 11 16 25 38 39 37 38 40 35 30 32 34 34 29 26 28 34 31 24 30 44 46 68 66 60 69 76 94 100 100 100 100 100 100 100 100 100 100 100
9 9 10 10 9 10 12 13 22 33 45 49 52 51 50 57 57 41 38 35 33 28 30 41 37 40 34 40 60 74 81 94 94 96 90 84 86 91 95 100 98 96 100 99 97
9 9 10 10 9 10 12 14 17 28 38 46 54 61 65 62 63 62 58 52 48 50 46 44 46 54 55 49 40 66 77 98 100 100 100 100 96 94 99 94 93 90 91 91 86
8 7 10 11 10 9 11 13 14 20 34 45 51 59 64 71 76 72 65 61 60 57 53 51 50 50 51 53 56 53 71 95 100 98 97 98 100 99 97 96 97 98 100 100 98
7 7 7 10 11 10 10 12 14 15 21 38 59 63 64 65 73 77 65 67 67 63 62 60 62 49 44 46 52 66 71 70 84 94 98 93 95 96 93 98 100 97 97 97 93
6 6 6 8 10 11 10 11 15 16 16 21 41 58 77 84 84 85 76 63 70 74 68 65 69 74 70 55 50 60 61 57 63 71 72 82 79 100 94 89 91 91 91 98 99
5 6 6 7 9 11 10 10 11 15 17 18 21 31 50 71 88 93 83 66 68 82 87 74 69 64 63 68 70 69 65 60 57 56 62 66 83 84 92 97 97 96 96 91 80

GFSSW_250_rhum_042.txt.gz
RH
3 3 3 3 3 3 3 3 3 3 2 3 4 5 7 8 6 7 9 8 9 10 10 12 52 100 71 72 60 50 64 53 68 100 100 63 33 54 48 41 41 50 28 40 63
3 3 3 3 3 3 3 3 2 2 2 2 3 4 6 7 6 6 9 9 8 9 10 11 22 99 74 76 80 59 52 61 83 75 100 100 79 61 59 46 54 46 58 51 50
3 3 3 2 3 3 2 2 2 2 2 2 2 3 5 6 6 9 9 10 8 9 9 10 14 79 85 43 94 92 70 82 62 68 79 100 100 97 71 55 52 46 44 55 57
3 3 2 2 2 2 2 2 2 1 1 1 2 2 4 6 7 8 7 9 9 9 9 10 12 26 100 55 91 100 100 60 56 72 85 88 99 94 96 77 56 47 40 66 57
3 3 2 2 2 2 2 1 1 1 1 2 1 2 2 5 7 8 8 9 9 9 9 9 11 13 80 100 90 100 100 63 51 55 88 79 80 93 93 100 90 64 57 55 57
3 3 2 2 2 2 2 1 1 1 1 1 1 2 2 4 6 7 7 9 10 10 9 10 10 12 19 97 100 100 100 87 50 52 90 100 94 79 98 95 100 100 80 57 55
3 3 3 2 2 2 2 1 1 1 1 1 1 2 2 3 5 9 7 9 10 11 10 11 10 10 14 46 100 100 100 94 62 67 99 100 99 86 79 100 100 100 100 100 94
3 3 3 2 2 2 2 1 1 1 1 1 1 2 2 3 4 8 8 8 10 11 10 10 10 10 10 14 99 100 100 81 77 88 100 100 100 100 78 82 98 100 100 100 100
3 3 2 2 2 2 2 1 1 1 1 1 1 2 2 3 3 6 9 8 9 11 12 10 10 10 10 12 40 100 100 84 86 98 100 100 100 100 100 91 94 100 100 100 100
3 3 3 2 2 2 2 2 1 1 1 1 2 2 2 3 3 5 10 10 10 12 10 11 10 10 9 10 12 94 100 100 95 82 100 100 100 99 100 100 100 100 98 100 100
3 4 3 3 2 3 2 2 2 2 2 2 2 2 2 2 4 7 11 12 12 19 11 12 10 10 11 10 13 13 100 100 100 93 88 100 100 86 100 100 99 100 100 100 100
4 4 4 3 3 3 3 3 2 2 2 2 3 3 3 3 4 6 12 14 14 12 13 13 12 11 10 9 9 11 45 100 100 90 93 96 100 100 96 100 100 100 100 100 100
4 5 4 4 3 3 4 3 3 2 3 3 4 4 4 4 4 6 10 17 17 17 15 15 14 11 10 10 9 10 13 90 100 100 100 96 95 98 99 100 100 98 100 100 100
5 6 5 4 4 4 4 4 4 2 3 4 4 5 5 7 7 8 11 17 20 19 16 13 12 11 10 11 10 9 11 16 97 100 100 95 100 100 96 98 96 100 95 100 100
5 6 6 5 4 4 4 4 5 4 4 4 5 5 7 9 13 15 17 21 24 21 19 15 13 11 11 12 12 11 10 13 21 96 100 100 100 100 100 100 100 95 88 98 100
6 6 6 6 5 4 5 5 6 5 7 6 7 6 8 10 14 16 21 26 27 25 20 18 16 16 15 14 13 13 11 12 14 20 77 100 100 100 100 100 100 100 98 94 92
6 6 6 6 6 5 6 6 6 8 10 10 11 12 11 9 11 15 19 21 20 20 18 17 17 17 16 15 15 14 14 12 12 15 18 68 100 100 100 100 100 100 100 100 100
6 7 7 7 6 6 7 7 7 8 12 14 12 14 18 18 16 14 15 15 18 20 22 18 16 16 16 16 15 14 14 13 12 13 15 20 64 100 100 100 100 100 100 100 100
5 6 7 7 6 6 6 8 9 9 15 16 16 15 18 25 27 23 20 19 18 18 18 18 19 18 15 15 14 14 15 13 12 13 15 21 22 80 100 100 100 100 100 100 100
5 6 7 6 7 6 6 8 10 11 15 23 21 21 20 20 24 27 35 33 32 33 30 26 22 20 18 17 17 15 15 13 13 12 15 19 26 30 72 100 100 100 100 98 97
5 5 6 6 7 6 6 7 9 11 14 19 30 26 25 26 26 27 32 33 36 37 38 35 36 30 25 23 20 18 17 15 14 14 16 18 20 27 39 57 99 100 100 100 100
5 4 5 6 6 6 6 8 8 10 15 19 29 37 38 34 26 28 29 30 29 26 33 40 30 32 33 28 25 19 18 16 16 16 18 18 21 29 39 46 69 91 100 100 100
4 4 5 6 6 6 6 7 8 9 12 14 19 30 40 50 50 47 40 38 37 35 28 26 32 31 33 40 32 23 19 19 18 20 21 20 24 34 64 78 83 100 100 100 100
5 4 4 5 5 6 6 6 7 9 11 13 14 21 34 43 50 63 67 58 47 40 40 37 29 30 36 46 48 35 31 24 21 22 24 24 26 40 52 76 100 100 100 100 100
5 4 4 5 5 6 6 6 8 8 10 13 15 16 21 37 48 59 69 68 61 53 39 36 30 32 34 37 52 51 46 40 41 29 23 22 26 28 41 74 72 97 100 100 100
4 4 4 5 5 5 6 6 7 8 9 10 13 16 17 23 40 57 57 61 60 57 58 42 35 34 38 29 32 56 55 58 59 55 51 27 22 34 34 46 64 100 100 100 100
4 4 4 5 5 5 6 6 7 8 8 10 12 14 15 18 24 35 46 59 61 57 50 55 40 43 46 44 43 46 52 65 69 81 81 79 46 60 61 60 71 100 100 100 100

GFSSW_250_rhum_045.txt.gz
RH
3 3 3 3 3 3 3 2 3 3 3 2 3 3 4 6 6 5 6 9 9 8 8 9 11 24 62 92 84 100 71 80 72 69 97 82 83 64 66 68 42 36 74 65 60
3 3 3 3 3 2 2 2 2 2 2 2 2 2 4 5 6 6 7 8 10 9 8 10 11 12 44 100 100 100 90 67 75 65 90 78 64 96 88 76 45 39 60 81 66
3 3 3 3 3 2 2 2 2 2 2 2 2 2 2 5 6 7 6 7 10 10 9 9 10 12 23 100 100 100 100 76 60 65 64 86 72 81 100 81 52 49 59 78 61
2 2 3 2 2 2 2 2 2 1 1 2 2 2 2 3 6 5 7 8 9 11 9 9 10 11 13 85 100 100 98 72 68 63 51 73 75 64 100 96 61 54 56 73 72
2 2 2 2 2 2 2 2 1 1 1 1 2 2 2 2 6 5 6 8 9 11 10 10 10 11 13 31 100 100 96 80 67 63 64 69 95 66 92 100 88 65 64 76 64
2 2 2 2 2 2 2 2 1 1 1 1 1 2 2 2 5 7 6 6 10 12 12 10 10 12 13 16 91 100 100 82 54 78 64 67 54 61 66 100 99 84 86 69 75
2 2 2 2 2 2 2 2 2 1 1 1 1 1 2 2 4 8 6 6 10 12 14 12 11 11 11 15 32 100 100 95 49 82 87 76 53 64 60 85 100 99 100 97 74
2 2 2 2 2 2 2 2 2 1 1 1 1 1 2 3 3 4 6 7 8 11 14 14 11 11 11 13 16 98 100 82 82 70 96 67 67 50 65 67 94 100 100 100 100
2 2 3 2 2 2 2 2 2 2 1 1 1 2 2 3 3 4 6 8 9 14 14 14 12 11 11 12 15 19 100 82 100 99 89 77 58 48 63 68 93 100 100 100 100
3 3 3 2 3 2 2 2 2 2 2 2 1 2 2 2 3 4 8 11 12 17 12 14 13 10 11 12 14 18 100 100 100 100 90 77 62 59 53 73 88 100 100 100 100
3 3 3 2 3 3 2 3 3 2 2 2 2 2 2 2 2 3 8 15 10 10 10 12 13 12 14 12 12 14 24 100 100 99 99 73 59 66 56 66 76 97 100 100 100
4 3 4 3 3 4 3 3 3 2 2 2 3 3 2 2 3 4 7 14 11 11 10 11 13 14 13 11 11 11 15 66 79 97 89 78 58 58 58 68 79 81 97 100 100
4 4 4 4 3 4 3 4 4 3 2 3 3 4 3 2 4 4 5 11 17 15 13 9 12 15 12 12 11 11 13 20 45 95 100 90 79 56 58 71 78 74 75 99 100
4 4 4 4 4 4 4 3 4 4 4 3 3 4 5 4 3 4 7 17 21 19 16 12 13 13 14 12 10 11 10 12 16 78 100 100 86 68 57 61 70 66 80 88 100
5 5 4 4 4 4 4 3 5 4 6 4 4 6 6 6 5 5 7 13 27 24 16 15 15 16 13 13 11 10 10 10 13 30 100 100 73 100 84 74 80 93 79 91 100
6 5 5 4 4 4 4 4 4 5 6 6 4 6 8 8 7 8 10 12 14 23 19 19 15 14 13 13 12 12 11 11 12 14 54 100 73 100 95 100 85 88 85 81 81
6 5 5 5 4 5 5 4 5 7 7 9 8 6 9 13 12 11 12 17 24 29 26 19 19 18 16 14 14 14 15 14 13 12 15 35 82 100 96 100 100 96 100 89 81
7 6 5 5 5 5 5 4 5 6 7 9 11 10 9 14 20 19 16 20 24 27 26 26 23 21 18 17 17 16 16 15 14 13 13 16 18 94 100 100 100 100 100 100 93
7 6 6 5 5 5 6 5 5 6 8 8 14 15 12 14 17 21 25 27 28 30 33 33 30 28 24 21 17 15 15 17 16 14 12 12 15 18 32 98 100 100 100 100 100
8 5 5 5 4 5 6 6 5 5 7 9 10 16 16 15 17 19 25 30 33 32 32 36 32 25 20 18 17 17 15 16 15 14 13 12 12 14 18 21 72 100 100 100 100
9 6 6 6 5 5 6 7 6 5 7 8 10 13 20 18 18 18 18 23 29 34 36 37 31 36 33 26 20 17 16 15 14 14 13 13 12 13 14 17 22 44 96 100 100
9 6 6 6 6 5 5 7 6 6 8 10 10 12 18 25 22 22 23 24 28 29 27 30 32 32 32 29 25 20 17 15 14 14 14 13 14 13 14 14 19 25 31 50 92
8 6 6 6 6 5 5 6 7 6 7 9 10 13 15 22 35 39 32 29 30 32 32 34 32 35 31 26 24 24 21 17 16 14 14 13 14 14 14 14 18 25 31 34 35
11 9 7 6 6 6 4 6 7 7 7 9 11 13 17 17 22 37 41 41 39 32 28 29 31 37 47 38 31 24 20 21 21 18 16 14 15 15 15 15 16 19 26 33 40
12 8 6 5 5 6 5 5 7 7 7 7 10 13 16 20 20 28 40 46 47 43 43 34 28 26 31 41 42 38 28 22 22 20 17 16 16 18 17 17 18 20 26 36 44
13 9 6 6 5 5 4 5 6 8 7 7 8 11 14 17 20 22 28 41 58 56 53 46 35 34 29 25 40 44 42 38 24 20 19 16 17 18 19 21 22 28 31 33 38
12 13 7 8 5 4 4 5 6 8 8 8 8 9 11 15 18 21 26 30 45 54 63 59 50 48 39 30 30 37 37 41 37 30 24 22 18 21 22 24 25 31 54 69 62

GFSSW_250_rhum_048.txt.gz
RH
4 3 3 2 3 3 3 2 2 2 3 3 2 3 4 4 4 4 4 6 9 7 9 10 8 11 14 51 94 98 94 100 100 100 100 99 98 100 100 100 72 58 59 65 97
3 2 2 2 2 3 2 2 2 2 2 2 2 2 3 4 4 5 6 5 7 8 9 10 9 9 14 34 69 89 96 100 100 100 100 96 81 97 100 100 86 80 70 58 85
3 2 2 2 2 2 2 2 2 2 2 2 2 2 2 3 4 6 6 6 7 9 10 10 8 8 12 19 59 99 100 100 100 100 100 100 86 77 95 100 100 88 83 74 64
3 2 2 2 2 2 2 2 2 2 1 1 2 2 1 2 5 6 5 6 6 9 10 9 10 8 9 14 36 75 100 100 100 100 100 100 100 89 72 99 100 99 90 86 67
3 2 2 2 2 2 2 2 2 1 1 1 1 2 1 2 4 7 7 7 7 9 9 9 10 10 9 14 17 49 100 100 100 99 100 100 98 80 74 89 100 86 98 73 81
3 2 2 2 2 2 2 2 2 1 1 1 1 1 2 2 2 5 8 7 9 10 10 10 11 12 9 11 15 30 100 100 100 99 100 100 97 80 78 94 99 100 98 99 71
3 2 2 2 2 2 2 2 2 1 1 1 1 1 1 2 2 3 5 8 8 11 12 11 12 11 11 10 14 21 100 100 89 97 100 100 92 82 73 79 90 100 100 100 100
2 3 2 2 2 2 2 2 2 2 1 1 2 1 1 2 2 3 3 8 9 13 13 13 12 12 12 10 12 18 59 79 95 95 100 100 94 73 77 73 74 85 100 97 100
3 3 2 2 2 2 2 2 2 2 1 2 2 1 1 2 3 4 4 7 12 14 14 14 10 13 12 10 11 16 25 96 100 100 100 100 99 84 58 76 65 69 92 100 90
4 2 2 2 2 2 3 2 2 2 2 2 2 2 2 2 3 3 4 6 13 15 13 13 12 10 13 11 12 17 22 100 100 100 100 100 100 82 53 60 65 57 72 97 100
4 3 3 2 3 3 3 3 2 3 2 2 2 2 2 2 2 3 3 6 14 14 13 11 12 12 18 15 12 17 20 100 100 100 92 96 96 87 59 48 56 58 59 97 100
7 3 3 2 3 3 3 3 3 3 3 2 3 3 2 3 3 3 4 9 15 18 13 12 16 14 14 16 13 14 19 50 100 87 62 89 87 88 66 44 41 52 52 59 80
8 4 3 3 3 3 3 4 3 3 3 3 3 3 2 3 4 4 4 8 17 20 18 16 17 16 15 18 15 13 17 22 100 97 64 59 65 75 86 81 46 51 57 49 58
13 6 4 4 3 4 4 4 4 3 4 4 3 4 3 2 3 5 5 8 16 20 20 16 14 14 15 16 16 14 13 18 24 100 99 52 63 63 64 68 60 51 53 56 64
15 9 6 5 4 5 4 4 5 4 5 5 4 3 5 4 4 4 5 5 11 13 10 8 12 13 14 16 17 15 13 14 20 24 99 56 29 50 46 50 59 68 66 58 66
22 11 6 6 5 4 5 4 5 4 4 5 6 5 5 6 5 5 7 7 7 10 12 13 12 13 13 15 15 15 13 14 14 18 21 44 41 50 40 48 61 53 52 63 63
32 14 9 8 6 5 5 4 5 6 5 5 7 7 7 8 8 7 8 8 13 16 18 18 16 17 16 14 15 16 15 13 12 13 16 27 30 82 86 64 52 53 48 49 60
44 22 10 9 7 5 4 5 5 7 5 7 8 9 8 9 11 10 10 9 13 18 19 22 22 20 22 16 16 17 17 17 14 13 15 18 19 37 100 100 88 59 61 58 51
40 35 15 9 7 6 5 4 4 7 7 7 8 11 11 9 12 15 15 15 16 19 22 26 30 34 32 33 28 23 23 20 19 16 15 14 15 18 22 55 92 94 75 77 75
36 39 25 12 9 6 5 4 5 5 7 7 8 10 15 13 12 15 21 24 28 32 36 39 36 34 30 28 25 22 18 16 18 19 18 18 15 15 18 20 27 63 87 78 80
35 33 27 14 10 8 6 5 6 5 6 6 8 10 18 20 17 14 17 27 36 42 45 44 41 40 37 36 32 25 21 18 17 18 19 19 17 16 15 15 18 20 26 47 60
38 29 20 12 10 9 5 6 5 6 5 6 7 8 11 19 22 20 20 24 26 30 35 38 40 40 40 33 29 27 24 18 15 14 16 16 17 15 15 14 14 16 18 22 47
53 35 23 14 11 13 5 6 6 6 6 6 7 8 11 13 20 33 22 22 22 28 32 32 32 35 36 32 33 28 22 18 17 15 14 14 15 14 14 14 14 14 15 17 19
52 36 21 15 8 11 7 4 6 6 7 7 7 8 9 12 16 28 43 40 26 23 23 26 28 33 32 30 26 27 24 20 17 17 15 15 14 13 13 14 14 14 14 14 16
46 39 20 21 7 9 8 4 5 5 8 8 8 8 8 9 15 17 29 48 61 59 41 29 27 28 30 34 36 26 24 22 21 17 17 15 16 15 15 14 15 15 14 14 14
44 46 19 10 6 9 7 4 4 5 6 8 9 9 9 9 13 13 18 27 39 58 68 68 55 39 33 33 38 34 29 24 21 21 18 17 18 17 17 16 16 16 15 16 16
39 43 26 12 6 7 8 4 4 5 6 8 9 10 10 10 12 16 20 23 29 36 49 68 75 69 52 37 32 44 26 26 24 28 23 26 18 19 19 18 17 16 16 16 16

GFSSW_250_rhum_051.txt.gz
RH
5 3 3 3 3 2 2 2 2 2 2 2 2 2 3 3 3 4 5 5 7 8 12 11 10 11 10 11 13 33 56 72 57 95 100 100 98 100 99 100 100 100 78 100 100
7 3 2 3 2 2 2 2 2 2 2 2 2 2 2 3 3 4 6 5 6 6 10 13 10 10 11 11 13 18 55 97 100 100 100 100 100 100 100 100 100 100 96 100 100
7 5 2 2 2 2 2 2 1 1 2 2 2 2 2 2 3 5 5 5 5 6 8 12 10 8 11 11 12 16 23 68 100 100 100 100 96 100 100 100 100 100 100 98 100
7 6 2 2 2 2 2 2 2 1 2 2 2 2 1 2 4 4 5 5 5 6 7 9 9 8 10 12 12 15 33 73 100 96 100 100 100 88 100 100 100 100 100 100 100
6 6 3 2 2 2 2 2 2 1 2 1 1 2 2 2 2 3 4 5 5 5 6 8 10 9 10 14 13 15 22 60 86 100 100 100 100 99 100 100 100 100 100 100 100
7 5 3 2 2 2 2 2 2 2 2 1 1 2 2 2 2 2 3 6 6 7 8 9 12 11 11 15 14 14 18 50 90 100 100 100 100 100 100 100 100 100 100 100 100
9 5 4 2 2 2 2 2 2 2 2 1 2 2 2 2 2 2 3 6 8 7 10 11 13 13 12 14 14 13 16 37 74 96 100 100 100 100 97 100 100 100 100 100 100
9 6 4 3 2 2 2 2 2 2 2 1 2 2 1 1 2 2 3 4 9 7 12 10 11 13 12 13 15 13 14 20 64 87 100 100 100 100 99 95 100 100 100 95 88
12 7 4 2 3 2 2 2 2 2 2 1 2 2 1 1 2 2 3 3 10 9 12 12 12 12 12 13 15 13 12 18 44 96 100 100 100 100 99 95 96 96 98 100 100
14 9 4 3 3 2 2 2 2 2 2 2 2 2 1 2 2 2 3 4 10 13 11 12 11 10 12 10 14 17 14 19 36 87 100 100 100 100 100 73 92 85 88 92 94
15 9 5 5 3 3 2 2 3 2 2 2 2 2 2 2 2 3 4 5 12 16 12 14 10 12 14 16 16 18 15 17 27 100 100 100 100 100 100 98 72 78 84 91 99
19 14 7 6 3 3 3 2 3 3 2 3 2 2 2 2 2 2 4 5 11 18 16 15 11 14 14 16 16 19 16 16 20 53 100 100 100 100 100 100 77 73 68 74 91
28 15 11 8 5 4 3 3 2 3 3 3 3 3 2 2 3 3 4 5 10 17 20 15 14 12 15 17 17 20 18 16 19 22 100 100 100 100 100 100 80 62 64 59 74
34 17 12 11 8 5 4 3 3 4 3 3 4 3 3 2 3 5 5 5 6 16 20 16 12 13 18 18 20 18 19 16 16 20 100 99 99 77 100 100 79 59 52 58 57
42 26 12 15 10 6 4 3 3 4 4 3 4 4 4 4 3 4 5 5 8 13 14 14 15 16 19 17 20 21 20 19 16 18 32 100 98 79 63 97 92 86 61 52 45
37 34 13 21 14 8 5 4 4 4 5 4 4 5 4 4 4 4 5 8 10 9 17 20 17 17 18 18 20 20 20 20 18 16 20 73 100 100 74 85 84 72 59 40 40
36 44 21 20 20 8 6 5 4 4 5 6 4 6 6 5 6 5 6 8 11 14 13 15 16 16 16 18 18 20 20 19 19 16 17 22 97 100 98 76 61 44 46 35 33
39 40 28 18 22 10 7 5 4 4 5 6 6 6 8 8 6 8 8 8 8 12 13 11 12 13 18 18 18 20 20 20 20 18 19 20 21 100 100 82 64 41 40 36 31
35 38 42 20 18 13 7 5 5 5 4 7 7 6 10 9 9 9 10 11 13 15 17 19 21 22 26 20 18 18 19 19 19 20 19 18 20 35 100 96 82 69 41 32 27
33 42 43 22 18 14 8 6 4 5 6 6 8 8 8 12 11 11 13 16 16 19 25 25 32 34 34 36 35 34 34 30 26 24 24 21 18 19 33 98 84 76 63 54 38
34 38 41 40 18 19 10 6 4 4 6 7 7 8 11 12 15 13 14 16 21 25 29 37 45 48 38 45 52 49 38 31 29 27 26 26 24 22 20 23 52 93 70 53 30
30 35 43 47 20 13 9 6 5 5 4 7 8 8 10 16 21 19 17 17 21 22 23 31 37 43 38 42 39 38 33 30 24 23 23 25 27 25 22 21 19 19 24 28 24
26 35 39 48 33 9 10 6 4 4 5 5 8 8 9 14 25 30 23 23 24 25 26 30 34 37 35 31 29 27 24 22 20 18 19 19 23 20 21 20 20 18 16 17 18
25 31 39 44 38 12 9 8 4 4 5 5 8 8 9 10 18 34 44 36 28 28 30 34 34 33 30 32 30 32 24 20 17 19 18 18 17 18 19 19 18 17 16 15 15
27 29 38 38 48 20 8 7 4 4 5 6 7 9 9 10 12 16 26 47 56 49 38 38 34 33 40 37 37 33 27 25 27 21 20 18 17 15 16 17 18 17 17 15 15
29 29 39 39 40 22 7 8 5 4 4 5 8 9 10 10 12 15 22 34 49 60 68 71 59 41 42 40 38 34 30 30 24 25 27 22 22 17 15 14 16 16 16 16 15
28 31 44 41 42 20 7 7 6 4 4 6 8 10 11 11 13 16 23 26 34 50 62 74 75 79 73 72 57 51 32 32 30 28 24 28 19 19 17 16 16 15 14 14 15

GFSSW_250_rhum_054.txt.gz
RH
10 8 7 7 4 2 3 3 3 3 2 2 2 2 2 2 2 3 4 5 5 6 7 9 8 8 12 10 11 13 16 24 38 50 67 56 63 79 99 100 100 100 100 100 100
12 8 6 7 5 2 2 3 2 2 2 2 2 2 2 2 2 3 3 5 5 5 6 10 8 8 11 11 10 11 11 16 46 60 80 76 60 85 100 100 100 100 100 100 100
14 7 5 6 5 2 2 2 2 2 2 2 2 2 2 2 2 3 3 4 5 5 6 8 9 8 10 12 11 9 12 17 18 60 82 61 59 71 98 100 100 100 100 100 100
16 8 6 5 5 2 2 2 2 2 2 2 2 2 2 2 2 3 4 4 4 5 6 6 8 9 11 12 13 11 13 14 16 27 76 78 80 84 70 95 100 100 100 100 100
19 9 7 4 4 2 2 2 2 2 2 1 1 1 2 1 2 2 4 4 4 5 6 7 7 11 13 14 16 14 13 13 16 14 40 85 86 78 88 95 100 100 100 100 100
19 16 8 5 4 3 2 2 2 2 2 2 2 1 2 2 2 2 2 4 5 6 7 6 7 9 14 16 16 16 14 14 16 19 37 72 82 74 91 88 100 100 100 100 100
24 22 13 6 4 4 2 2 2 2 2 2 2 1 2 2 2 2 2 3 6 6 6 7 8 8 12 16 16 19 17 15 16 19 18 39 83 84 93 81 100 100 100 100 100
28 27 16 7 4 4 2 2 2 2 2 2 2 2 2 2 2 2 2 3 6 8 7 8 8 10 11 16 17 18 18 16 17 24 21 28 75 88 92 67 86 100 100 100 100
36 28 27 10 5 4 2 2 2 2 2 2 2 2 2 2 2 2 3 3 4 8 9 9 10 10 11 14 16 16 18 18 19 18 37 25 91 100 96 78 80 100 100 100 100
34 34 26 15 6 4 3 2 2 2 2 2 2 2 2 2 2 2 3 3 4 7 11 10 9 10 10 11 16 22 21 22 21 19 46 40 77 100 100 95 79 96 100 100 100
38 37 28 15 7 4 3 2 2 2 2 2 2 2 2 2 2 2 2 3 4 6 12 12 11 12 13 14 17 18 21 25 24 21 19 86 59 90 100 100 88 77 100 100 100
42 36 28 18 10 5 4 2 3 2 2 2 2 2 2 2 2 2 2 3 4 8 8 11 11 10 12 12 15 18 18 23 22 21 19 88 67 56 99 100 100 91 80 100 95
45 35 28 26 13 5 4 2 2 3 3 3 2 3 2 2 2 2 2 4 5 7 7 11 14 12 13 13 15 18 19 22 25 21 20 20 76 59 82 100 100 100 89 86 99
46 35 28 30 15 6 6 3 2 3 3 3 3 3 2 2 3 3 3 4 6 11 10 12 17 18 16 15 20 20 19 19 21 21 20 19 45 65 60 79 100 100 99 89 89
47 35 32 30 18 8 5 4 2 3 3 3 3 3 3 3 3 4 4 4 6 8 7 13 18 21 16 16 19 21 20 19 20 22 22 19 20 100 61 77 100 100 100 100 74
52 35 34 29 22 10 6 6 4 3 3 3 4 4 4 4 4 4 5 6 7 12 11 13 16 17 15 16 16 18 20 21 20 21 23 21 18 91 100 98 100 100 100 100 87
48 38 37 32 25 12 6 6 4 3 4 3 3 4 5 5 4 4 6 7 8 11 12 11 11 16 22 18 18 18 20 20 20 20 24 24 19 24 100 100 99 100 100 100 88
53 36 39 35 34 13 7 6 5 3 4 4 4 4 5 6 6 6 7 7 9 10 12 10 11 14 20 23 21 21 22 21 21 22 26 25 22 21 37 100 98 91 88 81 81
46 39 31 35 37 18 5 6 6 4 4 4 4 5 6 6 7 7 9 10 12 12 14 18 21 21 23 26 24 23 21 22 22 23 23 24 24 23 22 54 100 99 85 71 72
38 34 30 40 48 34 6 6 5 5 4 4 4 6 7 6 7 8 9 14 18 19 22 25 27 31 33 29 26 23 22 22 23 25 24 23 25 26 23 24 43 100 100 79 54
40 30 32 40 42 41 10 6 5 6 5 4 4 5 7 8 8 10 11 14 19 19 24 32 42 44 53 68 65 49 39 30 28 28 26 26 28 30 29 24 23 32 100 81 52
40 28 32 45 44 48 22 6 6 4 4 5 5 6 8 8 9 10 11 14 18 22 22 24 24 46 54 59 77 86 96 82 67 74 59 42 45 40 35 27 23 23 27 96 99
39 25 36 45 44 50 46 8 6 5 4 4 5 6 8 10 11 13 13 14 16 20 23 26 29 36 39 40 53 47 46 46 48 40 34 30 38 27 25 25 24 21 20 20 22
34 25 30 46 41 49 40 25 8 5 4 4 6 7 10 12 12 13 17 19 18 19 20 25 26 31 31 36 32 32 27 29 29 27 25 23 24 26 22 23 24 23 22 20 19
30 23 32 39 40 49 47 55 13 8 5 4 5 6 8 13 16 16 20 27 28 28 24 26 27 31 31 29 31 33 30 28 28 24 23 22 21 19 19 20 21 22 22 22 22
29 24 28 39 40 45 54 52 35 13 6 4 4 6 8 12 15 20 23 26 34 40 44 39 30 31 35 34 38 38 34 30 28 25 27 23 28 19 18 19 18 20 21 21 20
27 27 28 36 44 47 51 58 48 15 10 5 4 6 8 10 14 18 21 24 30 36 44 51 60 65 68 55 43 57 34 34 42 36 29 34 25 22 21 20 17 16 16 17 18

GFSSW_250_rhum_057.txt.gz
RH
23 12 9 8 5 6 4 5 3 2 2 2 2 2 2 2 2 2 3 4 5 5 6 7 6 6 8 9 11 11 12 12 13 14 34 50 61 75 83 95 98 91 83 95 91
19 13 11 10 5 7 4 5 3 2 2 2 2 2 2 2 2 2 3 4 4 4 6 7 7 8 7 9 10 10 10 13 16 17 22 31 57 60 82 100 100 96 86 89 100
23 14 12 11 5 6 4 4 2 2 2 2 2 2 2 2 2 2 2 4 4 4 5 6 7 8 8 10 10 10 11 17 16 14 15 18 39 54 64 97 100 100 93 87 94
22 19 13 10 6 5 3 4 3 2 2 2 2 2 2 2 2 2 3 3 4 4 5 6 6 7 10 9 11 11 14 16 19 16 13 24 45 62 51 80 94 100 100 100 96
30 17 14 10 8 5 4 4 3 2 2 2 2 2 2 2 2 2 3 3 4 4 4 6 6 7 11 12 12 14 14 16 20 19 15 24 55 59 58 50 57 100 100 100 100
29 16 16 17 8 5 4 4 3 2 2 2 2 2 2 1 2 2 2 3 4 4 4 6 6 8 8 16 13 15 15 16 18 19 16 18 53 64 75 52 46 60 75 100 100
38 21 19 17 13 5 4 3 3 2 2 2 2 2 1 2 2 2 2 2 4 4 4 6 8 9 8 14 16 15 16 15 19 18 19 15 18 53 80 61 57 64 66 98 100
44 19 19 14 11 9 5 4 3 2 2 2 2 2 1 2 2 2 2 3 3 5 6 6 8 10 10 11 18 18 17 14 16 17 19 18 18 25 53 63 70 64 89 90 94
45 22 23 27 17 12 6 4 3 2 2 2 2 2 1 2 2 2 2 3 4 4 7 8 9 10 10 10 15 19 19 18 16 17 21 21 20 19 21 40 90 78 87 100 100
50 27 23 24 22 14 7 4 3 2 2 2 2 2 2 2 2 2 2 3 4 3 10 8 7 8 9 10 12 19 21 20 18 18 19 22 22 19 20 17 47 82 83 87 100
52 33 32 33 24 14 8 3 3 2 2 2 2 2 2 2 2 2 2 2 4 4 10 11 7 8 9 12 13 21 28 29 22 21 21 22 22 18 19 17 17 35 95 98 100
50 34 37 39 29 17 8 4 3 2 2 2 2 2 2 2 2 2 2 2 5 5 7 11 9 10 12 12 15 20 26 27 21 21 21 21 23 20 18 17 16 15 56 100 100
60 36 38 40 27 19 9 4 3 2 2 2 2 2 2 2 2 2 2 2 4 5 6 13 11 11 12 12 12 16 22 28 30 23 21 22 21 20 19 18 19 17 19 88 100
59 39 44 42 31 20 11 5 3 2 2 3 2 2 3 3 2 2 2 3 5 6 5 11 14 16 15 13 14 16 19 21 24 24 22 23 23 22 22 21 20 25 22 29 99
69 43 47 40 33 24 12 6 3 2 2 3 3 3 3 3 2 2 3 3 4 6 5 6 10 18 16 14 15 16 17 17 21 21 23 23 24 25 25 25 25 29 56 32 36
75 51 52 40 33 22 12 6 3 2 2 3 3 3 3 4 3 3 4 5 5 5 4 5 8 18 21 20 16 16 17 16 19 21 22 25 25 25 25 26 30 30 45 68 43
73 50 51 38 32 25 18 7 4 3 3 3 4 4 4 5 4 3 4 5 5 6 6 6 13 21 24 24 19 18 18 17 17 19 25 27 26 29 26 28 27 49 42 54 95
78 57 56 37 36 28 27 12 5 3 3 3 4 4 4 5 6 4 4 5 6 8 10 10 12 14 18 23 24 20 17 18 19 24 30 27 25 26 26 26 30 35 42 28 38
79 52 50 36 33 31 26 21 6 4 2 3 4 4 5 5 8 6 5 6 7 8 10 14 18 20 25 25 25 26 22 20 22 24 26 24 23 26 23 25 28 30 40 85 49
83 57 54 34 34 38 35 21 10 4 4 3 3 5 5 6 8 10 7 8 10 11 14 20 23 26 30 37 36 31 28 22 22 25 25 24 23 24 23 23 26 29 29 46 95
92 60 55 32 31 42 39 32 15 7 3 3 4 4 5 7 7 12 12 10 11 14 19 22 32 38 38 44 40 38 34 30 28 27 28 28 26 27 24 23 25 30 30 30 34
84 59 56 30 32 44 45 40 20 8 4 3 4 4 6 6 8 8 15 12 13 14 18 23 25 41 45 61 65 68 50 48 42 39 36 37 39 38 30 24 24 28 31 30 28
85 60 52 28 35 45 42 58 20 15 5 4 4 5 6 7 9 8 13 17 14 18 21 25 30 36 49 62 66 65 82 85 65 52 51 48 61 42 40 33 28 27 28 30 28
84 60 57 28 40 38 46 67 59 15 8 5 4 5 6 8 9 10 9 16 23 19 19 23 24 28 31 36 52 67 72 61 55 52 56 51 41 38 25 24 22 23 26 25 26
73 54 52 28 40 42 48 60 57 33 9 9 4 5 6 6 9 12 12 12 18 26 24 23 24 23 28 32 34 41 40 40 42 44 37 34 36 26 28 24 22 23 21 21 21
70 56 45 27 38 46 46 60 62 46 24 14 5 5 6 8 9 10 12 14 16 26 30 30 25 22 25 28 31 34 32 30 31 32 33 30 36 25 24 23 23 20 21 21 20
83 56 41 28 38 45 45 52 72 59 47 22 7 5 6 7 10 11 12 15 17 18 27 32 43 47 36 29 30 32 26 28 30 31 35 38 34 26 28 29 26 23 22 21 20

GFSSW_250_rhum_060.txt.gz
RH
28 26 28 16 10 7 5 5 6 4 4 3 2 2 2 2 2 2 3 3 4 3 4 4 5 8 9 8 8 10 12 12 13 18 57 61 100 100 99 76 84 83 89 100 100
34 33 25 18 14 7 4 5 5 4 3 2 2 2 2 2 2 2 2 3 3 3 4 4 5 7 10 10 8 9 11 14 17 15 22 61 97 100 100 97 100 80 94 100 100
43 35 26 24 16 7 5 5 5 3 3 2 2 2 2 2 2 2 2 3 3 3 3 4 4 6 10 10 9 9 12 18 14 16 15 21 56 94 100 100 100 100 96 100 100
44 34 29 26 18 6 4 5 5 3 3 2 2 2 2 2 2 2 2 2 2 3 4 4 4 5 8 10 11 10 14 14 15 14 17 16 19 50 62 98 100 94 99 100 100
45 33 33 33 21 7 4 4 5 3 3 2 2 2 1 2 2 2 2 2 2 3 3 4 4 5 8 11 11 12 12 15 13 14 17 18 16 17 48 70 92 99 94 100 100
45 36 34 22 23 10 5 4 4 3 2 2 2 2 1 2 1 1 1 2 2 3 3 5 5 6 9 11 11 14 11 13 14 15 17 18 19 16 17 34 60 72 85 84 100
36 41 34 27 22 14 5 4 4 3 2 2 2 1 2 2 1 1 2 2 2 4 3 4 5 6 9 12 13 14 12 12 15 17 18 17 18 19 19 16 35 49 68 77 84
43 43 32 22 20 16 7 4 6 4 2 2 2 1 2 2 1 1 2 2 2 3 4 4 6 7 8 11 15 16 13 11 15 18 18 18 19 22 19 18 18 30 47 64 83
47 50 37 27 25 15 8 4 6 4 3 2 2 1 2 2 1 2 2 2 3 3 5 4 5 7 9 9 13 16 16 13 12 19 20 16 18 17 19 19 23 30 42 47 73
48 49 42 36 26 17 8 4 5 5 3 2 2 1 2 2 1 1 2 2 3 3 3 7 5 6 8 9 10 16 18 16 15 19 21 19 20 19 19 21 24 27 40 66 83
56 50 45 36 32 16 15 6 5 5 3 2 2 2 2 2 2 1 2 2 2 3 4 9 7 8 10 12 11 13 21 23 21 21 22 20 23 21 20 22 23 26 54 91 100
55 56 48 43 37 24 18 9 4 6 4 2 2 2 2 2 2 2 2 2 2 4 6 9 11 9 10 10 13 14 18 23 21 21 21 23 23 21 24 23 22 20 20 87 100
62 65 55 42 42 32 22 11 6 5 4 2 2 2 2 2 2 2 2 2 2 5 7 10 11 10 9 10 12 13 16 23 24 22 21 24 24 24 28 26 23 22 23 45 100
68 73 60 48 41 37 33 17 11 6 4 2 2 2 2 3 2 2 2 2 3 6 7 9 9 11 10 12 14 15 15 19 23 23 22 23 26 25 28 28 26 20 20 22 42
73 70 67 46 43 50 39 18 12 7 4 3 2 3 2 3 3 2 2 2 3 8 7 6 6 13 14 15 16 16 17 19 20 21 23 22 24 25 27 29 28 26 21 18 24
78 73 64 47 51 50 39 20 13 7 4 3 3 3 3 3 4 3 3 3 4 6 6 6 8 12 18 17 16 17 19 19 20 21 22 22 24 27 27 27 25 24 24 20 19
77 76 65 63 58 55 36 28 15 8 4 3 3 3 3 4 4 4 3 3 4 6 7 7 8 16 20 20 18 18 19 20 20 22 27 30 29 31 28 28 28 26 24 22 21
80 84 69 75 62 53 37 28 16 7 4 4 4 3 3 4 4 5 4 4 5 6 7 8 10 15 21 24 22 21 19 20 20 24 30 31 30 35 27 29 29 27 26 25 24
86 77 65 72 64 51 36 25 20 8 5 4 4 4 4 4 5 7 5 5 6 6 9 12 17 24 25 25 25 25 23 22 22 22 25 30 30 39 28 24 28 29 28 27 25
88 78 67 71 64 43 37 28 22 9 6 4 4 4 4 5 6 5 8 7 7 9 13 15 16 21 27 29 29 28 26 24 22 24 24 23 25 31 26 25 27 28 28 29 26
88 78 63 73 59 42 40 34 25 12 8 5 4 4 5 5 7 5 9 10 9 11 15 21 24 21 20 26 30 34 34 34 31 26 24 24 23 25 25 22 25 28 28 28 29
89 76 64 78 57 38 45 38 23 20 9 6 5 4 5 6 8 7 6 11 12 12 16 22 34 41 41 42 41 44 45 43 39 34 31 28 26 26 23 20 18 25 28 28 28
91 68 75 81 56 39 41 40 33 32 12 10 6 5 5 6 8 10 8 10 13 12 14 17 24 32 41 55 69 81 66 60 48 44 44 37 37 35 29 25 22 23 25 25 24
83 72 76 70 53 37 39 45 42 39 15 13 8 8 6 5 8 11 12 10 12 16 15 16 18 31 37 43 56 54 48 57 54 60 59 57 44 39 28 29 24 23 23 23 23
78 76 82 65 54 36 37 46 55 50 29 19 11 8 8 7 6 9 12 13 13 18 18 18 20 27 31 38 51 48 43 49 60 53 64 54 55 29 34 31 29 22 19 21 21
80 76 87 69 50 38 40 57 59 69 48 27 22 12 10 8 7 7 10 13 14 14 18 22 22 24 26 29 36 42 44 45 40 31 29 28 38 26 26 28 27 25 24 22 19
78 85 79 64 47 39 37 51 59 70 53 42 36 30 15 10 7 7 9 11 13 15 18 23 30 29 29 27 28 40 38 40 42 39 43 48 43 31 34 32 30 27 23 21 20

GFSSW_250_rhum_063.txt.gz
RH
54 39 28 21 16 20 16 7 5 5 4 5 4 3 2 2 2 2 2 2 3 3 3 3 3 4 5 8 10 11 9 10 13 16 37 62 99 100 100 90 91 83 94 100 99
53 41 31 25 17 20 19 7 4 4 5 4 4 2 2 2 2 2 2 2 2 2 2 3 3 4 5 7 9 10 10 10 15 15 31 62 70 100 100 100 84 77 84 98 100
52 46 37 23 15 20 19 7 4 4 4 4 3 3 2 2 2 2 2 3 2 2 2 3 3 4 5 7 9 10 10 16 13 13 14 30 41 62 100 100 93 81 89 94 99
53 44 41 25 23 20 19 8 5 4 3 4 3 2 2 2 2 2 2 2 2 2 2 3 3 4 5 6 9 12 14 13 13 14 15 17 20 40 66 100 100 100 98 93 99
56 47 40 23 18 17 29 9 5 4 4 4 3 2 2 2 1 1 2 2 2 2 3 3 3 4 5 8 9 16 15 12 10 13 15 18 17 29 57 78 100 100 100 95 99
50 43 44 33 22 20 30 9 6 3 3 4 4 2 2 2 2 2 2 2 2 2 2 3 3 4 6 7 9 16 18 14 11 16 16 16 17 17 39 74 86 100 100 100 100
63 45 43 41 28 18 30 15 5 4 3 4 3 2 2 2 2 2 2 2 2 2 3 3 3 4 6 7 11 14 24 16 13 17 16 18 19 16 21 38 75 98 100 100 100
54 50 52 48 34 25 34 21 6 5 3 4 4 2 2 2 2 2 1 2 2 2 3 3 4 4 5 8 11 14 24 23 16 18 16 20 20 20 19 18 51 80 92 90 100
60 56 60 48 37 36 32 22 7 5 4 4 3 2 2 2 2 2 2 2 2 2 3 4 4 4 6 8 10 15 24 17 15 16 17 20 24 18 18 18 22 56 82 79 95
63 53 63 47 39 42 40 25 9 5 5 4 3 2 2 2 2 2 2 1 2 2 3 4 6 4 7 9 9 13 17 17 16 14 14 20 23 18 18 18 19 22 40 72 80
69 64 63 52 34 56 44 26 10 6 5 4 3 2 2 2 2 2 2 1 2 3 3 5 6 4 6 10 11 16 25 23 21 15 16 18 21 23 21 19 21 22 22 28 51
58 74 57 53 42 63 41 43 10 8 7 4 4 2 2 2 2 2 2 1 2 2 3 4 6 6 7 9 11 12 14 21 20 20 20 22 24 24 20 20 20 22 21 24 23
50 65 63 60 57 64 47 46 13 10 7 4 4 2 2 2 2 2 2 2 2 3 4 4 5 8 7 9 11 14 15 22 24 26 20 19 21 25 22 22 21 23 26 26 23
65 64 69 64 73 67 49 54 16 12 9 5 3 2 2 2 2 2 2 2 2 3 5 6 7 10 10 11 12 15 15 19 29 28 24 19 22 21 21 26 25 21 23 25 28
74 73 70 61 82 71 53 45 31 13 9 7 4 2 2 3 2 2 2 2 2 5 8 8 9 16 14 15 16 14 14 15 22 31 22 21 22 21 25 28 26 23 23 26 29
72 81 72 70 88 75 58 49 34 12 10 6 4 3 3 3 3 2 2 2 3 6 7 8 9 17 16 15 16 17 15 15 17 18 22 24 24 23 24 26 27 24 23 23 27
78 90 75 85 94 69 67 54 38 14 11 6 4 3 3 3 4 3 3 3 4 5 6 7 10 16 17 16 14 16 15 15 15 15 19 20 24 26 25 25 27 26 25 23 26
89 94 84 87 94 68 71 51 39 14 12 6 5 3 4 4 5 4 3 3 5 7 8 8 8 12 21 23 19 18 18 19 18 18 20 28 28 28 27 27 27 30 27 26 25
95 94 89 88 81 76 73 54 40 16 12 7 5 4 4 4 5 6 4 4 5 6 8 10 13 18 27 31 29 23 19 21 21 23 24 30 31 31 30 26 29 30 31 29 26
100 96 93 84 69 84 74 51 35 18 13 8 6 5 4 4 5 7 7 5 6 6 11 14 17 20 26 29 30 28 24 24 23 26 29 34 31 32 34 26 25 30 31 31 30
97 95 95 78 71 90 68 43 31 19 12 9 8 4 5 5 6 6 9 7 7 7 8 13 19 22 25 28 29 29 29 27 27 28 25 26 24 28 29 24 20 26 30 30 30
98 94 92 74 76 93 67 41 32 21 11 10 7 5 6 5 5 7 8 10 10 10 11 12 13 19 21 25 29 33 32 29 25 27 26 27 26 28 32 27 22 24 28 30 31
92 89 91 70 82 90 57 41 36 25 15 13 9 8 7 7 6 7 8 11 12 12 13 16 22 24 25 29 34 38 38 38 36 35 31 27 27 30 25 25 22 22 25 31 31
88 97 84 70 90 83 56 42 35 35 26 13 14 10 9 10 8 7 10 11 12 14 16 16 17 20 25 26 36 38 43 46 46 47 44 40 34 29 24 24 24 23 24 26 31
94 97 78 70 91 83 55 42 40 48 42 28 17 11 12 12 12 9 9 11 14 16 16 18 23 22 31 39 40 46 49 54 59 55 58 51 47 30 33 27 27 24 22 19 18
96 92 76 72 96 80 56 41 45 50 59 43 28 24 14 14 15 14 10 9 12 15 19 18 19 19 22 27 39 45 43 45 46 45 54 46 47 37 36 40 34 26 24 22 20
97 93 74 71 94 83 60 39 42 46 58 68 36 29 22 15 15 16 15 10 10 13 15 17 23 23 23 27 34 41 41 43 47 43 46 50 43 31 34 31 34 31 31 29 25

GFSSW_250_rhum_066.txt.gz
RH
73 72 57 46 39 26 18 15 12 8 6 4 4 4 4 3 2 2 2 2 2 2 2 2 3 3 4 5 7 9 8 11 13 14 14 13 35 100 100 100 100 84 82 100 100
87 73 63 49 41 32 19 17 17 9 6 4 4 4 3 3 2 2 2 2 2 2 2 2 2 3 3 4 6 8 7 10 16 16 14 17 37 61 100 100 100 92 98 100 100
88 81 64 55 46 36 23 18 17 10 7 4 4 4 2 2 2 2 2 2 2 2 2 2 3 2 4 4 6 7 8 14 16 14 14 16 28 49 70 100 100 100 100 100 100
84 78 71 59 52 43 26 22 19 10 7 4 5 3 2 3 2 2 2 2 2 2 2 2 3 3 4 4 5 7 11 12 17 13 13 16 15 42 53 83 100 100 100 100 100
84 79 71 61 51 47 36 26 22 10 7 4 4 3 3 3 2 2 2 2 2 2 2 2 2 3 3 5 6 7 10 16 14 14 16 15 17 21 31 48 81 100 100 100 100
91 82 72 64 55 46 35 27 22 12 7 4 4 3 2 2 2 2 2 2 2 2 2 2 3 3 3 5 7 9 13 16 16 18 26 16 19 19 22 42 64 100 100 100 100
97 78 71 67 52 43 35 34 28 13 6 5 4 3 3 2 2 2 2 2 2 2 2 2 3 3 3 4 9 10 13 13 15 20 16 16 20 18 18 25 60 76 100 100 100
100 74 71 68 61 46 36 38 26 13 7 5 4 4 3 2 2 2 2 2 2 2 2 2 3 3 4 5 9 14 13 13 17 24 24 19 18 24 18 19 37 75 78 96 100
100 76 60 70 60 50 38 39 36 13 6 6 4 4 3 2 2 2 2 2 2 2 2 2 3 3 4 5 7 11 12 14 19 24 20 16 21 22 17 20 32 52 80 79 96
100 80 54 56 52 45 46 43 35 13 6 7 5 4 3 2 2 2 2 1 1 2 2 2 4 4 4 5 7 10 10 13 20 33 30 24 23 19 19 21 21 28 46 63 70
100 73 58 58 50 48 54 39 40 13 7 6 6 4 3 2 2 2 2 1 1 2 2 3 4 4 4 7 11 16 18 21 22 31 38 22 21 24 23 21 22 22 22 25 38
100 64 59 60 59 53 54 43 43 10 8 8 6 4 3 2 2 2 2 2 1 2 2 3 5 6 5 7 10 14 13 19 28 42 42 22 24 23 22 24 22 22 28 26 23
89 66 70 74 79 69 48 48 50 13 10 8 6 5 3 2 2 2 2 2 2 2 2 3 5 8 8 8 9 11 11 15 25 42 26 14 17 20 21 22 22 20 24 27 26
71 70 79 84 90 69 54 66 51 14 10 9 6 6 3 2 2 2 2 2 2 2 2 4 6 7 8 7 11 12 15 13 20 24 24 19 24 26 21 21 19 19 22 26 24
76 74 81 93 90 72 62 68 41 15 10 10 6 4 2 2 2 2 2 2 2 2 3 4 4 5 9 9 10 11 14 14 19 24 20 13 20 27 27 23 22 23 22 26 26
76 80 86 100 86 71 78 72 54 16 11 10 6 4 3 2 3 3 2 2 2 2 3 5 5 6 9 11 10 12 12 15 19 18 18 16 25 29 30 26 25 28 27 26 25
91 94 96 100 85 72 83 61 54 15 12 10 6 5 3 2 3 3 3 2 2 3 4 6 8 9 14 16 14 14 15 16 16 16 23 26 28 26 31 31 26 28 30 29 28
91 94 100 100 82 77 83 63 54 17 14 11 6 4 3 3 3 4 4 3 4 4 5 6 9 13 21 19 17 17 18 19 18 19 29 37 37 33 32 36 30 27 26 27 28
88 100 100 98 75 85 77 67 59 24 18 13 7 5 4 3 3 4 5 4 4 6 8 8 10 14 21 22 20 18 16 19 19 20 20 22 23 32 36 31 29 25 25 25 26
98 100 100 96 74 88 70 66 55 43 17 17 8 6 4 4 4 5 6 6 5 6 9 10 11 12 15 20 21 18 19 19 21 22 21 23 28 32 35 32 28 28 28 26 24
100 100 100 95 77 89 71 61 57 44 17 16 11 7 5 4 4 6 7 8 6 5 7 9 12 21 22 24 26 24 21 20 22 22 20 21 21 24 31 29 27 28 27 30 29
100 100 100 96 85 83 66 68 56 42 24 16 13 8 7 8 5 7 7 9 10 8 7 9 11 14 15 22 26 29 27 22 19 21 22 22 24 26 26 25 22 19 20 29 32
100 100 100 97 86 75 64 67 56 41 31 17 13 9 7 9 11 6 8 8 10 12 11 9 9 12 18 16 22 28 28 24 21 20 22 21 22 26 22 23 22 20 16 20 29
100 100 100 100 87 81 63 68 59 46 34 22 14 12 9 8 11 11 8 9 11 13 14 14 13 13 16 18 22 21 26 32 32 32 26 24 21 24 23 22 23 23 26 27 23
100 100 100 96 84 81 61 70 56 49 38 30 16 14 14 9 11 14 14 10 9 12 14 15 16 16 13 14 16 26 30 29 37 36 38 36 32 28 29 29 30 31 26 24 22
100 100 100 95 86 81 67 64 59 50 45 33 29 17 17 14 10 13 18 19 16 13 14 18 21 19 19 18 19 20 22 30 33 32 38 40 43 34 39 42 39 30 26 24 23
100 100 100 95 86 85 70 61 65 51 49 45 46 30 34 27 16 14 13 19 24 22 15 15 21 28 30 29 29 29 26 27 29 31 36 39 38 42 42 45 38 36 34 32 29

GFSSW_250_rhum_069.txt.gz
RH
48 37 37 40 49 65 72 51 40 28 19 12 8 9 5 5 5 4 3 2 2 2 2 2 2 2 2 3 3 4 4 7 11 15 20 15 13 19 89 100 100 100 98 100 100
52 51 40 40 52 76 78 51 41 24 18 10 8 10 6 6 4 2 3 2 2 2 2 1 2 2 2 3 3 3 4 7 16 17 21 16 21 13 29 100 100 100 100 100 99
54 45 46 43 50 78 71 61 40 26 17 9 9 8 5 5 3 2 2 2 1 2 2 2 2 2 2 3 3 4 4 8 13 16 18 17 17 18 17 82 100 100 100 100 91
59 59 48 53 60 82 73 73 54 26 15 9 9 7 5 4 3 2 2 2 2 2 2 2 2 2 2 3 4 4 6 7 11 15 17 18 17 24 30 26 100 100 100 100 100
63 67 61 62 70 85 86 76 47 33 12 11 8 7 5 4 2 2 2 2 2 2 2 2 2 2 3 3 4 6 6 8 9 13 16 20 18 16 69 41 99 100 100 100 100
69 74 72 75 75 94 85 75 51 37 14 11 9 6 5 3 2 2 2 2 2 2 2 2 2 2 3 3 4 8 7 10 9 12 16 21 18 18 21 65 40 100 100 100 100
75 82 84 72 93 97 86 76 45 36 15 9 10 5 4 2 2 2 2 2 2 2 2 2 2 2 3 3 4 7 8 11 13 17 19 20 20 18 18 38 25 70 100 100 100
95 84 100 80 100 100 98 87 57 37 13 9 10 5 4 2 2 2 2 2 2 2 2 2 2 3 3 3 5 6 9 11 12 14 24 20 22 21 22 19 38 24 99 100 100
100 99 100 96 100 100 95 75 63 36 12 13 8 6 3 2 2 2 1 2 2 2 2 2 2 3 3 4 4 5 7 10 12 14 18 19 26 25 23 22 28 29 35 99 100
100 100 100 100 100 100 84 78 54 37 13 14 7 6 2 2 2 2 2 2 2 2 2 2 2 3 4 4 4 5 6 10 11 13 16 20 33 23 24 25 22 36 39 53 88
98 100 100 100 100 100 84 71 69 34 14 13 7 4 2 2 2 2 2 2 2 1 2 2 3 3 4 5 5 6 10 11 15 20 26 29 40 30 24 24 24 22 28 38 56
100 100 100 100 100 100 81 69 65 37 16 11 7 4 2 3 2 2 2 2 1 1 2 2 3 4 5 5 6 7 7 12 19 21 22 32 25 43 25 24 24 22 22 26 24
100 100 100 100 96 92 93 75 62 40 21 11 8 4 2 3 2 2 2 2 1 1 2 2 3 4 6 6 6 7 11 16 13 23 31 39 48 36 28 24 27 28 25 24 29
95 100 100 100 100 97 97 77 64 44 20 10 9 5 3 3 2 2 2 2 1 2 2 2 3 5 6 6 8 9 13 17 14 23 36 48 45 21 15 23 23 26 28 25 24
100 96 100 100 100 100 97 77 64 42 18 11 9 6 4 3 2 2 2 2 1 2 2 3 4 7 10 10 10 10 12 16 22 27 34 41 29 24 14 18 26 27 28 29 26
100 100 100 100 100 100 86 80 69 48 15 13 7 7 4 4 2 2 3 2 2 2 3 4 5 5 9 9 9 12 16 23 28 26 28 35 25 23 17 17 20 28 28 28 30
100 100 100 100 100 92 93 78 74 45 15 13 7 7 4 4 2 3 3 2 2 3 4 4 5 6 9 11 11 13 17 29 18 20 22 25 27 27 18 19 22 26 31 30 28
100 100 100 100 100 96 94 84 63 46 19 12 8 6 4 4 3 3 4 3 3 4 5 5 6 7 8 13 13 13 13 16 18 21 20 23 19 17 17 18 17 21 28 33 31
100 100 100 100 100 100 90 83 61 52 21 12 8 7 5 4 3 3 4 4 3 5 6 7 8 10 12 17 19 16 14 16 18 16 20 21 20 16 19 20 23 27 29 35 35
100 100 100 100 100 100 83 76 60 56 23 14 9 6 5 5 3 3 4 5 5 4 6 7 9 10 14 20 21 20 18 19 21 20 22 21 20 18 18 22 24 27 27 31 36
100 100 100 100 100 98 84 68 61 64 23 16 11 7 6 5 5 4 5 6 7 6 6 7 9 9 10 12 19 21 20 18 18 23 22 24 25 28 28 24 28 30 26 22 32
100 100 100 100 100 94 82 69 66 60 24 17 14 8 6 6 6 8 6 6 8 9 9 7 7 10 11 13 16 20 21 22 20 20 23 25 26 24 24 20 17 20 30 32 36
100 100 100 100 100 92 80 68 71 57 33 19 17 12 8 8 8 9 11 8 8 9 12 13 12 10 8 10 14 19 21 22 20 20 21 22 26 25 23 23 25 21 27 35 38
100 100 100 100 100 94 81 64 78 52 43 23 16 16 10 9 9 9 12 14 12 9 10 12 13 15 14 17 17 20 22 24 24 22 21 21 22 23 22 22 24 26 27 30 31
100 100 100 100 97 96 77 74 75 52 45 34 17 14 14 15 11 9 12 16 19 21 16 12 13 14 17 16 17 17 21 27 32 25 28 24 25 26 28 28 25 26 28 26 26
100 100 100 100 100 98 74 80 73 52 45 40 27 18 12 16 17 13 12 14 18 24 29 23 17 14 18 19 21 20 20 23 30 37 38 32 32 28 28 30 32 28 26 28 28
100 100 100 98 100 100 82 81 73 52 46 42 38 33 34 26 21 20 18 16 15 20 25 28 29 21 18 18 21 24 26 24 21 28 36 36 34 38 40 36 29 27 26 24 24

GFSSW_250_rhum_072.txt.gz
RH
59 85 78 78 76 68 62 61 64 45 48 42 29 13 8 6 7 4 4 5 4 4 3 2 2 1 1 2 2 3 3 3 4 8 18 25 31 78 71 76 100 100 93 99 100
62 54 64 70 68 71 68 72 70 57 44 42 27 11 8 6 7 3 5 5 4 3 3 2 1 2 2 2 2 2 3 4 5 9 16 22 24 91 89 94 100 100 92 99 100
50 64 86 88 71 69 80 80 75 68 43 45 24 8 6 6 8 4 4 4 3 2 2 1 1 2 2 2 2 2 3 5 5 10 14 18 23 34 86 100 100 100 100 100 100
51 84 62 97 74 81 94 96 74 66 52 42 27 8 6 7 6 5 3 3 3 2 2 2 1 2 2 2 3 3 5 5 6 8 14 17 23 23 21 81 100 100 100 100 93
63 83 79 90 77 90 84 100 83 55 51 39 22 8 6 8 6 5 3 3 2 2 1 2 2 2 2 2 2 4 5 5 7 7 11 17 23 25 22 24 99 100 100 100 85
58 79 83 98 95 100 100 100 82 53 59 41 21 7 8 7 6 4 3 2 2 1 1 2 2 2 2 2 3 5 6 6 7 7 11 16 20 22 29 23 60 100 100 100 96
70 84 87 89 86 100 100 96 65 64 64 42 19 7 8 6 5 4 3 2 2 2 2 2 2 2 2 2 3 4 5 5 6 9 9 16 19 23 32 41 41 100 100 100 100
72 88 95 98 95 100 100 94 72 74 58 37 13 8 9 7 5 3 3 2 1 2 2 2 2 2 2 2 3 4 5 5 7 8 11 18 22 23 27 81 54 72 100 100 100
86 95 98 90 80 93 100 89 69 66 54 32 10 11 8 6 4 3 2 1 1 1 2 2 2 2 3 3 3 4 5 6 7 10 14 16 21 18 28 40 100 32 64 100 100
58 98 94 97 98 94 90 76 72 66 54 23 9 16 7 6 3 2 2 2 1 2 2 2 2 2 2 3 3 4 6 6 8 12 10 16 21 18 28 30 84 91 28 59 100
56 62 87 100 100 100 85 82 73 85 46 17 14 9 6 4 3 2 2 1 2 2 1 2 2 2 3 3 4 5 6 7 9 13 12 18 24 32 29 32 30 100 98 40 96
37 30 58 100 100 100 86 84 82 74 38 14 20 11 6 3 2 2 2 2 2 1 1 2 2 3 4 4 4 5 6 7 9 12 16 17 17 22 14 29 31 31 100 100 73
20 24 75 94 100 100 99 92 93 78 32 22 16 8 6 3 3 2 2 2 1 1 1 2 2 3 4 5 6 7 6 8 10 13 14 20 29 20 24 22 29 32 38 100 100
14 29 72 78 100 100 100 100 92 64 34 27 17 8 6 3 3 2 2 2 1 1 1 2 2 2 4 5 6 9 10 11 18 21 23 26 21 21 13 18 26 33 29 48 100
16 59 81 100 100 100 100 100 92 61 33 27 18 7 4 3 3 2 2 2 2 1 2 2 3 4 6 7 8 10 13 16 15 20 25 32 31 22 20 16 26 32 36 30 30
22 68 96 100 99 100 100 99 89 58 32 25 16 7 4 3 3 2 2 2 2 2 2 2 3 4 6 7 9 12 14 10 9 16 20 22 28 38 31 31 21 30 37 34 30
33 98 100 100 100 100 100 100 89 48 30 23 14 6 4 3 3 2 3 3 2 2 3 3 4 5 8 10 10 10 14 12 12 16 18 15 25 43 34 23 26 23 28 36 35
50 100 100 100 98 100 100 99 83 46 31 20 13 6 5 4 4 3 3 3 3 3 4 4 4 7 13 14 12 13 14 18 16 10 17 21 27 31 37 21 16 21 24 30 37
98 100 100 99 100 100 100 98 76 48 30 20 12 6 5 4 4 3 3 4 4 4 5 5 6 10 13 13 12 13 14 17 20 12 13 19 28 30 27 23 24 18 21 23 28
100 100 100 98 100 100 100 92 78 53 25 21 12 8 5 4 4 4 4 4 4 5 5 6 9 11 16 16 16 14 16 18 19 16 11 16 17 24 25 33 34 22 17 17 23
100 100 98 100 100 100 99 89 82 53 26 21 12 9 6 5 5 6 5 5 5 6 6 6 7 9 15 29 23 19 18 20 21 22 20 16 24 26 35 32 22 19 17 16 17
100 100 100 100 100 100 94 90 80 49 30 18 13 10 9 6 5 6 8 6 7 8 8 8 8 8 9 10 16 20 20 21 23 25 21 22 25 24 29 30 21 20 25 26 23
100 100 100 100 100 99 93 90 72 59 31 19 13 11 9 10 6 6 7 9 9 8 11 12 12 10 10 10 12 13 17 21 24 24 23 23 21 21 28 28 27 26 26 28 31
100 100 100 100 100 96 94 82 68 57 37 22 13 13 11 12 11 8 8 11 14 15 11 12 13 14 14 14 14 15 18 21 21 24 24 25 23 23 22 23 22 22 23 23 22
100 100 100 100 100 97 97 74 68 58 48 29 17 15 13 12 13 12 10 10 11 14 18 18 12 13 15 16 14 16 19 21 23 25 26 23 22 22 25 26 26 28 27 28 26
100 100 100 100 100 100 93 71 62 57 57 41 33 24 20 16 16 14 14 14 14 12 12 14 17 21 21 15 17 18 18 19 21 25 28 26 26 26 26 28 29 27 24 22 22
100 100 100 100 100 100 93 71 62 58 60 46 43 44 38 33 30 31 27 20 22 27 23 20 16 19 20 21 24 20 20 21 21 20 19 22 27 30 29 27 26 26 27 27 26

GFSSW_250_rhum_075.txt.gz
RH
55 41 36 44 72 77 68 79 72 80 81 81 57 51 31 16 11 15 6 7 9 6 4 3 2 2 1 2 2 2 1 2 2 3 6 8 12 10 17 31 30 100 97 77 100
30 34 33 48 70 91 90 82 76 90 84 81 71 52 26 12 9 18 8 8 7 5 4 3 2 2 2 1 1 1 2 2 3 3 6 7 11 11 19 34 46 100 98 72 100
29 41 34 46 60 85 75 86 74 90 77 76 56 39 21 14 10 11 9 6 5 4 3 3 2 3 2 1 2 2 2 3 3 4 6 6 10 12 18 47 62 100 100 92 100
41 41 45 47 51 66 74 76 68 95 80 68 55 29 16 12 15 10 11 7 6 4 3 2 2 2 2 1 1 1 2 3 3 4 6 6 8 14 18 36 80 100 100 100 100
39 42 50 53 56 55 62 74 67 84 70 62 47 21 14 11 12 10 7 4 4 3 2 2 2 2 1 1 1 2 2 3 3 5 8 6 8 13 20 30 74 100 100 100 80
46 43 49 51 48 52 62 75 68 80 71 69 38 22 17 11 12 10 7 4 3 2 2 2 1 1 1 2 2 3 3 3 4 5 7 8 9 13 21 36 79 100 100 100 100
36 44 53 53 43 62 59 70 75 74 66 69 38 19 12 10 11 9 6 4 2 2 2 2 1 1 1 2 2 2 2 3 4 5 7 10 11 13 21 46 95 100 100 100 100
24 33 47 34 45 58 76 69 70 67 69 51 30 18 11 11 9 7 5 3 2 2 1 1 1 1 2 2 2 2 2 2 4 6 8 10 11 13 21 38 100 100 100 100 100
14 21 25 22 41 49 72 67 68 62 56 41 17 14 12 11 8 6 4 2 2 2 1 2 2 2 2 2 2 2 3 3 4 6 8 8 13 16 21 35 100 100 100 100 100
10 12 21 16 39 61 62 55 73 49 41 24 11 14 13 11 7 4 2 2 2 1 1 2 2 2 2 2 2 3 3 3 5 7 9 9 12 16 22 38 100 100 100 100 100
10 11 13 17 28 47 40 66 70 32 38 18 9 13 16 8 5 3 2 2 1 1 2 1 2 2 2 2 3 4 4 4 6 8 10 10 16 17 25 42 100 100 100 100 100
9 12 18 18 26 41 57 66 39 39 28 13 11 15 12 6 3 2 2 2 1 2 1 1 1 2 2 3 3 4 4 4 6 10 13 12 14 24 17 44 67 100 100 100 100
9 13 15 17 25 44 51 36 47 37 23 10 14 20 10 5 3 2 2 2 2 2 1 1 2 2 3 3 4 5 4 5 7 11 13 15 19 22 50 44 48 83 93 66 99
8 13 16 17 23 39 30 60 47 36 17 10 16 22 8 4 3 2 2 2 2 2 1 1 2 2 3 4 5 6 6 6 7 9 15 17 14 16 30 24 40 50 100 96 79
9 13 15 27 34 63 70 62 55 33 11 14 19 15 8 5 3 2 3 2 2 1 1 2 2 2 3 5 8 7 8 8 8 10 14 17 17 19 33 30 28 51 65 100 100
10 10 20 24 85 87 98 70 54 30 12 16 23 13 7 4 3 3 3 2 2 2 2 2 2 3 4 6 7 7 8 10 12 14 12 20 17 25 24 40 25 46 54 80 100
12 13 23 42 100 92 98 75 63 21 12 25 22 12 6 4 3 3 3 3 2 2 2 3 3 4 5 6 8 8 12 13 17 9 10 15 25 40 32 32 26 23 44 54 59
13 17 26 100 100 100 100 99 59 20 14 26 18 10 5 4 3 3 3 3 3 3 3 3 4 5 8 10 11 11 13 13 11 9 12 14 23 44 33 30 23 19 21 39 46
15 21 78 100 100 100 100 100 52 21 24 25 15 7 5 5 3 3 3 3 3 4 4 5 6 8 10 13 13 11 10 10 11 9 11 14 24 39 45 40 28 20 21 21 37
18 40 71 100 100 100 100 100 51 26 28 24 13 7 6 5 4 3 4 4 4 5 5 6 6 9 14 16 15 14 12 13 12 11 12 13 21 38 30 29 27 33 24 21 23
23 71 82 100 100 100 100 97 35 31 27 24 12 8 7 5 4 4 6 5 5 5 7 7 7 12 16 18 20 19 18 17 14 14 15 14 15 22 30 26 17 18 20 19 19
36 61 100 100 100 100 100 83 52 37 24 20 13 9 7 6 4 4 7 7 6 7 8 9 10 9 7 11 17 22 22 20 18 14 14 15 17 16 14 16 22 18 23 23 18
44 94 100 100 100 100 99 84 64 41 23 16 12 10 10 8 7 6 7 10 11 8 8 10 9 12 12 11 10 14 18 19 20 23 17 15 20 20 19 22 23 23 19 20 24
70 100 100 100 100 100 85 81 58 39 24 14 12 11 11 10 11 11 11 10 12 15 16 13 11 12 12 14 17 18 19 20 18 19 19 19 16 16 20 25 27 26 27 29 32
100 100 100 100 100 94 82 74 56 43 25 17 14 12 12 10 10 12 12 14 17 18 18 18 20 20 16 14 14 16 19 23 27 27 26 26 25 23 21 18 22 24 26 28 29
100 100 100 100 100 82 86 75 53 47 29 22 22 17 15 14 15 15 18 17 18 19 20 22 25 24 24 22 24 20 17 18 21 26 30 34 33 30 28 25 24 22 24 25 24
100 100 99 100 97 79 87 82 59 42 39 37 32 27 27 27 23 27 26 25 26 26 28 33 36 40 38 32 27 28 25 25 23 20 22 27 32 36 36 34 30 25 24 24 23

GFSSW_250_rhum_078.txt.gz
RH
80 80 83 68 72 58 39 27 26 35 36 36 30 37 40 34 35 34 24 14 10 12 10 8 6 4 3 3 2 2 1 2 2 2 3 2 2 3 4 6 12 18 58 100 53
49 54 50 42 32 36 28 23 32 32 37 30 29 44 30 32 30 29 17 12 15 14 10 7 5 3 3 3 2 2 1 2 2 2 2 2 2 3 4 5 12 19 35 100 96
54 45 42 33 27 26 32 21 22 39 40 42 27 32 33 33 26 17 13 12 15 10 8 7 4 3 3 2 2 1 1 2 2 2 2 2 2 3 3 5 13 22 33 100 100
32 33 45 49 21 21 20 18 20 30 38 33 29 29 32 31 23 15 10 13 13 8 8 5 3 3 3 2 2 1 1 2 2 2 2 2 2 3 4 6 15 23 61 100 100
28 26 23 22 20 17 16 15 20 27 35 35 24 24 27 25 16 14 9 12 12 10 6 4 4 2 2 2 1 1 1 2 1 2 2 2 2 3 4 6 13 28 35 100 99
10 9 10 9 11 11 10 12 25 27 27 29 23 24 22 16 14 10 10 11 11 6 4 3 3 2 1 1 1 1 1 2 1 2 2 2 2 3 5 7 13 40 41 100 88
11 10 9 9 8 8 9 12 16 20 24 25 22 21 18 11 10 10 11 11 8 5 3 2 2 1 1 1 1 1 1 1 1 2 2 3 3 4 5 8 14 51 99 100 89
11 10 9 8 9 8 10 10 9 14 20 29 23 15 13 11 8 10 10 9 6 3 2 2 2 1 1 1 1 1 1 2 2 2 3 3 4 7 8 11 18 48 100 100 98
10 10 12 9 9 8 9 8 10 13 20 22 16 13 10 10 9 10 9 7 4 2 2 2 1 1 1 1 2 2 2 3 2 3 3 3 7 6 6 11 23 47 100 100 100
10 10 11 9 8 8 9 10 11 9 16 17 14 11 10 9 10 8 5 3 2 2 2 2 1 1 1 2 2 2 3 3 3 4 3 4 6 6 9 14 30 54 100 100 100
10 9 10 9 8 9 9 12 10 8 10 12 12 10 8 10 9 6 4 2 2 2 2 1 1 1 1 2 2 2 2 4 4 4 4 6 8 10 12 17 26 64 100 100 100
11 10 9 8 7 9 10 13 11 17 14 10 10 10 10 11 8 5 3 2 2 2 1 1 1 1 1 2 2 3 3 3 5 4 4 7 10 11 12 16 26 92 100 100 100
10 11 11 8 7 10 12 15 16 16 12 10 11 11 11 12 7 4 2 2 2 2 1 1 1 1 1 2 2 3 4 4 4 5 5 8 12 11 12 19 28 76 100 100 100
8 11 12 7 8 12 15 15 16 14 11 9 10 15 13 8 5 3 2 2 2 2 2 1 1 1 2 2 3 4 4 4 4 6 8 10 13 9 12 16 28 73 100 100 100
7 11 9 9 11 15 14 20 18 13 11 12 14 16 11 7 4 3 3 2 2 2 2 1 1 2 2 3 4 4 4 4 5 7 10 12 10 13 13 18 30 72 100 100 100
6 7 9 10 16 16 20 28 18 16 14 16 17 15 8 5 4 3 3 2 2 2 2 2 2 2 3 3 4 5 6 6 7 9 12 12 15 15 27 25 35 44 100 100 100
5 5 10 12 20 21 34 31 36 21 19 21 20 11 6 4 4 3 3 3 2 2 2 2 2 3 4 4 6 7 7 7 8 9 18 16 19 20 29 29 34 37 93 100 100
4 8 14 16 21 42 35 52 36 25 27 26 16 8 5 5 4 3 3 3 3 2 2 3 3 4 5 6 8 10 9 8 9 9 14 17 18 19 25 48 33 28 45 100 100
6 10 16 20 46 57 54 53 50 36 34 21 11 7 5 4 3 4 3 4 3 3 3 3 4 6 8 8 10 10 10 9 12 10 12 14 16 16 20 43 38 27 30 52 99
11 13 15 48 63 79 91 62 45 42 29 17 10 6 5 4 3 4 4 4 4 4 5 5 5 7 9 11 11 10 9 8 8 8 10 12 15 17 17 26 43 31 22 35 53
9 13 24 64 77 95 77 68 50 41 21 13 8 6 6 4 4 4 5 5 5 5 7 7 7 8 10 12 13 11 10 11 11 10 9 9 14 13 15 22 35 46 46 27 41
10 28 57 100 95 100 83 59 48 29 16 11 8 7 5 4 5 4 6 6 6 7 6 8 9 10 10 10 12 16 12 13 14 12 12 13 14 17 17 18 23 29 34 33 32
14 47 100 100 100 96 70 49 34 21 16 12 9 8 6 6 6 7 6 8 11 11 10 9 9 15 20 18 19 21 21 19 18 15 13 14 14 15 20 22 17 15 18 21 21
21 73 100 100 100 75 66 40 28 19 17 14 11 8 8 9 10 11 13 14 15 17 20 21 21 17 14 14 19 22 21 27 32 28 27 24 21 20 24 25 26 30 27 27 25
54 99 100 100 88 70 51 40 28 24 19 16 12 10 10 10 10 13 14 15 19 20 24 22 24 26 29 31 28 25 22 24 25 26 29 28 27 30 29 28 30 38 44 43 44
80 98 100 91 80 64 50 37 34 31 26 22 17 13 14 16 14 14 16 19 24 24 25 25 28 28 31 32 35 39 42 42 39 31 29 29 26 24 24 30 26 23 24 26 29
92 100 87 85 79 61 51 43 38 34 34 30 27 23 21 25 29 27 24 21 25 28 28 30 32 37 40 40 46 47 46 48 45 46 49 43 40 32 28 25 23 23 25 25 26

GFSSW_250_rhum_081.txt.gz
RH
64 80 100 100 96 98 90 82 88 69 51 46 30 31 33 22 23 21 32 23 17 14 11 10 9 11 13 14 7 5 5 6 5 5 6 5 6 6 6 6 4 5 7 11 15
47 54 64 69 74 66 63 61 41 39 37 32 30 26 20 20 18 19 21 21 15 13 11 9 12 12 13 11 5 4 5 5 4 4 4 3 5 6 4 5 4 5 6 12 17
31 30 32 33 32 26 27 32 29 31 26 22 19 18 19 14 14 16 18 18 16 12 10 9 10 12 10 8 5 3 5 3 4 3 3 2 3 4 4 4 4 3 6 14 19
19 21 22 20 24 24 22 20 20 21 23 19 14 14 12 13 12 14 16 17 13 12 10 9 11 10 8 5 4 3 4 3 3 2 3 2 2 2 2 3 2 3 5 15 21
18 14 11 12 11 11 10 11 10 11 10 8 7 7 9 8 9 12 13 13 12 10 10 10 11 8 7 5 3 3 3 2 2 2 2 2 2 2 2 2 2 3 4 15 98
21 16 12 12 11 13 11 9 7 6 6 7 6 6 6 6 9 10 10 10 10 10 10 10 10 6 5 4 2 2 2 2 2 2 2 2 2 1 2 2 3 3 5 14 85
26 16 12 12 9 11 11 9 7 6 7 7 6 5 4 6 8 7 6 9 9 9 9 10 7 4 4 3 2 2 1 1 1 1 1 1 1 1 2 2 3 3 6 13 76
27 20 13 10 10 8 12 10 8 6 8 7 6 5 5 5 6 6 7 8 8 8 9 7 6 4 2 2 1 1 1 1 1 1 1 1 1 2 3 3 3 4 8 16 60
26 18 12 10 10 10 12 11 9 6 8 8 6 5 4 5 5 6 6 7 8 7 7 6 4 2 2 1 1 1 1 1 1 1 1 2 2 3 3 4 4 4 14 19 91
12 12 11 10 10 10 13 11 8 10 8 7 6 5 4 4 4 6 7 7 6 7 6 4 2 2 2 1 1 1 1 1 1 2 2 2 2 4 4 4 4 7 21 33 100
8 8 8 10 10 10 10 10 9 8 7 7 6 5 4 5 4 6 6 6 5 5 3 2 2 1 1 1 1 1 1 2 2 2 3 3 4 4 6 6 8 14 29 78 95
6 6 7 11 12 10 10 8 10 8 8 8 6 5 5 5 6 7 5 4 4 3 2 2 1 1 1 1 1 1 1 2 2 2 2 4 5 7 9 7 13 26 49 100 93
4 5 7 9 10 10 9 9 8 9 8 7 8 8 7 8 7 6 5 4 3 2 2 2 2 1 1 1 1 1 2 2 3 3 4 5 6 7 6 9 18 24 45 100 100
3 4 6 8 9 11 10 11 8 9 9 10 11 15 13 9 7 5 4 3 2 2 2 2 1 1 1 1 2 2 3 3 3 3 4 6 7 7 7 6 12 23 50 100 100
3 4 5 7 9 9 11 9 10 8 10 11 17 17 11 8 6 5 3 2 2 2 2 2 1 1 2 2 2 3 4 3 4 4 6 8 8 9 8 8 13 21 62 100 84
2 4 4 4 5 10 11 11 9 11 12 27 20 14 10 6 5 4 3 2 3 2 2 2 2 2 2 3 3 4 4 4 4 6 7 9 10 13 12 10 15 24 54 100 93
2 4 3 4 7 9 9 9 11 13 28 22 16 11 7 5 5 4 3 2 2 2 2 2 2 2 3 4 5 6 6 6 6 7 9 8 9 11 9 12 18 32 94 100 100
3 3 3 5 6 8 10 13 25 32 21 16 11 8 6 6 4 3 3 2 2 2 2 2 2 3 4 4 6 7 7 8 7 8 7 7 8 7 11 16 20 29 100 100 100
3 4 4 5 7 13 13 45 34 24 17 12 8 7 7 5 4 3 3 3 3 3 3 3 3 4 5 6 6 7 8 9 9 8 8 8 9 11 15 15 25 32 62 100 100
4 5 5 8 12 27 53 43 29 17 12 9 8 8 6 4 4 4 3 3 3 3 4 5 4 6 8 9 9 9 8 9 9 8 8 9 11 15 23 18 27 39 50 99 100
5 6 8 13 37 54 57 30 17 14 11 9 8 7 6 4 3 3 4 4 3 4 5 6 8 9 12 14 14 13 13 13 14 14 14 11 11 15 17 29 28 35 51 82 100
7 9 14 31 64 50 29 19 15 12 9 9 8 6 5 4 4 4 4 4 4 5 5 7 8 10 11 13 15 18 18 21 20 19 22 24 22 18 16 22 24 27 38 48 99
12 14 32 59 57 28 21 18 15 12 11 9 8 7 6 6 6 6 6 7 7 8 9 10 10 11 10 11 12 16 16 20 21 22 25 25 35 37 35 25 28 34 24 33 40
19 30 51 60 35 26 23 23 18 16 13 10 10 9 9 8 8 10 12 13 14 11 12 16 18 22 24 23 25 25 25 21 20 20 24 28 24 26 37 42 45 45 36 25 21
29 42 54 38 29 25 25 23 19 16 13 13 12 13 13 14 14 15 17 18 20 22 24 27 28 28 28 34 35 32 29 26 28 32 29 25 27 35 32 28 30 28 34 48 55
67 58 43 32 26 28 27 28 25 20 15 14 15 14 15 17 19 20 23 22 23 24 27 32 43 52 52 55 53 51 58 62 67 58 46 46 41 39 35 31 27 28 25 23 23
72 55 44 35 31 34 34 35 33 28 24 21 20 20 21 20 21 23 22 25 29 33 37 44 42 45 49 49 56 64 65 63 63 62 61 64 64 61 55 54 44 41 37 30 25

GFSSW_250_rhum_084.txt.gz
RH
43 38 30 29 40 57 52 39 36 44 48 57 84 73 72 73 80 76 46 37 30 27 24 20 15 16 15 16 12 11 12 15 18 15 13 8 12 10 10 9 5 4 3 4 5
15 14 12 12 13 14 18 22 23 32 34 39 44 43 69 78 70 53 31 22 21 23 16 14 13 12 11 13 11 10 11 13 14 12 12 10 10 8 9 10 5 4 4 3 4
22 18 17 13 13 12 10 12 14 16 16 23 20 22 26 36 29 22 23 23 16 16 16 11 12 10 9 10 10 10 12 12 11 9 8 9 8 6 8 7 5 4 4 4 4
46 33 33 25 21 14 15 11 10 10 8 11 11 12 20 15 21 17 11 10 10 8 8 9 9 8 8 9 11 10 11 10 9 7 7 8 6 6 7 7 4 4 4 4 6
91 88 42 32 27 26 17 14 12 9 9 8 6 6 6 8 7 7 6 6 5 5 6 6 7 6 7 9 10 10 9 8 6 6 6 6 5 5 6 5 4 4 5 7 7
100 91 71 51 34 29 25 14 12 9 9 9 8 6 7 7 6 5 4 4 4 4 5 5 5 5 8 9 9 8 7 6 5 5 4 4 4 3 4 3 4 3 5 6 8
97 100 77 49 44 32 29 15 12 10 8 9 9 6 8 6 5 4 4 4 3 3 3 4 5 7 8 7 6 5 5 5 4 3 3 2 2 3 2 3 3 4 5 5 6
60 71 65 51 32 29 28 15 12 9 8 9 8 8 7 5 5 4 3 3 3 3 4 4 5 6 7 6 5 4 3 2 3 2 2 2 2 2 2 2 3 4 3 4 5
34 29 34 38 26 17 19 16 10 9 9 10 7 8 7 5 4 4 4 3 3 3 3 4 5 6 5 5 4 2 2 1 1 1 1 1 2 1 1 2 2 2 3 3 5
16 14 11 11 11 10 12 12 10 10 10 7 10 7 5 4 4 4 3 3 3 3 4 5 5 5 4 2 2 2 1 1 1 1 1 1 2 1 1 2 2 2 2 4 6
5 5 5 6 7 9 10 9 10 10 8 8 8 6 5 5 5 4 3 3 3 4 4 5 4 4 3 2 1 1 1 1 1 1 1 1 1 1 2 2 2 2 3 4 7
2 2 3 4 5 7 8 9 11 10 10 7 7 7 6 7 5 4 3 3 4 4 4 4 3 2 2 1 1 1 1 1 1 1 1 1 2 2 2 2 2 3 4 5 11
2 2 2 2 4 6 7 10 8 8 8 6 6 7 8 7 5 4 4 4 4 4 3 2 2 1 1 1 1 1 1 1 1 1 1 2 2 2 3 3 4 4 6 13 15
2 1 2 2 4 5 7 7 7 7 6 6 8 9 11 9 6 5 4 4 3 3 2 2 1 1 1 1 1 1 1 1 2 2 2 3 3 4 4 4 5 6 9 16 47
1 1 2 3 4 5 5 6 6 5 7 10 11 17 13 10 7 5 3 3 2 2 2 2 2 2 1 1 1 1 2 2 3 3 3 3 4 4 5 7 7 11 28 31 95
1 2 2 3 3 4 6 5 5 8 11 11 20 15 10 7 6 4 3 2 2 2 2 2 2 2 2 2 2 2 3 4 4 4 4 4 4 5 6 8 10 67 100 51 95
2 2 2 2 3 6 4 5 7 10 15 17 15 12 7 5 5 3 3 2 2 2 2 2 2 2 2 2 3 4 5 5 4 5 5 6 6 6 7 9 12 88 100 51 96
2 2 3 4 5 5 6 7 11 18 21 15 10 8 6 5 4 3 3 3 3 2 2 2 3 3 3 4 4 5 6 6 6 6 6 6 8 8 8 10 11 18 37 41 100
3 4 5 6 6 6 10 22 20 16 11 9 9 7 5 4 3 4 4 4 3 3 3 3 5 5 6 7 6 7 7 7 8 7 8 9 11 10 11 11 11 38 88 85 100
6 6 7 6 9 21 22 17 12 10 10 8 6 5 4 4 4 4 4 4 3 3 3 4 5 8 10 10 10 11 13 15 12 13 12 13 14 12 18 19 22 23 77 100 100
8 7 10 20 19 15 12 11 11 8 7 6 5 4 4 4 4 4 4 4 4 4 5 6 6 7 9 12 12 14 18 20 21 27 32 24 17 26 35 25 51 46 74 100 100
22 25 20 14 14 13 12 10 8 7 6 6 6 5 5 5 5 5 4 4 5 5 5 5 6 8 9 10 14 14 16 21 31 36 42 43 42 31 32 30 29 53 62 100 100
32 24 16 13 11 10 8 8 8 8 9 8 7 7 6 6 6 6 5 6 8 9 8 8 7 7 9 10 14 14 19 21 20 21 38 36 47 50 45 27 25 34 45 72 100
21 18 13 10 10 10 10 10 11 12 10 8 9 8 9 10 11 12 11 12 12 13 13 14 14 13 13 12 15 19 20 25 30 28 22 22 22 28 26 38 39 28 34 45 79
19 16 15 17 17 18 17 16 14 12 11 11 11 11 12 13 14 14 16 18 19 18 17 17 17 16 18 17 17 25 38 44 43 40 34 30 31 28 23 31 27 27 41 44 50
21 23 23 22 23 21 20 20 15 12 12 12 14 14 17 20 22 24 25 27 27 29 29 33 41 40 34 31 35 45 47 46 55 56 57 56 53 46 34 29 27 29 35 30 31
28 30 28 24 26 24 23 23 21 20 20 21 21 22 24 26 25 26 27 31 31 35 38 42 42 42 37 40 48 48 47 51 47 46 42 46 48 48 49 50 46 46 42 36 32

GFSSW_250_rhum_087.txt.gz
RH
19 23 22 21 20 17 17 25 30 39 43 58 56 45 52 28 36 56 48 35 50 59 59 43 43 55 50 43 21 19 16 21 22 14 16 13 15 20 22 20 13 9 7 6 2
38 32 31 29 25 23 26 19 16 17 26 32 43 35 15 18 23 34 32 28 28 34 45 52 41 28 35 25 16 15 15 14 14 12 12 14 14 15 18 19 14 9 8 7 3
77 60 50 37 37 29 26 29 19 16 15 14 12 8 7 7 9 13 11 14 17 22 26 26 27 22 22 25 18 12 14 11 12 9 9 12 13 12 16 19 17 9 8 6 3
72 83 86 62 53 49 37 28 24 19 17 11 10 8 7 6 6 7 7 9 13 13 14 13 15 14 13 10 10 9 8 8 8 7 8 10 12 10 13 17 13 6 9 6 4
93 80 84 91 65 55 49 47 35 23 22 17 13 9 9 6 6 6 6 5 6 8 7 7 8 8 7 7 6 6 6 6 5 6 7 10 11 9 11 12 8 6 10 8 8
74 72 66 76 72 59 61 59 52 37 25 18 17 13 7 7 6 6 5 5 5 5 4 4 3 4 4 5 4 4 4 5 5 6 5 9 10 7 11 8 7 6 10 8 9
38 50 44 64 83 59 56 57 51 43 26 19 18 12 8 6 6 7 5 5 4 3 3 3 3 3 4 3 3 3 4 4 6 6 5 6 7 7 8 4 6 6 8 7 8
16 20 25 31 56 61 53 46 52 44 27 22 14 11 8 7 8 6 5 4 3 3 4 3 3 3 3 3 3 3 4 4 4 4 4 4 5 6 6 4 5 8 8 7 8
6 8 11 15 23 40 46 37 38 27 19 26 20 13 8 10 6 6 5 4 3 3 3 3 3 2 3 3 3 3 3 4 4 3 3 3 4 6 5 4 5 6 7 8 8
4 4 5 6 11 14 19 17 22 19 20 21 18 13 11 7 6 6 5 4 3 3 3 3 2 2 2 3 3 3 3 3 3 2 2 3 3 5 4 3 4 5 5 6 6
4 3 3 3 5 8 8 9 14 12 12 13 13 11 7 6 7 6 4 3 3 3 3 3 2 3 3 3 3 3 2 2 2 2 2 2 2 2 2 2 2 3 4 4 5
3 2 2 2 3 4 7 8 8 9 10 11 10 10 6 7 7 4 4 3 3 3 4 3 3 3 3 3 2 2 2 2 1 2 2 1 2 1 1 1 1 2 2 3 4
2 2 2 2 2 2 4 5 6 9 10 9 9 10 7 6 6 5 4 4 4 5 5 3 3 3 2 2 2 2 1 1 1 1 1 1 1 1 2 2 2 2 2 2 4
2 1 2 2 2 2 3 4 5 8 8 8 10 8 6 7 5 4 6 8 7 4 4 2 2 2 2 1 1 1 1 1 1 1 1 1 1 1 1 2 2 2 2 3 4
1 1 2 2 2 2 3 5 5 6 7 9 8 11 7 6 9 8 9 6 4 2 2 2 2 2 2 2 1 1 1 1 1 1 1 1 1 1 2 2 2 3 3 4 5
1 1 1 1 2 2 3 4 5 6 8 9 9 7 12 16 11 7 4 2 2 2 2 2 2 2 2 2 2 2 2 2 2 2 2 2 2 2 2 2 3 4 4 4 7
1 1 1 2 2 3 4 5 6 8 8 7 9 18 16 9 6 4 3 3 3 2 2 2 2 2 2 2 2 3 3 3 3 3 3 4 4 4 4 4 4 5 6 10 12
3 3 3 3 4 4 5 6 7 5 7 16 18 10 6 6 5 4 4 2 2 2 2 2 2 3 3 3 3 4 4 4 4 4 4 5 5 5 5 5 7 8 11 15 18
4 3 4 4 4 5 5 5 8 11 16 10 7 6 6 6 5 4 3 3 3 3 2 3 3 4 4 4 5 5 5 6 6 7 7 7 6 7 8 10 12 14 42 56 62
6 5 5 5 5 6 10 12 11 10 7 6 5 6 6 5 4 4 4 3 3 3 4 3 3 4 4 6 5 6 7 8 10 10 10 11 11 10 10 13 15 60 69 96 100
20 17 10 10 13 13 10 7 6 5 5 5 6 6 4 4 5 4 4 4 4 4 4 4 4 5 6 5 5 6 8 10 13 13 14 16 19 23 16 21 26 60 64 92 99
15 15 11 9 8 6 6 5 5 5 6 5 5 5 5 5 4 4 4 4 4 5 5 6 6 6 7 6 7 8 9 12 17 20 23 28 41 49 42 34 49 44 71 77 100
9 10 9 8 7 6 6 6 6 6 5 5 7 6 6 6 6 6 7 7 7 6 6 7 7 7 9 8 10 10 12 15 16 19 20 25 34 50 70 85 61 70 59 86 100
11 13 12 11 9 8 7 7 8 8 8 9 8 9 9 10 10 11 11 11 11 12 12 8 8 10 11 12 12 16 22 21 20 21 24 21 22 22 25 41 88 91 78 75 99
15 16 17 15 13 12 12 11 11 11 12 12 11 12 14 14 16 18 19 21 22 23 20 14 13 16 20 26 30 38 38 38 40 30 27 23 21 23 23 22 39 54 99 82 72
21 22 21 22 20 18 17 16 15 14 14 14 13 14 16 18 23 28 28 27 28 26 25 25 25 31 37 41 41 46 46 47 46 43 38 38 39 33 30 23 26 34 63 89 74
25 25 26 25 25 24 21 19 20 20 18 19 23 27 30 32 31 32 32 30 31 32 31 32 32 35 35 38 44 46 46 42 40 40 40 41 43 44 42 42 39 35 32 49 96

GFSSW_250_rhum_090.txt.gz
RH
33 33 33 26 20 16 14 17 17 18 26 35 54 62 56 87 75 66 62 60 56 63 72 65 63 50 50 42 52 37 45 46 40 26 38 28 20 25 30 28 33 24 33 23 14
65 50 47 48 44 30 26 18 16 14 17 20 24 23 23 53 64 83 81 60 59 57 66 66 52 37 29 31 31 32 26 37 32 24 24 22 17 24 23 24 25 20 27 23 13
100 94 72 52 58 47 50 38 26 20 16 15 16 15 17 16 24 35 42 42 32 41 55 37 34 31 19 17 41 37 25 20 20 19 16 21 21 22 14 17 23 19 19 17 13
100 100 89 77 55 47 40 44 32 23 20 18 17 16 13 13 15 17 23 30 19 18 23 31 30 16 8 11 14 18 19 20 17 14 13 14 14 16 16 15 14 13 16 16 13
87 92 76 100 50 54 37 40 31 28 25 24 20 18 17 15 14 11 12 13 12 12 14 11 5 5 5 6 7 8 10 13 13 16 14 10 11 13 13 11 10 8 11 14 12
46 54 56 61 80 76 38 36 36 28 30 26 26 21 16 16 12 11 12 10 7 6 6 5 4 4 4 4 4 4 7 9 9 9 9 8 9 8 10 6 7 6 8 12 11
18 14 16 22 22 25 17 24 26 32 32 26 27 21 16 18 13 10 11 9 6 6 4 3 3 3 3 3 3 3 3 4 6 4 5 4 5 7 6 5 6 7 8 9 9
9 10 9 8 8 9 11 10 14 25 28 24 23 23 21 17 14 12 10 9 6 6 4 4 3 3 3 3 3 3 3 3 3 3 3 2 4 4 4 5 5 6 7 8 8
7 8 9 9 10 8 8 9 12 22 20 21 18 24 25 16 13 14 14 9 6 4 4 4 3 3 3 3 2 2 2 2 2 2 2 2 3 4 4 4 5 5 5 6 7
4 5 6 7 9 9 8 7 9 14 16 18 19 22 18 15 19 17 11 7 5 4 3 3 3 3 3 3 2 2 2 2 2 2 2 2 3 3 4 3 3 4 4 4 5
3 4 4 5 6 8 8 8 7 8 10 16 15 14 15 18 22 12 6 5 4 4 3 4 3 3 3 2 2 2 2 2 2 2 2 2 3 3 3 3 3 3 3 4 5
2 2 3 4 4 6 7 7 6 7 9 9 10 12 20 19 12 6 5 4 4 4 4 4 3 3 3 2 2 2 2 2 2 2 2 2 2 2 3 3 3 4 3 4 6
1 2 2 3 4 5 6 6 5 5 6 8 10 16 16 12 8 6 5 6 5 5 5 4 3 3 3 2 2 2 2 2 2 2 2 2 2 2 2 3 3 4 3 4 6
1 2 2 2 3 4 4 4 3 4 6 8 11 13 11 9 7 9 6 6 6 5 4 3 5 4 4 4 4 3 3 3 2 2 2 2 1 1 2 2 2 3 2 3 6
1 2 2 2 2 2 3 2 3 5 6 9 10 10 9 11 7 6 8 8 7 7 7 5 5 4 4 3 2 2 2 2 2 1 1 1 1 1 1 1 2 2 2 2 3
1 1 1 1 2 2 2 2 4 5 6 7 8 10 8 8 12 14 14 10 6 6 5 3 2 2 2 2 2 2 2 1 1 1 1 1 1 1 1 1 1 2 2 2 2
1 1 1 1 2 2 2 3 4 5 6 8 8 10 14 20 18 11 7 6 4 3 2 2 2 2 2 2 2 2 2 2 2 2 2 2 2 2 1 2 2 2 2 2 3
3 2 2 2 2 3 4 4 5 6 6 8 12 19 19 11 8 5 4 3 2 2 2 2 2 2 2 3 3 4 4 4 4 4 3 3 3 3 2 2 2 2 3 3 4
6 4 3 3 3 4 4 5 6 7 10 16 16 10 9 6 4 4 3 3 3 3 4 4 3 3 4 4 4 4 4 4 4 4 4 4 4 4 4 4 4 4 5 6 8
6 7 5 5 5 5 6 9 11 12 9 7 7 6 4 4 4 4 4 4 5 5 4 3 3 4 5 4 5 4 5 5 6 6 7 6 7 8 8 8 10 11 10 11 15
11 16 16 11 11 11 10 8 7 6 6 5 4 4 4 4 5 6 6 5 5 4 4 5 6 5 5 5 5 5 6 7 8 9 10 10 11 12 14 16 20 33 35 25 30
8 7 8 7 6 6 6 5 4 4 4 4 4 5 5 5 6 6 5 5 5 5 6 7 7 6 6 7 7 7 6 8 11 11 14 19 16 16 21 30 58 56 55 27 33
8 6 6 6 6 6 6 5 4 5 5 6 6 7 7 7 7 6 5 6 6 7 8 8 8 9 8 8 9 10 13 14 13 12 10 11 21 22 22 38 57 61 52 50 53
10 10 10 9 8 8 7 6 6 7 10 10 10 11 10 9 8 8 8 8 8 8 8 8 8 10 10 12 12 14 12 13 15 17 17 20 15 15 20 25 28 32 42 53 50
15 16 16 15 14 14 13 14 15 14 15 16 14 13 11 11 13 19 20 19 17 15 15 16 20 22 23 26 28 29 31 31 24 18 17 18 18 19 21 22 27 27 22 30 40
26 25 24 23 19 18 20 22 21 22 19 18 20 18 19 21 22 24 24 24 24 24 25 27 31 33 38 42 42 42 38 36 35 34 31 28 27 23 23 25 38 74 52 52 54
40 33 30 27 27 26 27 28 32 32 31 31 30 30 30 30 30 31 30 28 29 30 30 30 30 33 35 35 43 44 40 40 40 39 37 37 37 35 35 35 32 38 52 49 86

GFSSW_250_rhum_093.txt.gz
RH
61 64 52 51 44 54 38 28 26 19 19 21 27 61 78 86 77 87 89 57 35 25 28 32 31 26 24 23 31 34 25 26 36 49 46 50 36 34 34 35 39 40 34 32 41
99 89 62 69 44 41 49 47 35 32 20 18 18 19 23 33 70 79 68 67 56 42 27 35 42 33 28 28 30 28 32 36 38 38 43 44 43 46 41 38 39 34 32 35 30
100 100 89 85 71 60 39 57 68 48 41 25 20 16 17 19 20 21 32 37 44 51 45 33 33 39 40 35 33 30 27 26 29 28 23 27 26 26 34 30 29 29 22 29 21
74 99 100 85 100 80 78 51 35 38 38 34 23 18 14 13 14 16 17 16 16 22 21 21 23 28 31 35 32 25 24 18 15 17 16 19 22 17 21 23 23 24 23 23 18
22 41 59 96 91 95 100 90 59 41 49 40 31 30 19 17 14 12 12 12 11 10 8 6 8 10 14 20 21 26 18 12 12 12 13 16 20 19 20 25 16 16 16 17 16
13 13 20 41 62 69 79 84 86 70 76 54 40 29 21 20 22 15 12 12 10 9 9 8 10 8 7 7 9 10 16 14 12 10 10 8 11 11 14 15 15 10 12 15 13
8 9 9 11 17 31 43 57 72 58 56 54 35 35 38 36 24 20 15 13 11 10 9 9 11 10 6 4 4 6 7 8 7 7 7 4 5 7 9 9 12 10 12 14 12
4 5 5 6 9 12 16 31 50 50 51 53 35 29 39 31 32 20 17 14 10 9 9 9 9 7 6 4 3 3 4 4 3 3 3 2 4 4 6 6 8 8 8 10 11
2 3 4 5 6 11 13 11 14 27 34 27 38 30 26 27 22 20 16 14 10 11 11 9 6 6 4 4 3 3 3 3 2 2 2 2 3 3 3 4 5 4 5 6 7
2 2 2 4 5 7 11 13 12 12 13 12 12 13 14 16 13 15 15 12 13 13 11 7 5 5 4 3 3 3 2 2 2 2 2 2 2 2 2 2 3 4 4 4 5
2 2 2 3 4 5 7 10 12 13 11 9 8 10 10 9 13 13 13 15 16 12 8 5 5 5 4 3 2 2 2 2 1 1 1 2 2 2 2 2 2 2 3 3 4
1 1 2 3 4 4 6 10 12 13 9 10 9 7 8 11 13 12 14 15 11 7 5 6 6 5 4 3 3 3 2 2 2 2 2 1 2 2 2 2 2 2 3 3 3
1 2 2 2 3 4 6 8 10 10 8 6 6 7 8 12 12 14 13 10 8 6 8 8 6 5 4 3 3 2 2 2 2 2 1 1 1 2 2 2 2 2 2 3 3
1 1 2 2 3 4 5 5 7 6 6 5 6 9 11 12 12 13 9 6 8 11 9 7 5 4 3 3 3 2 2 2 2 2 2 2 2 2 2 2 2 2 3 3 3
2 1 2 2 2 3 3 4 6 6 6 6 8 13 12 12 12 8 8 10 9 7 7 6 6 5 8 7 6 4 4 4 3 2 2 2 2 2 2 2 3 3 3 3 3
2 2 2 2 2 3 3 3 5 4 5 7 8 10 9 9 8 10 11 12 12 10 11 10 9 7 5 4 3 3 2 2 2 2 1 1 1 1 1 1 1 2 3 3 3
2 2 2 2 2 2 2 3 3 4 6 7 7 8 8 12 16 17 19 17 11 6 5 4 4 3 3 2 2 2 2 2 2 2 2 2 1 1 1 1 1 1 2 2 4
5 4 3 3 3 3 3 4 4 5 6 7 9 13 18 22 18 10 6 5 4 3 3 3 3 3 3 3 3 3 4 3 3 3 3 3 3 2 2 2 1 1 2 2 2
5 5 5 5 5 5 6 6 7 8 9 14 17 21 14 7 5 4 4 4 4 3 3 3 4 4 4 5 5 4 5 4 4 5 4 4 3 3 3 2 2 2 2 2 2
7 10 8 7 6 6 6 6 8 11 14 12 8 6 5 5 4 5 4 4 4 4 5 6 5 6 5 6 6 5 4 4 4 5 4 4 4 4 4 3 4 3 4 4 4
5 7 8 9 10 10 9 10 8 7 6 5 6 5 5 5 6 5 6 5 6 7 8 9 8 6 6 6 5 5 5 5 6 5 4 5 6 6 4 5 6 6 6 7 7
7 7 6 5 5 4 5 5 5 5 5 5 6 7 7 7 8 8 8 8 7 8 8 9 7 8 9 9 8 8 8 8 7 6 8 7 8 12 7 8 11 10 12 12 18
10 11 9 8 8 8 7 6 6 7 7 8 8 8 8 10 9 9 9 9 8 8 8 8 9 9 9 10 10 10 10 9 11 12 12 13 10 9 9 10 11 10 14 19 24
25 19 18 17 14 12 10 9 10 10 9 9 8 8 10 9 11 12 10 9 9 9 9 10 9 12 16 15 13 14 12 12 11 12 14 15 17 19 19 17 19 19 16 20 19
36 36 38 28 26 21 17 17 15 14 14 14 15 16 20 23 22 20 21 20 20 18 17 19 21 23 24 26 25 24 23 20 19 19 16 14 13 17 24 30 41 44 36 39 28
51 43 39 38 37 32 30 26 23 22 22 22 22 24 22 21 20 23 24 24 24 26 27 27 28 29 34 31 31 31 28 29 30 30 24 24 24 22 23 29 31 47 59 58 66
66 59 51 46 43 40 39 39 36 32 31 31 30 29 30 32 31 31 31 32 31 33 35 37 38 39 43 41 38 39 36 36 36 33 33 32 35 38 35 33 32 32 30 45 71

GFSSW_250_rhum_096.txt.gz
RH
38 66 66 74 72 56 75 50 51 37 27 22 33 39 61 93 96 88 84 73 63 51 44 33 32 32 32 38 48 49 48 58 42 33 33 28 31 32 36 40 45 40 41 45 48
14 23 66 61 73 90 95 91 58 51 42 32 23 21 25 27 47 71 81 74 82 76 56 49 38 35 36 34 30 28 30 37 30 31 25 30 22 27 28 31 34 35 34 41 40
9 11 19 71 67 73 81 94 89 82 55 46 38 27 28 25 24 26 25 30 48 50 57 68 66 69 49 31 38 26 24 23 28 21 21 26 23 22 23 25 29 27 30 40 39
6 8 10 16 62 94 97 100 100 89 78 68 54 40 42 31 28 27 16 16 17 18 32 76 76 60 44 46 32 31 25 18 18 17 17 19 23 22 23 23 26 27 31 39 37
4 5 6 11 20 52 80 98 100 100 97 80 67 72 41 43 36 24 20 17 14 12 11 14 20 26 27 28 28 32 30 24 18 18 16 16 18 19 25 23 30 37 29 19 29
3 3 4 7 13 17 43 49 87 100 99 98 92 61 57 56 32 31 23 20 16 15 15 13 12 12 11 9 9 12 14 14 12 10 11 12 15 14 24 25 28 22 24 15 17
2 2 3 6 9 13 14 24 33 51 74 100 99 96 80 63 40 29 30 23 17 16 13 12 11 10 8 7 6 7 6 5 5 6 8 8 13 14 17 16 15 14 14 12 10
1 2 2 4 6 10 14 14 20 34 57 71 90 92 69 70 50 39 32 29 25 15 14 12 10 9 9 8 8 7 6 5 4 3 3 3 5 6 10 9 11 10 11 12 12
1 1 2 2 5 7 10 15 19 23 42 68 66 73 93 74 67 56 34 27 24 23 18 16 11 9 8 10 9 8 6 5 5 3 2 2 2 3 4 5 7 7 8 8 12
1 1 2 2 2 5 8 13 18 20 28 55 80 68 66 64 56 54 45 32 22 20 18 17 12 14 14 13 9 5 5 5 4 2 1 1 2 2 2 2 3 4 4 5 6
1 1 1 2 2 4 6 8 16 15 19 34 61 82 72 47 46 50 44 43 29 19 16 14 13 15 15 7 5 5 4 3 2 2 1 1 1 1 1 2 2 2 2 2 2
1 1 1 2 2 3 5 7 11 24 19 28 35 39 29 27 38 24 28 23 19 16 15 13 12 11 7 6 5 4 3 2 2 2 2 2 2 1 1 2 2 2 2 2 3
1 2 2 2 2 3 4 6 8 12 13 15 15 18 21 20 22 19 14 10 11 11 13 12 9 8 8 7 5 3 3 2 2 2 2 2 1 1 1 1 2 1 2 2 2
2 2 2 2 3 3 4 5 6 8 9 10 11 14 15 15 12 9 9 10 12 12 10 9 10 8 7 6 5 4 4 3 3 2 2 1 1 1 1 1 1 2 2 2 2
2 2 2 3 3 3 4 4 6 7 9 10 13 15 11 10 8 9 11 12 10 10 9 9 8 8 7 6 6 6 7 6 4 3 3 2 2 2 2 2 2 2 2 2 2
2 2 2 2 3 4 5 6 7 7 9 11 13 10 9 10 10 10 9 9 9 9 9 8 9 10 10 12 9 6 4 4 3 2 2 2 1 1 2 2 2 2 2 2 2
3 3 3 3 3 3 4 4 5 7 7 7 7 9 8 8 9 9 10 10 11 10 13 17 13 9 7 5 4 3 3 2 2 2 2 2 1 1 1 1 1 1 2 3 4
6 4 4 4 4 4 4 4 5 5 6 7 7 8 9 8 8 12 17 19 14 9 7 6 5 5 5 4 4 3 4 4 4 3 3 2 2 2 2 1 1 1 1 2 3
5 9 8 6 5 5 5 5 6 7 8 8 10 16 20 16 16 9 7 6 6 5 5 5 5 5 5 5 5 5 5 4 4 4 4 3 3 3 2 2 2 2 2 2 2
5 5 6 10 13 15 15 15 15 15 15 13 11 9 8 7 7 6 6 6 5 6 6 6 6 6 6 7 6 6 5 6 5 5 5 5 4 4 3 3 2 2 2 2 2
11 9 6 5 5 6 7 8 8 8 8 8 8 7 6 7 6 7 7 7 7 8 9 9 10 9 10 8 9 8 7 7 8 7 7 6 6 6 5 4 4 3 3 3 3
20 17 11 9 7 6 6 6 6 6 6 6 6 6 6 5 6 6 8 10 11 10 10 14 12 12 10 8 9 8 7 8 8 8 8 8 8 11 9 6 6 5 5 5 6
35 29 23 18 14 11 8 7 7 6 6 8 8 8 9 10 9 10 10 12 12 12 14 12 10 10 10 9 9 8 8 8 8 10 9 13 20 20 17 13 12 10 9 9 8
41 39 33 28 24 17 15 13 13 11 14 15 17 17 16 16 17 18 18 17 16 16 16 16 18 18 20 19 18 18 18 16 14 12 12 13 17 26 32 33 30 28 21 16 42
46 46 44 39 39 33 28 26 25 23 23 23 24 23 24 25 25 24 22 21 22 22 22 23 24 25 26 24 25 25 23 24 22 22 21 18 17 18 27 35 37 48 54 60 53
66 58 50 49 44 42 40 38 35 34 31 31 32 31 31 31 33 33 32 30 29 30 26 27 30 29 28 29 29 30 31 33 38 32 26 24 24 24 27 28 32 31 37 51 73
60 74 74 62 56 50 47 44 45 45 43 40 39 39 38 38 37 36 35 34 35 37 38 38 37 38 36 36 37 36 38 38 39 40 41 42 40 37 35 36 38 40 36 33 36

GFSSW_250_rhum_099.txt.gz
RH
23 21 19 18 31 53 65 55 66 66 71 46 25 23 21 32 86 80 85 78 75 57 71 65 68 76 51 57 77 71 74 88 93 100 95 70 86 75 82 96 85 35 30 33 40
25 22 22 24 26 19 37 70 60 68 79 76 48 29 24 21 21 58 85 83 78 83 70 64 57 60 52 56 53 57 47 41 54 65 81 89 74 63 60 59 83 59 26 24 30
20 23 22 27 30 22 21 26 78 63 67 91 85 50 41 33 29 23 22 40 72 88 79 88 74 56 50 48 43 38 38 32 36 33 36 58 64 62 55 41 46 44 30 25 23
18 22 19 20 25 25 33 23 34 75 75 79 69 85 66 53 44 30 25 21 25 53 74 76 77 70 52 50 53 54 46 36 36 30 29 28 30 31 36 35 32 33 18 20 22
6 7 9 16 26 28 31 37 30 36 96 100 82 62 99 80 63 53 37 28 25 21 25 36 51 60 64 66 47 49 50 41 40 30 29 31 33 28 29 21 18 18 17 16 17
4 4 4 6 8 18 25 28 30 25 47 100 100 93 92 93 89 79 59 52 42 33 22 18 15 15 15 34 49 41 37 28 28 31 28 30 34 25 31 15 17 15 13 13 13
2 3 3 4 5 7 10 10 14 15 19 100 100 100 85 80 73 72 77 70 61 39 38 33 20 14 12 10 9 8 11 12 12 14 17 19 24 21 13 13 13 11 12 11 14
1 2 2 3 3 4 6 8 9 11 15 59 100 100 100 92 86 92 84 70 60 55 48 34 27 21 14 13 11 10 8 7 7 6 6 6 8 10 10 7 9 11 11 9 9
1 1 2 2 2 3 4 7 8 10 12 36 94 100 100 100 100 85 67 71 80 75 51 39 30 20 14 15 12 12 10 9 7 6 6 5 5 5 4 3 4 6 10 9 7
1 1 1 1 2 2 4 6 8 10 13 30 50 52 88 98 92 88 89 86 89 70 52 36 25 18 18 18 16 14 10 8 8 7 6 4 4 3 3 3 2 4 3 4 4
1 1 1 1 2 2 4 7 9 10 19 28 47 54 51 74 86 87 93 97 91 69 57 35 28 21 17 16 16 13 11 10 7 5 4 3 3 2 2 2 2 2 2 2 2
2 1 2 2 2 2 4 8 11 12 21 27 26 26 38 57 59 74 86 83 77 66 51 41 33 26 18 16 12 12 11 6 4 3 3 2 2 2 2 2 2 2 2 2 1
2 2 2 2 2 2 4 6 10 14 20 26 33 29 28 25 30 57 68 67 60 52 44 40 28 17 12 12 9 7 6 5 4 3 3 3 2 2 2 2 1 1 1 1 1
3 3 3 2 2 2 4 6 6 8 10 16 26 23 25 28 26 29 36 41 38 31 24 15 12 12 10 9 9 6 5 5 5 4 4 3 3 2 2 1 1 1 1 1 2
2 3 4 3 3 4 4 5 6 8 8 10 18 28 23 26 29 29 25 23 23 16 13 11 9 9 10 8 7 6 6 6 6 6 5 3 3 2 2 2 1 1 1 1 1
3 3 3 4 5 6 6 6 7 10 12 14 17 16 19 20 18 17 15 12 10 9 9 11 12 11 8 8 8 12 15 9 4 3 3 2 2 2 2 2 2 2 2 2 1
6 4 4 4 5 6 8 9 10 12 13 13 14 15 14 14 12 10 9 10 11 10 9 9 10 9 12 17 13 7 5 4 4 3 2 2 2 2 1 1 1 2 2 2 2
6 9 6 5 5 5 6 6 7 6 7 9 10 9 8 9 10 10 9 9 10 16 19 20 18 12 7 6 6 7 6 6 4 4 4 3 3 2 2 2 1 1 1 2 3
7 6 7 12 14 14 11 10 9 9 10 11 13 15 14 11 14 19 17 14 8 6 6 6 6 6 8 8 8 9 10 8 7 6 4 4 4 3 3 2 2 2 1 2 2
11 8 7 6 5 6 8 11 11 11 11 10 9 8 8 7 7 6 7 8 8 8 8 8 8 9 10 11 10 13 11 7 8 8 7 6 6 4 4 4 3 2 2 2 2
25 20 14 9 8 7 7 8 8 8 9 10 10 9 9 9 10 10 10 8 8 8 9 10 13 14 14 12 10 9 8 8 10 10 9 8 10 6 6 6 4 3 2 2 2
33 34 26 20 17 14 10 8 8 8 7 7 9 10 8 7 6 6 7 9 13 14 14 13 13 12 11 12 11 10 9 10 12 16 16 12 12 11 12 10 7 10 5 3 3
45 41 33 32 35 33 26 20 17 14 14 13 12 11 11 11 13 13 14 16 16 16 19 20 20 20 18 16 13 12 13 14 15 18 22 19 18 26 24 27 14 17 26 16 6
48 51 50 41 40 38 40 35 29 27 28 26 24 26 27 27 27 27 28 28 28 28 27 26 26 27 26 24 22 21 18 17 16 17 19 23 25 32 33 28 33 38 40 41 32
39 51 52 56 57 49 45 42 42 41 37 32 34 33 33 34 30 28 28 30 29 30 29 30 32 34 35 34 30 26 25 25 25 27 28 28 32 27 24 26 32 37 49 48 46
26 36 48 59 61 64 65 58 54 49 46 44 44 43 40 38 38 33 30 29 29 30 30 30 32 32 31 32 34 31 31 34 35 36 33 31 36 33 36 35 32 30 35 36 37
29 27 30 39 50 59 63 66 69 67 62 59 54 49 47 48 46 44 42 40 41 43 44 44 42 42 43 44 45 41 42 40 40 39 35 37 40 41 40 44 44 39 36 39 43

GFSSW_250_rhum_102.txt.gz
RH
17 19 14 16 21 30 23 25 35 48 61 43 38 40 36 28 26 90 100 100 100 96 75 52 62 59 61 95 92 98 100 98 82 73 91 94 86 89 96 82 76 85 89 55 60
10 11 12 14 13 20 29 28 44 50 85 87 49 52 59 43 26 25 29 42 66 93 84 70 72 66 49 55 60 77 82 87 97 97 85 100 84 99 98 98 100 70 58 45 41
12 12 11 12 12 15 20 28 38 41 91 100 100 65 68 68 52 31 27 25 26 33 67 87 90 95 66 65 70 58 50 60 78 70 71 70 72 80 78 77 94 86 83 55 41
4 7 12 12 13 15 18 25 34 36 54 100 100 90 95 80 80 66 33 29 23 22 30 52 82 100 93 79 78 77 56 49 55 60 50 44 40 48 50 62 51 55 60 47 55
2 3 4 8 13 16 17 20 27 39 35 59 98 100 100 91 93 82 70 35 30 23 20 17 22 50 72 85 86 76 65 64 58 49 47 40 39 41 44 28 26 29 29 36 26
2 2 2 5 8 14 18 21 28 32 44 45 54 92 100 100 98 94 94 67 37 30 27 21 20 20 22 32 45 52 62 64 59 48 44 39 44 43 37 23 21 23 24 22 21
2 2 2 2 5 7 15 20 27 31 46 48 44 45 95 100 100 100 100 89 78 60 44 30 25 22 18 15 14 13 20 37 49 50 56 52 47 40 27 22 19 18 21 21 19
2 1 1 2 3 5 9 14 27 32 39 47 49 51 51 61 85 99 100 100 100 94 76 57 54 51 35 23 19 14 13 11 9 9 10 12 14 21 18 14 14 13 13 14 9
1 1 1 2 2 4 7 9 25 32 37 50 48 47 45 42 59 91 100 99 98 100 100 94 92 85 58 43 29 20 16 13 10 10 10 8 8 7 8 7 7 8 7 6 6
1 1 1 1 2 3 5 7 21 37 40 42 43 45 55 59 52 81 100 91 91 99 88 79 72 70 62 46 42 34 26 24 16 10 10 9 8 6 5 4 4 4 4 3 4
1 1 2 2 2 2 4 4 10 35 50 55 54 54 61 70 62 70 100 100 98 93 89 76 72 74 66 57 50 38 28 18 16 13 13 9 7 5 4 4 3 3 3 2 2
1 1 1 2 2 2 3 4 7 18 34 42 45 67 84 66 53 44 73 100 91 68 65 55 58 52 52 55 48 32 23 18 19 13 8 6 6 4 4 4 3 3 2 2 1
2 2 2 2 2 2 2 3 6 10 23 35 37 28 28 21 22 36 50 63 69 64 67 75 73 72 57 47 35 27 26 21 13 9 8 6 5 4 3 3 2 2 2 2 1
3 2 3 2 3 3 3 3 5 7 10 12 17 18 16 14 18 25 40 45 52 59 61 67 63 55 38 33 37 36 24 13 9 8 6 4 3 3 2 2 2 2 2 1 1
3 3 4 4 5 5 5 5 6 8 9 10 12 12 13 19 20 24 33 34 36 43 40 43 40 40 37 30 15 10 8 10 7 5 5 5 5 4 3 2 2 2 2 1 1
4 4 4 5 6 8 8 10 10 9 11 12 14 16 22 22 23 27 32 28 26 24 24 21 16 14 9 7 9 10 12 10 8 10 6 4 3 3 2 2 2 2 2 1 1
8 5 5 5 6 7 8 10 12 17 22 26 23 22 21 21 16 13 13 11 10 9 9 9 9 10 10 11 12 14 19 10 6 6 5 5 4 3 2 2 2 1 2 2 2
9 9 10 8 7 7 7 9 10 11 12 16 19 19 16 18 15 13 11 10 10 10 11 11 11 12 21 28 16 8 8 10 7 8 7 6 4 4 3 2 2 2 1 1 2
17 10 10 10 11 15 15 13 10 9 9 8 8 8 9 10 12 12 17 24 20 22 23 26 18 11 8 7 8 9 8 10 11 10 9 7 5 4 3 3 2 2 2 2 2
36 27 17 11 11 11 10 10 10 10 10 12 16 17 16 16 14 11 10 10 9 9 9 10 11 10 10 8 8 8 13 14 14 14 14 11 7 6 4 3 3 3 2 2 2
43 48 40 28 21 16 12 12 12 11 10 10 10 10 11 12 14 13 11 10 10 10 11 11 10 10 10 10 12 17 12 13 18 16 15 18 13 8 10 10 6 4 3 3 2
42 50 51 49 47 41 31 22 20 17 13 13 14 12 11 9 9 9 11 13 15 16 15 14 14 15 15 15 14 13 14 19 21 16 20 33 30 13 18 23 22 11 5 3 3
28 42 42 41 49 55 54 48 44 35 26 22 21 21 22 24 24 24 22 23 24 24 24 25 27 28 27 23 21 24 26 27 22 23 26 28 25 24 25 32 30 25 21 9 9
32 36 32 38 47 51 55 57 56 57 56 52 45 38 34 32 31 31 32 32 32 34 34 30 26 26 27 26 26 29 32 34 30 25 23 22 26 24 26 29 33 48 37 29 22
32 28 30 32 32 35 40 44 51 59 60 62 60 60 58 54 47 43 41 39 37 37 37 36 39 37 37 37 38 35 31 30 31 34 35 28 26 26 30 29 30 32 28 34 34
39 38 32 31 41 38 38 40 43 42 43 47 51 53 54 54 56 60 58 56 54 51 49 49 48 47 48 47 44 43 43 42 41 38 34 33 34 33 35 38 40 39 38 35 33
37 38 39 40 36 37 33 37 36 43 44 46 46 43 44 46 49 52 54 55 55 57 58 57 55 54 52 51 49 48 45 45 46 47 47 45 44 44 45 44 40 39 39 42 41

GFSSW_250_rhum_105.txt.gz
RH
10 12 14 13 16 16 22 23 19 18 20 18 21 24 29 32 31 69 100 100 98 81 79 69 63 59 64 69 76 94 86 77 60 55 75 94 100 100 100 94 66 56 94 100 82
7 7 9 10 13 15 15 23 27 22 25 25 28 29 28 28 41 72 68 90 100 100 98 100 96 100 95 76 86 100 94 68 75 88 70 74 72 88 98 73 71 89 88 65 84
7 8 9 7 8 11 13 17 24 36 36 37 51 22 38 31 30 41 45 44 74 100 100 100 100 100 100 92 79 84 76 63 47 54 70 84 97 93 85 80 60 50 47 67 66
2 3 5 8 8 9 10 14 18 31 36 57 28 56 67 49 42 47 48 40 37 37 38 56 98 100 100 100 100 85 79 76 56 53 52 50 71 72 85 94 56 42 41 44 58
2 2 2 3 7 11 11 12 13 23 33 45 39 54 50 62 67 64 63 61 50 43 30 24 25 28 67 92 97 97 88 74 84 56 71 61 54 50 56 39 38 39 42 51 42
2 2 2 2 3 6 11 11 12 17 25 36 41 49 36 55 90 77 75 80 70 64 51 39 36 28 21 19 20 33 41 66 79 82 82 84 75 56 67 41 32 31 37 38 37
2 2 2 2 2 3 7 13 12 14 21 32 37 47 55 45 51 98 96 90 88 90 78 62 56 52 32 24 22 18 20 26 46 59 59 62 71 64 52 42 42 41 36 34 30
2 2 2 2 2 3 4 12 13 15 20 29 36 43 48 49 68 100 100 100 97 100 100 86 78 57 46 33 23 18 16 14 13 13 14 17 28 36 34 32 36 29 26 28 29
1 2 1 2 2 3 4 10 16 16 19 27 36 38 50 69 55 60 100 100 100 100 98 96 91 69 57 44 33 29 26 22 16 13 12 11 11 10 9 8 8 10 12 14 14
1 1 2 1 2 2 5 10 19 17 20 26 33 39 57 75 45 46 80 100 100 100 100 100 100 100 86 65 56 52 50 38 27 24 17 12 12 12 9 8 7 6 6 6 5
1 1 1 2 2 3 5 10 20 20 22 26 30 42 59 59 54 51 53 91 97 100 100 100 99 83 84 82 90 84 72 53 44 34 31 20 16 12 9 8 6 5 4 4 3
2 2 1 2 2 3 6 14 22 24 25 29 33 42 45 46 67 67 58 55 55 61 70 81 83 82 89 90 85 71 68 55 45 35 28 23 20 14 11 6 5 4 4 3 3
3 3 2 2 2 3 5 11 14 21 26 29 32 37 42 44 60 65 57 50 50 52 50 54 66 75 81 79 74 62 56 51 52 40 26 22 24 15 7 5 4 3 3 2 2
4 4 5 3 3 3 4 6 12 18 24 34 38 41 43 46 51 51 48 48 49 56 63 51 44 48 58 58 51 49 54 51 33 26 20 11 9 6 5 4 3 3 2 2 2
5 5 4 5 6 5 5 5 8 13 22 26 34 46 49 48 49 50 52 48 40 38 27 23 28 35 44 54 57 49 29 27 21 15 9 9 8 10 7 5 3 3 2 2 2
8 6 6 6 7 7 7 8 9 10 11 17 26 34 44 45 38 27 28 17 17 21 26 36 42 50 57 48 37 35 24 13 12 11 13 14 9 7 6 4 3 2 2 2 2
8 10 10 8 8 9 10 11 12 13 12 14 14 15 16 16 18 21 22 21 19 21 23 20 21 24 25 22 20 13 12 13 15 16 10 9 7 6 5 4 3 2 2 2 2
20 11 10 10 13 12 10 9 10 13 14 15 17 19 19 21 20 17 16 17 18 16 15 15 14 12 11 12 13 17 20 11 9 11 10 10 8 7 6 4 3 2 2 2 2
50 28 19 11 11 11 14 20 15 12 11 12 12 12 12 12 12 14 18 19 16 14 16 20 20 22 21 16 10 8 12 12 12 10 12 10 11 13 8 5 4 3 2 2 2
52 57 48 31 26 19 14 13 14 14 14 14 13 13 13 12 13 13 11 10 9 9 9 9 9 10 10 11 12 12 11 11 11 12 14 18 15 20 10 6 6 3 3 2 2
40 54 52 56 51 38 33 29 25 23 22 22 22 21 19 18 18 16 14 14 14 14 14 14 12 10 10 11 12 13 16 14 14 17 20 16 19 25 27 16 13 9 6 3 2
38 45 41 44 44 56 59 56 47 36 33 32 31 32 31 31 31 28 25 24 23 21 19 18 15 15 16 20 24 24 23 19 19 20 28 25 29 46 45 34 26 18 14 9 4
23 32 35 36 37 41 47 52 55 55 56 55 54 53 52 50 47 44 41 39 39 38 36 35 33 30 27 26 26 24 22 22 23 26 29 36 38 42 45 46 36 26 29 24 18
27 27 28 29 31 38 39 36 38 43 43 45 48 51 54 57 58 59 60 58 58 58 56 53 48 44 43 43 40 35 34 36 32 29 26 27 27 28 35 32 38 36 32 36 29
31 29 31 33 30 30 35 32 33 34 36 42 43 42 44 46 46 48 48 53 55 56 56 58 59 59 59 57 54 53 50 49 48 45 39 35 30 28 36 36 34 34 27 24 28
35 34 29 31 39 38 29 33 35 34 37 38 40 37 38 40 44 48 49 46 44 46 50 54 58 58 56 54 56 60 60 57 55 54 53 48 43 43 43 38 35 34 35 37 37
37 41 34 28 29 40 44 42 37 34 36 36 37 38 37 37 40 46 40 40 38 36 33 30 30 37 49 54 52 49 48 49 54 56 55 53 51 51 49 48 48 46 45 45 43

GFSSW_250_rhum_108.txt.gz
RH
6 6 8 10 13 13 17 20 20 14 20 29 24 21 47 95 100 100 78 67 75 63 54 55 62 59 58 66 93 100 99 91 90 78 67 60 62 78 72 92 90 71 80 95 83
6 6 6 5 7 11 11 14 22 23 20 22 35 28 25 25 80 97 100 100 88 89 76 57 62 66 66 70 80 83 69 74 90 80 62 52 53 56 54 51 58 80 88 86 86
3 3 3 6 8 7 10 10 13 23 28 22 20 24 32 24 22 29 71 67 100 99 100 95 79 86 86 68 90 88 71 60 54 56 67 62 53 65 71 52 50 48 55 63 81
3 2 3 3 5 9 7 8 12 13 24 29 25 24 19 26 30 27 27 26 68 77 100 100 100 100 100 85 74 75 74 58 46 55 69 75 72 74 89 77 66 40 51 51 52
2 2 2 2 3 5 8 7 8 12 17 28 30 38 34 24 39 34 36 34 33 27 31 43 50 70 100 100 100 100 97 85 96 89 81 93 88 74 74 89 68 59 37 41 51
2 2 2 2 2 3 7 10 9 10 15 23 36 43 42 35 38 31 33 46 43 34 40 46 37 45 52 42 69 100 100 100 100 99 99 100 100 96 87 79 73 60 58 42 39
1 2 2 2 2 2 4 10 12 8 15 36 42 44 42 43 38 40 43 54 58 61 49 54 45 42 34 29 26 45 79 84 86 96 100 100 100 98 96 91 82 66 46 51 41
2 2 2 2 2 2 4 9 13 10 12 26 37 49 51 37 31 37 36 49 71 59 77 80 56 54 49 42 31 22 19 17 17 26 32 29 28 38 42 37 34 35 32 35 39
2 2 2 2 2 2 4 10 17 13 12 18 40 48 41 29 31 39 44 51 62 81 100 100 96 87 81 83 64 43 34 22 17 14 16 16 19 16 14 12 14 14 16 18 18
1 1 2 2 2 2 2 8 17 16 13 17 30 36 30 25 25 35 47 61 77 100 100 100 100 100 95 88 71 68 54 44 33 27 20 15 17 16 12 10 10 9 8 8 8
1 2 2 2 2 2 3 8 16 16 14 18 18 28 29 23 24 37 47 57 74 79 84 98 100 94 87 90 82 76 61 45 40 47 33 24 23 17 13 11 10 10 10 10 7
2 2 2 2 3 3 4 9 19 20 15 14 17 22 18 22 30 37 46 59 70 71 84 88 91 94 88 79 75 69 64 68 59 49 44 37 24 23 17 15 18 15 10 6 4
3 3 3 4 4 5 6 11 17 16 16 16 18 20 22 27 33 38 48 63 61 54 52 58 80 78 70 62 60 52 52 51 53 53 47 49 40 37 31 30 25 10 6 5 4
5 4 5 8 10 11 12 16 18 16 16 19 21 24 27 31 35 43 55 63 65 60 55 57 55 57 64 67 62 52 52 52 56 48 43 34 37 46 46 20 13 10 5 4 3
8 6 5 7 14 14 16 17 20 19 19 21 24 26 28 31 37 45 50 59 62 59 58 54 49 46 43 43 43 44 41 33 28 33 40 44 47 40 23 14 8 6 6 4 3
10 10 8 8 9 12 18 17 21 24 24 26 29 32 35 37 40 42 44 46 48 45 43 41 41 40 40 38 38 36 33 33 35 41 39 35 28 16 13 14 11 7 5 3 2
10 12 9 10 11 10 9 13 13 18 24 26 28 32 34 36 37 38 39 40 43 41 35 29 24 31 32 24 24 21 18 20 21 19 16 14 16 18 14 12 9 6 4 3 3
24 16 12 12 13 10 11 13 13 13 13 14 15 16 17 18 19 20 19 19 20 20 18 18 19 16 14 14 15 14 12 12 13 16 24 19 16 18 14 10 8 7 5 3 3
40 31 30 23 17 15 14 13 14 15 14 14 15 15 15 16 14 15 14 14 13 13 12 11 12 12 14 13 15 18 20 19 14 13 19 19 17 17 18 17 16 9 6 4 3
45 52 41 39 39 38 34 36 31 26 24 22 22 19 18 17 15 14 13 13 13 13 13 14 13 14 14 12 12 13 15 14 14 16 16 15 20 21 21 21 22 14 8 4 4
41 52 54 48 46 44 59 60 58 56 55 54 54 54 50 46 42 40 37 34 30 27 24 21 19 18 18 16 18 19 18 20 23 23 17 22 23 20 23 29 31 25 18 10 5
33 37 35 35 35 48 48 48 47 48 50 54 57 60 62 62 62 63 65 62 60 57 57 52 47 39 32 29 29 27 24 24 25 26 26 27 26 30 32 28 35 33 23 16 12
38 37 35 36 35 34 35 37 36 36 38 39 38 38 39 42 44 47 48 48 51 53 55 57 57 61 59 55 54 51 45 42 39 35 30 28 27 27 31 34 28 30 26 22 16
19 22 37 34 34 34 34 36 34 31 31 34 38 39 36 35 33 32 34 38 43 49 53 56 60 60 62 66 65 66 64 60 55 50 47 43 40 36 33 34 33 34 34 37 32
26 22 18 22 29 28 26 26 29 32 34 39 40 43 50 51 53 52 50 46 45 45 39 36 38 48 53 53 54 56 58 63 65 65 61 56 53 47 46 45 44 43 42 41 40
42 35 33 25 18 18 22 21 20 29 30 33 30 32 34 38 42 51 52 57 64 66 62 60 54 42 32 31 40 52 54 51 53 55 58 60 62 58 55 50 47 45 45 45 44
38 44 48 38 35 29 23 24 33 30 28 28 32 39 38 31 30 31 35 41 44 52 57 61 63 66 66 63 53 42 36 39 49 53 53 57 60 63 62 63 62 58 48 45 44

GFSSW_250_rhum_111.txt.gz
RH
4 6 10 23 24 20 21 20 16 17 16 13 25 44 86 89 86 100 100 92 94 94 93 83 77 94 90 78 78 96 100 100 100 97 88 76 90 91 98 63 49 66 94 100 100
3 5 5 5 7 14 15 23 23 19 19 13 14 14 16 35 95 100 100 100 100 100 100 95 67 71 70 76 100 89 84 94 96 86 86 100 100 91 85 68 75 57 49 57 82
3 3 4 6 6 6 8 13 30 27 25 19 18 18 18 17 100 78 80 100 100 100 100 100 99 69 68 66 78 78 80 78 84 97 90 97 99 92 84 64 69 68 53 45 41
3 3 3 3 3 7 7 8 17 29 34 25 26 25 20 20 22 23 62 98 100 100 100 92 91 96 94 94 92 72 66 57 62 77 72 63 67 91 86 73 64 72 57 60 59
2 3 3 3 3 4 7 9 9 21 33 31 35 31 25 19 19 20 35 37 97 100 100 100 100 98 90 89 78 86 79 69 68 67 63 69 72 71 76 69 57 49 51 56 57
2 2 2 3 3 3 4 8 13 12 26 30 32 37 35 27 23 25 30 34 29 53 95 100 100 100 100 96 89 79 81 72 78 84 78 83 85 73 76 71 65 49 53 59 55
2 2 2 2 2 2 3 5 14 11 14 23 34 38 38 34 32 30 24 31 28 25 32 70 96 100 100 93 99 100 100 98 90 79 85 100 99 91 80 89 90 76 72 78 66
2 2 2 2 2 2 3 5 14 13 12 16 28 35 42 37 31 36 36 40 44 39 32 26 26 38 48 33 53 57 63 93 90 81 79 87 85 81 80 96 95 78 62 66 71
2 2 2 2 3 3 3 4 12 13 12 14 29 41 40 35 31 38 38 40 38 35 37 34 29 24 23 24 27 24 22 24 21 21 19 22 22 22 32 65 85 81 72 62 53
2 2 2 2 2 2 3 5 10 15 11 12 24 41 41 42 37 32 37 38 44 42 42 39 34 34 34 26 34 34 35 31 22 25 18 15 15 15 16 16 15 14 13 13 13
2 2 2 2 2 2 3 7 16 15 14 14 22 38 40 38 37 29 30 40 46 53 54 64 75 74 68 61 64 67 66 57 42 36 38 29 32 27 23 17 12 11 12 10 10
5 4 3 3 3 4 6 17 22 20 12 12 17 24 31 28 25 25 32 42 46 57 62 53 52 51 50 70 77 84 78 77 57 55 53 57 38 36 28 22 18 18 18 14 12
11 7 6 6 5 7 16 25 25 19 15 11 11 13 18 18 15 23 31 41 48 52 56 59 62 57 70 89 86 91 90 79 63 60 49 63 50 44 34 29 23 20 17 14 14
20 21 17 17 14 15 16 18 20 17 15 15 13 12 13 16 19 26 34 40 46 51 52 54 54 65 65 63 62 78 76 59 51 48 49 46 43 52 47 29 20 17 15 16 11
9 17 24 22 22 23 20 18 17 16 16 16 16 18 18 20 24 29 34 41 45 48 50 53 61 61 60 54 55 64 68 72 71 64 53 50 48 38 25 21 20 20 16 12 7
8 10 15 21 25 23 23 23 21 20 21 24 23 23 22 23 26 32 36 40 42 44 48 56 57 57 58 54 52 49 46 44 44 42 40 38 33 26 21 23 18 11 8 8 6
11 10 9 8 12 18 26 30 29 31 29 29 29 27 28 28 31 33 37 42 48 54 60 62 56 48 44 41 40 38 33 27 23 20 20 21 20 18 15 12 11 12 11 9 6
23 20 14 12 11 12 12 12 16 25 34 42 41 39 39 39 39 39 40 40 40 40 40 35 28 21 16 16 16 18 18 18 16 14 12 11 11 13 15 13 14 14 13 11 7
36 32 27 24 21 22 19 18 19 18 18 18 19 20 20 20 20 19 19 19 18 18 18 17 16 14 14 14 15 14 14 16 16 15 12 12 13 15 17 18 17 18 16 11 7
33 42 39 35 35 32 30 38 36 37 39 38 36 33 30 30 31 28 26 23 23 22 21 22 22 21 18 17 15 16 16 17 16 14 16 19 21 22 21 17 23 22 21 17 12
38 41 38 37 35 36 43 45 43 43 42 43 45 47 49 52 55 56 54 51 48 44 43 42 41 41 38 36 36 33 29 29 28 28 27 26 27 29 28 28 30 30 28 26 20
24 31 40 36 35 36 37 35 37 40 42 42 41 40 41 41 41 40 40 40 41 41 42 44 45 45 46 46 48 50 51 49 45 43 42 41 42 41 39 37 40 42 38 34 28
29 24 23 24 32 37 34 34 38 41 42 44 50 54 58 60 56 44 41 38 36 37 40 43 42 42 41 42 42 42 44 45 44 47 51 55 55 52 51 49 49 51 50 47 46
38 31 33 30 25 27 26 28 31 31 31 34 40 45 53 59 62 64 67 69 72 72 68 65 61 54 48 48 47 45 45 44 43 42 42 44 48 52 52 54 56 57 56 54 52
56 50 36 32 41 36 36 34 34 33 37 36 32 36 38 38 48 56 64 67 73 79 85 91 82 87 84 78 80 76 57 48 46 51 49 48 43 42 42 42 45 51 57 58 58
51 61 59 51 47 39 43 43 44 43 42 42 42 44 47 43 40 39 42 48 58 66 76 85 84 86 91 86 85 88 79 74 62 49 36 34 46 56 54 51 49 50 51 50 49
55 61 62 58 52 51 52 44 43 47 45 47 50 49 51 46 47 40 42 48 61 71 65 64 75 78 75 72 73 78 88 87 77 63 64 58 33 21 30 51 67 69 67 62 60

GFSSW_250_rhum_114.txt.gz
RH
4 5 6 11 20 21 21 18 12 13 12 12 23 78 81 95 94 78 70 73 92 100 62 64 59 70 68 58 84 100 100 100 92 80 77 67 66 74 76 75 77 76 72 73 78
3 3 4 6 7 22 23 24 19 15 17 16 16 21 44 76 87 99 89 86 77 100 94 64 80 89 93 78 69 76 81 100 100 100 100 100 94 86 83 81 90 78 62 70 81
2 2 3 4 6 7 19 23 24 22 20 20 24 18 18 18 72 100 100 100 99 87 96 80 95 85 90 94 100 84 70 66 93 100 100 100 100 100 100 100 100 100 100 100 99
2 2 2 3 4 6 6 19 26 28 25 23 24 22 16 17 25 91 93 100 100 100 100 87 86 74 85 98 100 95 79 80 71 92 94 90 90 76 94 97 95 91 72 63 70
2 2 2 2 3 4 7 8 24 28 30 35 28 29 22 17 20 29 51 86 100 100 100 100 100 99 96 100 97 99 95 82 72 73 82 86 94 95 77 70 74 82 84 75 76
2 2 2 2 3 4 5 8 11 21 36 45 37 30 24 25 20 17 18 36 98 100 100 100 100 87 98 88 100 100 98 86 79 72 67 65 68 75 62 62 62 59 60 64 59
2 2 2 2 3 3 5 6 10 10 29 37 41 28 27 31 29 23 19 20 55 77 84 81 99 100 100 100 100 100 95 93 91 84 72 65 69 76 76 80 64 68 70 67 68
2 2 2 2 3 3 4 5 8 12 15 27 33 41 34 33 36 31 21 17 19 19 22 30 92 99 94 100 100 100 100 89 100 88 86 78 74 75 64 66 71 65 64 67 68
2 2 2 2 3 3 3 3 5 10 16 17 40 40 26 32 37 36 33 30 24 24 24 22 76 54 44 88 99 100 100 100 100 99 98 90 88 73 83 79 74 63 56 62 62
2 2 3 2 3 3 4 4 5 11 15 16 15 24 27 42 39 34 34 38 38 32 28 26 26 23 32 37 39 68 90 90 83 78 66 67 55 46 49 53 56 58 56 51 38
2 2 3 3 3 4 4 5 9 14 18 16 15 16 27 30 28 33 38 38 42 42 38 34 28 22 25 27 22 19 22 26 42 28 23 23 20 15 15 14 12 13 14 15 13
5 4 4 3 3 4 4 6 8 15 17 18 16 16 18 29 33 32 34 38 41 41 44 44 44 42 34 29 31 31 31 31 24 21 21 22 20 18 18 17 17 14 12 12 12
14 12 12 9 10 12 14 16 17 16 15 14 11 11 12 19 26 27 35 41 44 42 39 45 44 47 50 51 48 44 39 36 33 30 23 20 19 18 21 22 21 16 14 13 16
14 14 17 18 20 20 16 15 13 13 12 12 12 11 11 17 28 25 28 36 41 39 41 43 47 51 50 48 46 44 40 38 36 32 28 27 29 36 42 32 29 25 23 23 27
14 16 17 17 16 15 15 16 17 15 18 16 15 14 14 14 18 28 30 32 37 40 40 40 46 54 54 55 52 50 50 50 46 43 39 40 45 54 44 34 25 23 24 21 20
9 10 13 16 20 21 23 24 24 22 25 26 28 28 28 28 26 27 29 32 36 41 45 47 49 52 53 51 50 51 54 49 41 35 37 33 28 28 24 21 22 22 20 16 12
14 12 10 10 15 20 22 24 28 29 28 26 28 28 31 31 33 40 42 44 41 44 47 49 49 49 50 48 49 49 43 39 33 32 33 29 27 24 19 16 15 14 14 12 11
42 27 18 14 11 10 12 18 28 28 30 29 26 25 23 24 26 29 32 35 36 38 42 44 44 42 40 40 37 40 37 24 18 17 17 15 14 13 14 16 16 15 16 20 17
30 39 43 34 25 21 21 15 13 14 15 17 21 27 29 28 28 28 28 29 31 33 35 38 38 36 26 19 16 14 14 14 14 13 13 14 14 14 14 18 22 26 27 31 24
34 34 28 33 41 44 45 40 34 31 29 27 25 22 20 19 19 20 19 20 20 21 22 22 23 22 23 24 23 22 22 25 22 19 17 18 23 27 33 31 34 36 37 36 36
34 34 34 40 43 43 49 44 46 49 50 50 50 48 46 43 39 38 36 38 38 41 43 44 43 43 42 38 36 34 33 32 32 32 34 36 37 36 38 40 40 40 39 39 39
38 40 38 36 36 43 54 61 74 72 65 73 73 71 62 58 48 47 44 43 42 41 38 37 35 35 34 32 33 34 35 36 36 38 38 38 38 40 41 41 42 44 44 43 41
45 38 34 40 40 42 38 40 48 50 57 62 65 66 62 63 60 56 52 53 51 49 50 49 44 43 46 48 46 40 37 31 28 29 32 36 36 38 39 39 42 44 48 55 58
54 51 43 34 36 42 44 42 37 35 36 39 42 46 50 54 60 63 60 58 59 62 62 62 64 63 60 51 48 51 54 51 45 40 41 35 34 26 20 28 42 51 55 55 57
28 44 48 46 36 33 43 43 40 38 36 31 30 33 34 38 43 46 54 57 54 52 54 56 60 62 61 60 60 62 60 58 53 51 50 54 58 52 45 39 30 30 35 44 55
37 36 40 43 43 46 39 32 30 30 34 41 41 36 33 34 36 35 38 41 40 52 55 48 43 46 51 49 46 47 58 60 60 61 66 62 58 53 49 50 48 46 46 43 37
39 54 50 46 47 52 60 47 41 38 36 33 32 37 37 36 39 39 38 34 32 30 33 34 37 38 34 33 37 38 41 40 39 38 41 45 48 51 57 56 56 53 54 56 55

GFSSW_250_rhum_117.txt.gz
RH
2 4 4 6 13 21 23 22 15 13 14 13 13 19 51 76 68 51 65 87 83 87 87 69 74 100 100 100 91 97 99 100 100 100 82 69 64 62 63 64 66 68 70 74 73
2 3 4 5 5 13 23 27 24 18 14 14 13 14 14 79 84 86 59 70 79 63 66 75 66 81 98 100 100 100 100 87 91 89 100 97 76 76 77 75 68 64 64 67 73
2 3 3 4 6 6 13 25 30 27 24 20 20 12 14 28 83 94 87 72 83 77 73 75 96 83 91 94 97 100 99 81 70 63 74 100 100 100 100 100 92 88 84 84 84
1 2 3 4 5 5 8 22 30 32 31 26 22 18 14 14 43 79 90 97 98 100 99 90 85 100 100 97 81 98 100 87 79 64 100 73 99 100 100 100 100 100 100 100 100
1 2 2 2 4 4 6 8 28 35 29 30 30 24 22 20 16 36 53 96 100 100 98 99 80 98 100 100 100 90 87 71 57 68 87 85 85 83 74 70 81 92 96 91 88
2 1 2 2 3 4 5 7 11 25 31 31 32 31 24 25 19 17 18 34 89 100 100 100 97 84 97 100 100 100 99 80 83 95 89 92 88 78 79 74 62 60 81 92 94
2 2 2 2 2 3 4 6 7 11 21 33 32 30 32 22 26 22 18 17 24 57 98 100 100 100 100 92 90 97 88 85 74 78 70 89 82 79 71 64 69 73 65 64 61
2 2 2 2 2 2 3 5 7 8 16 25 36 34 30 30 28 23 20 19 20 24 35 46 90 100 100 100 100 99 95 93 80 83 79 70 73 91 98 94 80 70 65 65 56
2 2 2 3 3 3 3 4 6 9 10 21 35 34 28 30 30 31 33 32 27 25 26 23 28 94 94 98 100 100 100 94 94 85 74 72 84 85 85 80 69 64 63 69 64
2 2 3 3 3 3 3 4 6 9 11 21 31 30 23 24 31 34 32 31 29 28 26 23 22 48 64 69 95 96 96 98 93 90 90 88 92 71 60 61 64 63 56 52 54
3 3 3 3 4 4 4 5 6 10 13 15 20 20 18 20 31 40 42 36 35 37 39 35 26 23 18 18 33 79 84 73 60 87 85 79 87 79 72 66 64 54 58 56 48
9 8 5 4 4 5 5 5 7 11 15 15 15 17 17 14 29 38 41 43 41 39 39 44 38 30 23 20 20 18 17 15 21 72 42 26 34 31 42 57 46 22 28 26 14
12 11 13 14 8 6 6 5 7 13 18 18 17 17 20 14 18 39 46 42 42 40 39 39 40 40 37 33 32 32 29 24 21 21 20 20 22 21 20 18 16 16 14 12 12
13 13 12 12 14 16 15 15 17 16 16 15 15 17 19 17 17 30 42 40 42 45 44 42 40 42 41 43 48 48 43 41 40 38 35 34 31 33 28 23 20 17 16 17 17
16 15 14 11 11 12 15 17 17 18 18 17 17 18 18 15 14 18 33 46 47 48 43 42 42 40 38 42 48 47 44 44 43 41 36 31 27 32 31 26 23 20 19 18 19
11 14 18 18 17 16 15 16 14 19 22 24 24 27 24 21 16 16 22 30 32 34 35 36 38 37 39 44 44 44 44 40 35 32 31 30 28 31 26 23 25 27 24 19 15
34 17 12 12 19 23 22 20 21 27 22 19 19 20 14 14 18 21 25 29 33 34 36 38 38 38 39 39 38 37 35 35 35 35 35 31 31 29 27 18 16 14 13 13 14
31 38 34 19 14 15 21 26 26 25 25 24 24 21 18 19 19 19 22 27 31 33 34 36 39 38 37 33 33 37 39 37 36 30 23 15 16 15 14 14 15 15 19 23 29
33 32 34 36 40 38 32 20 16 17 22 27 28 25 25 24 22 22 23 24 26 29 32 32 32 32 36 39 34 25 20 18 17 15 15 15 15 14 16 18 23 28 32 34 36
40 37 36 40 35 34 41 44 45 39 31 26 23 21 23 27 28 31 31 32 33 34 34 33 30 29 28 32 33 32 33 33 28 24 23 28 29 28 30 31 33 35 37 37 40
39 42 40 40 43 45 49 43 39 42 38 43 45 44 42 35 29 30 29 31 36 38 42 47 47 46 43 40 34 31 30 29 29 29 30 30 30 32 33 33 32 32 32 32 34
29 28 28 29 32 37 42 43 51 51 52 57 57 54 44 44 36 39 42 41 43 46 45 43 42 40 37 36 35 34 32 32 32 33 32 34 36 33 28 24 20 21 23 25 27
36 36 29 26 23 30 30 32 35 40 43 49 52 51 52 50 47 48 49 49 49 46 45 41 41 40 39 38 39 42 42 41 41 41 43 42 42 42 44 43 44 45 47 49 51
27 42 45 39 33 32 29 26 27 29 32 29 30 28 30 32 37 36 36 34 32 34 32 33 37 37 38 36 38 41 41 40 40 42 42 48 50 52 53 48 45 43 44 46 47
26 34 40 61 52 43 34 35 31 31 30 26 25 26 25 25 30 30 27 26 27 26 27 29 31 34 36 38 44 52 60 64 63 59 58 56 51 51 50 52 56 57 58 54 54
34 38 37 52 68 66 53 49 47 40 41 34 34 34 31 30 28 30 30 28 30 29 26 25 26 28 30 36 36 41 41 46 52 55 57 60 54 55 49 44 45 48 51 59 63
50 50 49 46 52 45 88 74 62 47 58 49 42 45 44 42 53 46 33 30 36 42 46 49 50 47 42 45 48 42 47 43 45 51 48 52 60 65 60 58 54 53 51 48 46

GFSSW_250_rhum_120.txt.gz
RH
2 2 2 3 6 8 12 18 15 14 14 12 12 13 20 47 76 72 74 54 49 55 70 91 96 99 99 92 77 83 92 99 77 65 58 58 59 68 66 61 61 62 61 57 58
1 2 2 3 3 7 9 16 20 17 15 13 11 13 13 24 54 65 86 70 52 55 66 69 86 96 99 95 99 94 98 77 99 99 76 76 73 82 85 81 75 72 66 65 65
1 1 1 2 3 4 8 12 22 21 21 18 13 13 12 14 14 30 80 91 57 57 65 75 94 90 95 91 92 100 100 100 96 82 94 100 100 100 100 100 99 95 84 81 82
1 1 1 3 3 3 4 10 22 28 24 22 17 13 14 13 14 19 25 50 95 87 76 58 68 99 94 100 89 78 100 100 95 98 100 99 88 86 83 87 81 80 82 98 99
2 1 1 2 3 3 4 9 18 30 29 28 21 15 18 14 14 17 19 33 78 100 100 90 73 100 100 100 100 97 100 86 84 98 99 100 100 100 81 77 64 62 77 95 100
2 2 2 2 2 3 4 7 18 29 32 18 26 20 19 18 17 16 16 19 27 50 81 100 96 87 100 100 100 95 82 77 82 96 98 100 100 100 94 66 58 54 58 60 71
2 2 2 2 3 3 4 6 17 33 37 20 32 33 24 23 19 17 17 17 19 21 50 92 100 77 80 98 100 98 91 84 83 84 76 88 91 84 89 82 65 59 62 67 69
2 2 2 2 2 4 4 6 9 26 32 22 28 34 32 30 24 20 20 19 19 21 22 83 95 100 100 99 97 91 89 90 93 90 92 84 78 78 69 74 67 62 59 64 59
3 3 2 2 2 3 5 6 7 14 22 15 29 38 38 37 37 31 29 26 22 21 22 33 82 90 98 100 100 100 100 100 91 88 82 85 88 82 77 85 77 66 67 62 63
4 3 3 3 2 2 4 5 7 9 17 22 32 35 40 42 41 40 35 32 29 28 23 21 42 61 50 56 91 100 100 100 100 96 87 82 78 72 76 75 69 67 62 59 52
3 4 4 4 3 3 4 5 7 12 20 27 29 28 38 43 44 41 40 34 34 37 34 23 19 16 17 16 19 31 47 65 79 100 100 100 100 81 70 74 79 87 74 65 53
6 4 5 4 4 4 5 6 7 13 16 25 26 42 31 37 39 38 41 42 41 38 31 26 26 29 28 26 26 26 25 20 17 44 77 80 73 70 75 77 71 56 47 29 53
10 9 7 5 5 6 6 7 8 8 10 11 14 22 26 31 36 38 41 46 41 38 38 36 35 36 38 38 35 31 26 24 22 22 20 19 18 22 25 22 19 16 15 20 18
14 12 12 12 10 10 10 11 12 13 13 13 14 15 19 28 31 36 39 47 45 42 38 37 39 41 38 37 37 35 29 25 24 25 24 22 18 25 20 19 17 16 18 18 20
19 16 14 12 13 15 18 19 18 16 16 16 15 18 19 25 30 35 44 45 44 40 40 39 43 43 38 40 41 41 40 38 36 36 35 32 26 42 29 24 26 27 28 33 36
20 15 21 18 17 18 17 17 22 16 17 14 13 15 21 25 30 32 43 45 42 39 39 41 44 40 38 38 38 39 39 38 38 39 37 33 29 39 38 37 36 35 34 28 24
32 30 19 13 19 22 22 21 20 22 19 15 13 9 12 12 15 17 18 26 35 35 36 38 36 37 38 39 39 38 35 33 34 34 35 36 36 37 36 30 26 21 16 14 15
34 36 31 35 29 19 17 21 22 22 22 20 20 15 15 14 11 13 15 18 21 28 30 32 36 36 38 37 35 32 32 32 33 30 24 18 15 13 12 12 12 13 15 16 21
30 35 38 37 32 39 41 36 20 16 20 22 22 21 21 20 18 20 19 22 25 27 30 36 33 33 32 33 30 23 19 23 22 21 18 18 19 19 19 20 24 30 33 35 37
22 27 33 40 43 46 50 48 42 39 31 22 18 18 21 24 24 26 26 27 27 29 29 29 28 25 27 36 41 42 40 39 37 35 36 32 32 31 31 32 31 29 28 27 27
25 21 21 26 29 35 44 46 49 49 44 40 42 39 38 37 36 34 35 34 35 37 39 41 42 43 48 50 48 46 43 41 38 35 34 33 33 33 33 32 32 33 35 34 34
37 32 25 22 22 22 23 30 36 36 39 45 48 49 50 51 51 51 50 49 50 50 50 49 47 43 36 38 41 44 42 38 37 36 35 37 38 35 36 41 44 45 46 47 47
49 46 36 34 24 23 21 22 26 26 26 30 29 30 30 32 37 39 39 40 38 41 47 50 52 52 54 54 53 53 53 57 59 59 55 52 53 54 55 55 56 56 50 48 46
51 57 57 51 43 25 32 28 23 24 26 23 22 24 26 25 25 27 28 33 33 34 37 38 39 42 42 47 54 58 64 64 67 67 74 82 71 70 74 82 73 62 64 63 61
50 63 63 64 61 44 34 26 41 35 39 35 38 39 33 35 36 28 26 26 32 37 46 53 49 47 46 46 45 42 59 56 55 54 51 70 74 73 73 71 63 53 48 50 54
54 68 64 58 77 78 52 33 26 33 29 43 49 50 33 41 37 45 41 35 28 24 22 23 28 46 43 40 61 62 67 64 75 61 48 44 50 47 56 62 66 68 65 60 65
84 63 65 70 59 65 79 62 44 28 28 24 30 33 48 54 34 39 61 44 45 52 49 36 37 36 33 43 43 65 65 60 61 72 64 57 52 58 68 66 68 73 80 77 68